<?xml version='1.0' encoding='UTF-8'?><gpx version="1.1" creator="JPX - https://github.com/jenetics/jpx" xmlns="http://www.topografix.com/GPX/1/1"><trk><trkseg><trkpt lat="39.17875192945582" lon="8.540977687264409"><ele>143.0</ele><time>2026-05-02T13:21:07.999Z</time></trkpt><trkpt lat="39.178823022327435" lon="8.540979256722052"><ele>143.0</ele><time>2026-05-02T13:21:09.999Z</time></trkpt><trkpt lat="39.17886048598168" lon="8.541066344792114"><ele>143.0</ele><time>2026-05-02T13:21:12.999Z</time></trkpt><trkpt lat="39.17890905144718" lon="8.541132529036332"><ele>143.0</ele><time>2026-05-02T13:21:13.999Z</time></trkpt><trkpt lat="39.178959026129746" lon="8.541197784763039"><ele>143.0</ele><time>2026-05-02T13:21:14.999Z</time></trkpt><trkpt lat="39.17900733957993" lon="8.541344516293233"><ele>143.0</ele><time>2026-05-02T13:21:16.999Z</time></trkpt><trkpt lat="39.17893760613899" lon="8.541467506033529"><ele>146.8</ele><time>2026-05-02T13:21:17.999Z</time></trkpt><trkpt lat="39.17895258316729" lon="8.541626560165916"><ele>150.60000000000002</ele><time>2026-05-02T13:21:19.999Z</time></trkpt><trkpt lat="39.17893242484498" lon="8.541741036104922"><ele>154.39999999999998</ele><time>2026-05-02T13:21:22.999Z</time></trkpt><trkpt lat="39.178924815842414" lon="8.541847480380428"><ele>158.2</ele><time>2026-05-02T13:21:25.999Z</time></trkpt><trkpt lat="39.1789163743401" lon="8.54193277432521"><ele>162.0</ele><time>2026-05-02T13:21:27.999Z</time></trkpt><trkpt lat="39.17890007824992" lon="8.54204976417457"><ele>164.6</ele><time>2026-05-02T13:21:30.999Z</time></trkpt><trkpt lat="39.178880157976195" lon="8.542163722500733"><ele>167.2</ele><time>2026-05-02T13:21:32.999Z</time></trkpt><trkpt lat="39.1788648875551" lon="8.542264404289483"><ele>169.8</ele><time>2026-05-02T13:21:34.999Z</time></trkpt><trkpt lat="39.178846336532764" lon="8.542466686827217"><ele>172.4</ele><time>2026-05-02T13:21:38.999Z</time></trkpt><trkpt lat="39.17885040312666" lon="8.542578460377795"><ele>175.0</ele><time>2026-05-02T13:21:40.999Z</time></trkpt><trkpt lat="39.1788891274509" lon="8.542741804667015"><ele>167.75</ele><time>2026-05-02T13:21:42.999Z</time></trkpt><trkpt lat="39.17912800747286" lon="8.542702217577665"><ele>160.5</ele><time>2026-05-02T13:21:44.999Z</time></trkpt><trkpt lat="39.179192757859305" lon="8.542790587592926"><ele>153.25</ele><time>2026-05-02T13:21:47.999Z</time></trkpt><trkpt lat="39.179246842313795" lon="8.542855242205915"><ele>146.0</ele><time>2026-05-02T13:21:49.999Z</time></trkpt><trkpt lat="39.17932190323913" lon="8.542873513911928"><ele>147.83333333333331</ele><time>2026-05-02T13:21:51.999Z</time></trkpt><trkpt lat="39.17938854667617" lon="8.542920953497287"><ele>149.66666666666666</ele><time>2026-05-02T13:21:53.999Z</time></trkpt><trkpt lat="39.1794588531712" lon="8.542992327749861"><ele>151.5</ele><time>2026-05-02T13:22:11.999Z</time></trkpt><trkpt lat="39.17953291689147" lon="8.543046444401924"><ele>153.33333333333334</ele><time>2026-05-02T13:22:13.999Z</time></trkpt><trkpt lat="39.17959831674175" lon="8.543086741671425"><ele>155.16666666666669</ele><time>2026-05-02T13:22:27.998Z</time></trkpt><trkpt lat="39.17969046378064" lon="8.54313600752177"><ele>157.0</ele><time>2026-05-02T13:22:30.998Z</time></trkpt><trkpt lat="39.179754425477384" lon="8.543203184296257"><ele>157.0</ele><time>2026-05-02T13:22:32.998Z</time></trkpt><trkpt lat="39.17981630025664" lon="8.54326850283831"><ele>157.0</ele><time>2026-05-02T13:22:34.998Z</time></trkpt><trkpt lat="39.17986637735158" lon="8.543330308607906"><ele>157.0</ele><time>2026-05-02T13:22:38Z</time></trkpt><trkpt lat="39.17995535502224" lon="8.543458353991747"><ele>157.0</ele><time>2026-05-02T13:22:40Z</time></trkpt><trkpt lat="39.18000015564141" lon="8.543520231688282"><ele>157.0</ele><time>2026-05-02T13:22:41Z</time></trkpt><trkpt lat="39.18006705070982" lon="8.543585660177765"><ele>157.0</ele><time>2026-05-02T13:22:43Z</time></trkpt><trkpt lat="39.18011116703422" lon="8.54366023034196"><ele>156.16666666666669</ele><time>2026-05-02T13:22:45Z</time></trkpt><trkpt lat="39.18017953332378" lon="8.54372708211549"><ele>155.33333333333334</ele><time>2026-05-02T13:22:48Z</time></trkpt><trkpt lat="39.18025407182087" lon="8.543783321480504"><ele>154.5</ele><time>2026-05-02T13:22:51Z</time></trkpt><trkpt lat="39.18028208872949" lon="8.543884602404018"><ele>153.66666666666666</ele><time>2026-05-02T13:22:54Z</time></trkpt><trkpt lat="39.180310369037315" lon="8.543972122392745"><ele>152.83333333333331</ele><time>2026-05-02T13:22:57Z</time></trkpt><trkpt lat="39.180367057026835" lon="8.54401190651264"><ele>152.0</ele><time>2026-05-02T13:22:59Z</time></trkpt><trkpt lat="39.18038848074155" lon="8.544102515946406"><ele>152.0</ele><time>2026-05-02T13:23:02Z</time></trkpt><trkpt lat="39.18041513647886" lon="8.544211343198008"><ele>152.0</ele><time>2026-05-02T13:23:04Z</time></trkpt><trkpt lat="39.180435298620445" lon="8.544305213380392"><ele>152.0</ele><time>2026-05-02T13:23:06Z</time></trkpt><trkpt lat="39.18045203062436" lon="8.544385424940542"><ele>152.0</ele><time>2026-05-02T13:23:07.999Z</time></trkpt><trkpt lat="39.18046864477385" lon="8.544488037277851"><ele>152.0</ele><time>2026-05-02T13:23:09.999Z</time></trkpt><trkpt lat="39.1805029080311" lon="8.54459723923129"><ele>152.0</ele><time>2026-05-02T13:23:12.999Z</time></trkpt><trkpt lat="39.18051960671389" lon="8.544685273396286"><ele>153.83333333333331</ele><time>2026-05-02T13:23:15.999Z</time></trkpt><trkpt lat="39.18054426307284" lon="8.544782488573238"><ele>155.66666666666666</ele><time>2026-05-02T13:23:18.999Z</time></trkpt><trkpt lat="39.18054574811294" lon="8.544895580599404"><ele>157.5</ele><time>2026-05-02T13:23:21.999Z</time></trkpt><trkpt lat="39.18058389674403" lon="8.54500094436634"><ele>159.33333333333334</ele><time>2026-05-02T13:23:23.999Z</time></trkpt><trkpt lat="39.18058747322768" lon="8.545104860869575"><ele>161.16666666666669</ele><time>2026-05-02T13:23:26.999Z</time></trkpt><trkpt lat="39.18060923218563" lon="8.545221650705228"><ele>163.0</ele><time>2026-05-02T13:23:29.999Z</time></trkpt><trkpt lat="39.18061708564004" lon="8.54532151525028"><ele>161.57142857142858</ele><time>2026-05-02T13:23:37.999Z</time></trkpt><trkpt lat="39.180625698179746" lon="8.545404254103204"><ele>160.14285714285714</ele><time>2026-05-02T13:23:40.999Z</time></trkpt><trkpt lat="39.180624494311736" lon="8.545495764491827"><ele>158.71428571428572</ele><time>2026-05-02T13:23:42.999Z</time></trkpt><trkpt lat="39.18069680779812" lon="8.545572484199184"><ele>157.28571428571428</ele><time>2026-05-02T13:23:44.999Z</time></trkpt><trkpt lat="39.18072833933139" lon="8.545646254425685"><ele>155.85714285714286</ele><time>2026-05-02T13:23:47.999Z</time></trkpt><trkpt lat="39.18077802245969" lon="8.545709653532393"><ele>154.42857142857142</ele><time>2026-05-02T13:23:50.999Z</time></trkpt><trkpt lat="39.180827829018085" lon="8.545789176177587"><ele>153.0</ele><time>2026-05-02T13:23:52.999Z</time></trkpt><trkpt lat="39.180893093287516" lon="8.545874282603835"><ele>153.0</ele><time>2026-05-02T13:23:55.999Z</time></trkpt><trkpt lat="39.18095437699968" lon="8.545958312236346"><ele>153.0</ele><time>2026-05-02T13:23:58.999Z</time></trkpt><trkpt lat="39.18098583209529" lon="8.546053908302746"><ele>153.0</ele><time>2026-05-02T13:24:00.999Z</time></trkpt><trkpt lat="39.18103101047927" lon="8.546147691325844"><ele>153.0</ele><time>2026-05-02T13:24:03.999Z</time></trkpt><trkpt lat="39.181084773402645" lon="8.546191286560148"><ele>153.0</ele><time>2026-05-02T13:24:05.999Z</time></trkpt><trkpt lat="39.18114090650206" lon="8.546287486438988"><ele>153.0</ele><time>2026-05-02T13:24:08.999Z</time></trkpt><trkpt lat="39.18117436546859" lon="8.546357059593035"><ele>155.16666666666666</ele><time>2026-05-02T13:24:10.999Z</time></trkpt><trkpt lat="39.18122138197726" lon="8.546417469514713"><ele>157.33333333333334</ele><time>2026-05-02T13:24:13.999Z</time></trkpt><trkpt lat="39.18127318956791" lon="8.54651786525353"><ele>159.5</ele><time>2026-05-02T13:24:17.999Z</time></trkpt><trkpt lat="39.181338840980004" lon="8.546587833217913"><ele>161.66666666666669</ele><time>2026-05-02T13:24:20.999Z</time></trkpt><trkpt lat="39.181396598799004" lon="8.546659056499417"><ele>163.83333333333334</ele><time>2026-05-02T13:24:22.998Z</time></trkpt><trkpt lat="39.18144128528247" lon="8.546727373293148"><ele>166.0</ele><time>2026-05-02T13:24:24.998Z</time></trkpt><trkpt lat="39.18150984590105" lon="8.546801159017468"><ele>165.5</ele><time>2026-05-02T13:24:27.998Z</time></trkpt><trkpt lat="39.181568285022905" lon="8.54686077532862"><ele>165.0</ele><time>2026-05-02T13:24:29.998Z</time></trkpt><trkpt lat="39.181631204819936" lon="8.546938714093953"><ele>164.5</ele><time>2026-05-02T13:24:32.998Z</time></trkpt><trkpt lat="39.18166998003241" lon="8.547016197429478"><ele>164.0</ele><time>2026-05-02T13:24:35.998Z</time></trkpt><trkpt lat="39.18169553514355" lon="8.547148249964776"><ele>163.5</ele><time>2026-05-02T13:25:05Z</time></trkpt><trkpt lat="39.181690469987004" lon="8.547264963189813"><ele>163.0</ele><time>2026-05-02T13:25:08Z</time></trkpt><trkpt lat="39.1817003622164" lon="8.547359925547852"><ele>162.66666666666669</ele><time>2026-05-02T13:25:33.999Z</time></trkpt><trkpt lat="39.18174430442099" lon="8.54746761902022"><ele>162.33333333333334</ele><time>2026-05-02T13:26:28.998Z</time></trkpt><trkpt lat="39.181798765551775" lon="8.547552715320592"><ele>162.0</ele><time>2026-05-02T13:27:03Z</time></trkpt><trkpt lat="39.18184039187629" lon="8.547635694503448"><ele>161.66666666666666</ele><time>2026-05-02T13:27:09Z</time></trkpt><trkpt lat="39.181871550325816" lon="8.547727990766209"><ele>161.33333333333331</ele><time>2026-05-02T13:27:19.999Z</time></trkpt><trkpt lat="39.18190124981596" lon="8.547819944823138"><ele>161.0</ele><time>2026-05-02T13:30:17.999Z</time></trkpt><trkpt lat="39.18189903226843" lon="8.547922885918277"><ele>160.66666666666666</ele><time>2026-05-02T13:32:29.999Z</time></trkpt><trkpt lat="39.18186615269228" lon="8.54801257177256"><ele>160.33333333333331</ele><time>2026-05-02T13:32:33.999Z</time></trkpt><trkpt lat="39.18182359576323" lon="8.548110240642648"><ele>160.0</ele><time>2026-05-02T13:32:37.998Z</time></trkpt><trkpt lat="39.18176801362007" lon="8.548185854209272"><ele>159.66666666666666</ele><time>2026-05-02T13:32:39.998Z</time></trkpt><trkpt lat="39.18171972619842" lon="8.548243398973387"><ele>159.33333333333334</ele><time>2026-05-02T13:32:42.998Z</time></trkpt><trkpt lat="39.181667312581766" lon="8.548327789105281"><ele>159.0</ele><time>2026-05-02T13:32:45.998Z</time></trkpt><trkpt lat="39.18160161805039" lon="8.54840348010886"><ele>159.0</ele><time>2026-05-02T13:32:48.998Z</time></trkpt><trkpt lat="39.18154906185664" lon="8.548492720169454"><ele>159.0</ele><time>2026-05-02T13:32:50.998Z</time></trkpt><trkpt lat="39.18150130965609" lon="8.548573860741904"><ele>159.0</ele><time>2026-05-02T13:32:52.998Z</time></trkpt><trkpt lat="39.18150692447963" lon="8.548687696813566"><ele>159.0</ele><time>2026-05-02T13:32:56.998Z</time></trkpt><trkpt lat="39.18149492494537" lon="8.548770145048916"><ele>159.0</ele><time>2026-05-02T13:32:58.998Z</time></trkpt><trkpt lat="39.18148305770111" lon="8.548858839326751"><ele>159.0</ele><time>2026-05-02T13:33:09Z</time></trkpt><trkpt lat="39.18144050896098" lon="8.548935777379313"><ele>159.83333333333334</ele><time>2026-05-02T13:33:14Z</time></trkpt><trkpt lat="39.181451059076515" lon="8.549057700271286"><ele>160.66666666666666</ele><time>2026-05-02T13:33:36.999Z</time></trkpt><trkpt lat="39.181482722826985" lon="8.549134577095284"><ele>161.5</ele><time>2026-05-02T13:33:37.999Z</time></trkpt><trkpt lat="39.18152099801504" lon="8.549251898228606"><ele>162.33333333333331</ele><time>2026-05-02T13:33:39.999Z</time></trkpt><trkpt lat="39.18155766620701" lon="8.549320190054507"><ele>163.16666666666666</ele><time>2026-05-02T13:33:42.999Z</time></trkpt><trkpt lat="39.18156147191184" lon="8.549407758723127"><ele>164.0</ele><time>2026-05-02T13:33:45.999Z</time></trkpt><trkpt lat="39.181558787832486" lon="8.549544611094946"><ele>164.33333333333331</ele><time>2026-05-02T13:33:48.999Z</time></trkpt><trkpt lat="39.18159815701791" lon="8.549641648305112"><ele>164.66666666666666</ele><time>2026-05-02T13:33:50.999Z</time></trkpt><trkpt lat="39.18161992095104" lon="8.549750572076961"><ele>165.0</ele><time>2026-05-02T13:33:52.999Z</time></trkpt><trkpt lat="39.18165643275332" lon="8.549835020543414"><ele>165.33333333333334</ele><time>2026-05-02T13:33:54.999Z</time></trkpt><trkpt lat="39.18164205089884" lon="8.549952753729311"><ele>165.66666666666669</ele><time>2026-05-02T13:33:56.999Z</time></trkpt><trkpt lat="39.18164246939651" lon="8.550064777382659"><ele>166.0</ele><time>2026-05-02T13:33:58.999Z</time></trkpt><trkpt lat="39.181632830012305" lon="8.550202635649745"><ele>166.0</ele><time>2026-05-02T13:34:02.999Z</time></trkpt><trkpt lat="39.181623762359685" lon="8.550294375454738"><ele>166.0</ele><time>2026-05-02T13:34:04.999Z</time></trkpt><trkpt lat="39.18162943289994" lon="8.55038101526453"><ele>166.0</ele><time>2026-05-02T13:34:15.999Z</time></trkpt><trkpt lat="39.181637471657204" lon="8.550483502719407"><ele>166.0</ele><time>2026-05-02T13:34:21.999Z</time></trkpt><trkpt lat="39.18158253368275" lon="8.550566193326373"><ele>166.0</ele><time>2026-05-02T13:34:23.999Z</time></trkpt><trkpt lat="39.18153295420939" lon="8.550660542967329"><ele>166.0</ele><time>2026-05-02T13:34:25.999Z</time></trkpt><trkpt lat="39.18147045576676" lon="8.550740525967"><ele>166.16666666666669</ele><time>2026-05-02T13:34:28.999Z</time></trkpt><trkpt lat="39.181412639623815" lon="8.550846806736596"><ele>166.33333333333334</ele><time>2026-05-02T13:34:31.999Z</time></trkpt><trkpt lat="39.181378977428075" lon="8.550933729894616"><ele>166.5</ele><time>2026-05-02T13:34:33.999Z</time></trkpt><trkpt lat="39.18136425714417" lon="8.551029767631515"><ele>166.66666666666666</ele><time>2026-05-02T13:34:36.999Z</time></trkpt><trkpt lat="39.18137906156856" lon="8.55111093492991"><ele>166.83333333333331</ele><time>2026-05-02T13:34:49.998Z</time></trkpt><trkpt lat="39.181358142064326" lon="8.551199868780943"><ele>167.0</ele><time>2026-05-02T13:35:11Z</time></trkpt><trkpt lat="39.181338970849836" lon="8.551293447556993"><ele>167.0</ele><time>2026-05-02T13:35:14Z</time></trkpt><trkpt lat="39.18134348677403" lon="8.551398132945526"><ele>167.0</ele><time>2026-05-02T13:35:17Z</time></trkpt><trkpt lat="39.18135197130279" lon="8.551496692872659"><ele>167.0</ele><time>2026-05-02T13:35:24Z</time></trkpt><trkpt lat="39.18135400258124" lon="8.551593278826134"><ele>167.0</ele><time>2026-05-02T13:35:26Z</time></trkpt><trkpt lat="39.181315603301975" lon="8.551715648879606"><ele>167.0</ele><time>2026-05-02T13:35:59.999Z</time></trkpt><trkpt lat="39.1812921771741" lon="8.551802009899232"><ele>167.0</ele><time>2026-05-02T13:36:04.999Z</time></trkpt><trkpt lat="39.181293654960704" lon="8.551907084996008"><ele>167.0</ele><time>2026-05-02T13:36:09.999Z</time></trkpt><trkpt lat="39.18133023276119" lon="8.551987695923444"><ele>167.0</ele><time>2026-05-02T13:36:12.999Z</time></trkpt><trkpt lat="39.18138821818992" lon="8.552034907700603"><ele>167.0</ele><time>2026-05-02T13:36:14.999Z</time></trkpt><trkpt lat="39.18143472843466" lon="8.552091528064318"><ele>167.0</ele><time>2026-05-02T13:36:16.999Z</time></trkpt><trkpt lat="39.181525512656584" lon="8.552149553652114"><ele>167.0</ele><time>2026-05-02T13:36:19.999Z</time></trkpt><trkpt lat="39.18159146578858" lon="8.55215637996895"><ele>167.0</ele><time>2026-05-02T13:36:21.999Z</time></trkpt><trkpt lat="39.181718917578586" lon="8.552152937261285"><ele>168.8</ele><time>2026-05-02T13:36:23.999Z</time></trkpt><trkpt lat="39.18181371180067" lon="8.552150814516379"><ele>170.6</ele><time>2026-05-02T13:36:25.999Z</time></trkpt><trkpt lat="39.18188839885849" lon="8.552129315641261"><ele>172.4</ele><time>2026-05-02T13:36:27.999Z</time></trkpt><trkpt lat="39.18197545175429" lon="8.552105815499756"><ele>174.20000000000002</ele><time>2026-05-02T13:36:29.999Z</time></trkpt><trkpt lat="39.182071756499276" lon="8.552103305694395"><ele>176.0</ele><time>2026-05-02T13:36:31.999Z</time></trkpt><trkpt lat="39.1821847692618" lon="8.552082451564857"><ele>176.0</ele><time>2026-05-02T13:36:33.999Z</time></trkpt><trkpt lat="39.182278939398856" lon="8.552072868168729"><ele>176.0</ele><time>2026-05-02T13:36:35.999Z</time></trkpt><trkpt lat="39.18236817068964" lon="8.552042192375305"><ele>176.0</ele><time>2026-05-02T13:36:37.999Z</time></trkpt><trkpt lat="39.182471308919794" lon="8.55201977400152"><ele>176.0</ele><time>2026-05-02T13:36:40.999Z</time></trkpt><trkpt lat="39.18256140501867" lon="8.552014398208179"><ele>176.0</ele><time>2026-05-02T13:36:42.999Z</time></trkpt><trkpt lat="39.18265100328602" lon="8.55207701529353"><ele>176.5</ele><time>2026-05-02T13:36:46.998Z</time></trkpt><trkpt lat="39.18271032563478" lon="8.552110718313196"><ele>177.0</ele><time>2026-05-02T13:36:48.998Z</time></trkpt><trkpt lat="39.182801922199175" lon="8.552159989691551"><ele>177.5</ele><time>2026-05-02T13:36:50.998Z</time></trkpt><trkpt lat="39.182874079229954" lon="8.552173086869187"><ele>178.0</ele><time>2026-05-02T13:36:53.998Z</time></trkpt><trkpt lat="39.182962861923855" lon="8.55221543330226"><ele>178.5</ele><time>2026-05-02T13:36:56.998Z</time></trkpt><trkpt lat="39.18305408445624" lon="8.552235034637878"><ele>179.0</ele><time>2026-05-02T13:36:58.998Z</time></trkpt><trkpt lat="39.183135134505804" lon="8.552214160182578"><ele>178.66666666666666</ele><time>2026-05-02T13:37:00.998Z</time></trkpt><trkpt lat="39.18319733199815" lon="8.552201322868386"><ele>178.33333333333331</ele><time>2026-05-02T13:37:02.998Z</time></trkpt><trkpt lat="39.183275138471096" lon="8.552183717426718"><ele>178.0</ele><time>2026-05-02T13:37:04.998Z</time></trkpt><trkpt lat="39.18336297074584" lon="8.55222879548642"><ele>177.66666666666666</ele><time>2026-05-02T13:37:06.998Z</time></trkpt><trkpt lat="39.18345375919645" lon="8.552208439859575"><ele>177.33333333333334</ele><time>2026-05-02T13:37:09.998Z</time></trkpt><trkpt lat="39.18357389020695" lon="8.552193718568292"><ele>177.0</ele><time>2026-05-02T13:37:11.998Z</time></trkpt><trkpt lat="39.18365594790623" lon="8.5521919828265"><ele>177.0</ele><time>2026-05-02T13:37:12.998Z</time></trkpt><trkpt lat="39.183727354873724" lon="8.552159201271257"><ele>177.0</ele><time>2026-05-02T13:37:15.998Z</time></trkpt><trkpt lat="39.18382041698394" lon="8.552131164244813"><ele>177.0</ele><time>2026-05-02T13:37:19Z</time></trkpt><trkpt lat="39.183914269550584" lon="8.55208823789944"><ele>177.0</ele><time>2026-05-02T13:37:21Z</time></trkpt><trkpt lat="39.18397459124364" lon="8.552048708232386"><ele>177.0</ele><time>2026-05-02T13:37:23Z</time></trkpt><trkpt lat="39.184075613974784" lon="8.552008720094818"><ele>177.0</ele><time>2026-05-02T13:37:47.999Z</time></trkpt><trkpt lat="39.18415212448452" lon="8.551985164345426"><ele>183.6</ele><time>2026-05-02T13:37:50.999Z</time></trkpt><trkpt lat="39.18423411590287" lon="8.551958057713955"><ele>190.2</ele><time>2026-05-02T13:37:52.999Z</time></trkpt><trkpt lat="39.18432380095089" lon="8.551949048884607"><ele>196.8</ele><time>2026-05-02T13:37:54.999Z</time></trkpt><trkpt lat="39.184427800883185" lon="8.551960378666369"><ele>203.4</ele><time>2026-05-02T13:37:56.999Z</time></trkpt><trkpt lat="39.184542980076294" lon="8.551934380494782"><ele>210.0</ele><time>2026-05-02T13:37:58.999Z</time></trkpt><trkpt lat="39.1846229430672" lon="8.551923695088124"><ele>210.0</ele><time>2026-05-02T13:37:59.999Z</time></trkpt><trkpt lat="39.18468960901977" lon="8.551916988664313"><ele>210.0</ele><time>2026-05-02T13:38:00.999Z</time></trkpt><trkpt lat="39.184809361725016" lon="8.551903148542792"><ele>210.0</ele><time>2026-05-02T13:38:02.999Z</time></trkpt><trkpt lat="39.18487534184032" lon="8.55189480624101"><ele>210.0</ele><time>2026-05-02T13:38:03.999Z</time></trkpt><trkpt lat="39.18494565743913" lon="8.551893651494579"><ele>210.0</ele><time>2026-05-02T13:38:04.999Z</time></trkpt><trkpt lat="39.18503866164802" lon="8.551873595702382"><ele>210.0</ele><time>2026-05-02T13:38:06.999Z</time></trkpt><trkpt lat="39.18510929820233" lon="8.551847421205983"><ele>213.0</ele><time>2026-05-02T13:38:07.999Z</time></trkpt><trkpt lat="39.185211610653255" lon="8.551871730470648"><ele>216.0</ele><time>2026-05-02T13:38:08.999Z</time></trkpt><trkpt lat="39.185278023573176" lon="8.551884002708618"><ele>219.0</ele><time>2026-05-02T13:38:09.999Z</time></trkpt><trkpt lat="39.185367009554184" lon="8.55188072279243"><ele>222.0</ele><time>2026-05-02T13:38:11.999Z</time></trkpt><trkpt lat="39.185475188748896" lon="8.551828427080025"><ele>225.0</ele><time>2026-05-02T13:38:40.999Z</time></trkpt><trkpt lat="39.18556158433364" lon="8.55181531790343"><ele>225.0</ele><time>2026-05-02T13:38:42.999Z</time></trkpt><trkpt lat="39.18566938334387" lon="8.551798813193468"><ele>225.0</ele><time>2026-05-02T13:38:44.999Z</time></trkpt><trkpt lat="39.18575231108856" lon="8.551819834797168"><ele>225.0</ele><time>2026-05-02T13:38:46.999Z</time></trkpt><trkpt lat="39.18585292961973" lon="8.551875982235732"><ele>225.0</ele><time>2026-05-02T13:38:48.999Z</time></trkpt><trkpt lat="39.18595920094184" lon="8.551895710213936"><ele>225.0</ele><time>2026-05-02T13:38:50.999Z</time></trkpt><trkpt lat="39.186042641489585" lon="8.551921724963863"><ele>227.16666666666666</ele><time>2026-05-02T13:38:52.998Z</time></trkpt><trkpt lat="39.18612540859925" lon="8.551954894563663"><ele>229.33333333333331</ele><time>2026-05-02T13:38:54.998Z</time></trkpt><trkpt lat="39.18621468546975" lon="8.551968141663842"><ele>231.5</ele><time>2026-05-02T13:38:56.998Z</time></trkpt><trkpt lat="39.186297920510185" lon="8.551961361049878"><ele>233.66666666666666</ele><time>2026-05-02T13:38:58.998Z</time></trkpt><trkpt lat="39.18635917406941" lon="8.551999376202037"><ele>235.83333333333331</ele><time>2026-05-02T13:39:02.998Z</time></trkpt><trkpt lat="39.18638155955661" lon="8.552084618347632"><ele>238.0</ele><time>2026-05-02T13:39:04.998Z</time></trkpt><trkpt lat="39.18644958564412" lon="8.552129582367217"><ele>237.83333333333331</ele><time>2026-05-02T13:39:06.998Z</time></trkpt><trkpt lat="39.18651640947523" lon="8.552146573230804"><ele>237.66666666666666</ele><time>2026-05-02T13:39:07.998Z</time></trkpt><trkpt lat="39.18661260967478" lon="8.55218342790594"><ele>237.5</ele><time>2026-05-02T13:39:09.998Z</time></trkpt><trkpt lat="39.18667131306326" lon="8.552152260299412"><ele>237.33333333333331</ele><time>2026-05-02T13:39:12.998Z</time></trkpt><trkpt lat="39.186738069852886" lon="8.552215087137336"><ele>237.16666666666666</ele><time>2026-05-02T13:39:14.998Z</time></trkpt><trkpt lat="39.18679066272826" lon="8.552266880696916"><ele>237.0</ele><time>2026-05-02T13:43:24.999Z</time></trkpt><trkpt lat="39.186883465440296" lon="8.552326623582301"><ele>236.99999999999997</ele><time>2026-05-02T13:43:27.999Z</time></trkpt><trkpt lat="39.18695919180942" lon="8.552347020953253"><ele>237.0</ele><time>2026-05-02T13:43:28.999Z</time></trkpt><trkpt lat="39.18703135046797" lon="8.552370688910548"><ele>236.99999999999997</ele><time>2026-05-02T13:43:29.999Z</time></trkpt><trkpt lat="39.187103437786504" lon="8.552397477252857"><ele>236.99999999999997</ele><time>2026-05-02T13:43:30.999Z</time></trkpt><trkpt lat="39.187176351802535" lon="8.552408678644676"><ele>237.0</ele><time>2026-05-02T13:43:31.999Z</time></trkpt><trkpt lat="39.18724923800007" lon="8.552414995549467"><ele>236.99999999999997</ele><time>2026-05-02T13:43:32.999Z</time></trkpt><trkpt lat="39.18732397782383" lon="8.552411786038356"><ele>236.99999999999997</ele><time>2026-05-02T13:43:33.999Z</time></trkpt><trkpt lat="39.18739426142528" lon="8.552394575693322"><ele>236.39999999999998</ele><time>2026-05-02T13:43:35Z</time></trkpt><trkpt lat="39.18745817466705" lon="8.55237482208115"><ele>235.79999999999998</ele><time>2026-05-02T13:43:36Z</time></trkpt><trkpt lat="39.18753672018041" lon="8.552305373163193"><ele>235.2</ele><time>2026-05-02T13:43:38Z</time></trkpt><trkpt lat="39.18764979325919" lon="8.55221592250195"><ele>234.6</ele><time>2026-05-02T13:43:40Z</time></trkpt><trkpt lat="39.187726229344264" lon="8.552157796399975"><ele>234.0</ele><time>2026-05-02T13:43:41Z</time></trkpt><trkpt lat="39.18779036602102" lon="8.55212598493177"><ele>234.0</ele><time>2026-05-02T13:43:42Z</time></trkpt><trkpt lat="39.18785389046362" lon="8.552112515411597"><ele>234.0</ele><time>2026-05-02T13:43:43Z</time></trkpt><trkpt lat="39.187923792972754" lon="8.552093850564782"><ele>234.0</ele><time>2026-05-02T13:43:44Z</time></trkpt><trkpt lat="39.188000918283336" lon="8.55207252286491"><ele>234.0</ele><time>2026-05-02T13:43:45Z</time></trkpt><trkpt lat="39.18808543723772" lon="8.552022466260778"><ele>234.0</ele><time>2026-05-02T13:43:46Z</time></trkpt><trkpt lat="39.18817907020272" lon="8.551966984542732"><ele>234.0</ele><time>2026-05-02T13:43:47Z</time></trkpt><trkpt lat="39.188259172365605" lon="8.551938309680017"><ele>238.2</ele><time>2026-05-02T13:43:48Z</time></trkpt><trkpt lat="39.1883233666256" lon="8.551907839699547"><ele>242.39999999999998</ele><time>2026-05-02T13:43:49Z</time></trkpt><trkpt lat="39.1884226862197" lon="8.551867806588923"><ele>246.6</ele><time>2026-05-02T13:43:51Z</time></trkpt><trkpt lat="39.188557420990904" lon="8.55183461620901"><ele>250.8</ele><time>2026-05-02T13:43:53Z</time></trkpt><trkpt lat="39.18862275713885" lon="8.551824814302304"><ele>255.0</ele><time>2026-05-02T13:43:54Z</time></trkpt><trkpt lat="39.18872013073604" lon="8.551784808810945"><ele>255.0</ele><time>2026-05-02T13:43:56Z</time></trkpt><trkpt lat="39.188803474009134" lon="8.551735890926151"><ele>255.0</ele><time>2026-05-02T13:43:58Z</time></trkpt><trkpt lat="39.18890910532576" lon="8.551713047583434"><ele>255.0</ele><time>2026-05-02T13:44:00Z</time></trkpt><trkpt lat="39.18901813787318" lon="8.551693306099756"><ele>255.0</ele><time>2026-05-02T13:44:02Z</time></trkpt><trkpt lat="39.189118591037555" lon="8.551669451696315"><ele>255.0</ele><time>2026-05-02T13:44:04Z</time></trkpt><trkpt lat="39.1892370625886" lon="8.551646439015247"><ele>254.83333333333334</ele><time>2026-05-02T13:44:06Z</time></trkpt><trkpt lat="39.18930733475769" lon="8.551638207388503"><ele>254.66666666666669</ele><time>2026-05-02T13:44:07Z</time></trkpt><trkpt lat="39.189372852295925" lon="8.551613718066912"><ele>254.5</ele><time>2026-05-02T13:44:08Z</time></trkpt><trkpt lat="39.18948573972913" lon="8.551596561180993"><ele>254.33333333333334</ele><time>2026-05-02T13:44:10Z</time></trkpt><trkpt lat="39.18955117058858" lon="8.551588153898301"><ele>254.16666666666669</ele><time>2026-05-02T13:44:11Z</time></trkpt><trkpt lat="39.189652838599585" lon="8.55157886387263"><ele>254.0</ele><time>2026-05-02T13:44:13Z</time></trkpt><trkpt lat="39.189764660997476" lon="8.55156262975762"><ele>255.2</ele><time>2026-05-02T13:44:15Z</time></trkpt><trkpt lat="39.18989189662883" lon="8.551575690020538"><ele>256.4</ele><time>2026-05-02T13:44:17Z</time></trkpt><trkpt lat="39.19000725562691" lon="8.551576178824188"><ele>257.6</ele><time>2026-05-02T13:44:19Z</time></trkpt><trkpt lat="39.19009101114849" lon="8.551572903737046"><ele>258.8</ele><time>2026-05-02T13:44:21Z</time></trkpt><trkpt lat="39.1901563580362" lon="8.551586495641429"><ele>260.0</ele><time>2026-05-02T13:44:23Z</time></trkpt><trkpt lat="39.190266462576076" lon="8.551597456468299"><ele>260.0</ele><time>2026-05-02T13:44:25Z</time></trkpt><trkpt lat="39.190360896890645" lon="8.551582898954912"><ele>260.0</ele><time>2026-05-02T13:44:27Z</time></trkpt><trkpt lat="39.190427438785505" lon="8.551574322942983"><ele>260.0</ele><time>2026-05-02T13:44:30Z</time></trkpt><trkpt lat="39.19049943607066" lon="8.551546891515587"><ele>260.0</ele><time>2026-05-02T13:44:35Z</time></trkpt><trkpt lat="39.19057104297776" lon="8.551527069262654"><ele>260.0</ele><time>2026-05-02T13:44:37Z</time></trkpt><trkpt lat="39.19064748522814" lon="8.551524519173563"><ele>260.0</ele><time>2026-05-02T13:44:40Z</time></trkpt><trkpt lat="39.19071300231907" lon="8.55153115188604"><ele>261.0</ele><time>2026-05-02T13:44:42Z</time></trkpt><trkpt lat="39.19080143131448" lon="8.551556295385053"><ele>262.0</ele><time>2026-05-02T13:44:44Z</time></trkpt><trkpt lat="39.190877062792055" lon="8.551620517398918"><ele>263.0</ele><time>2026-05-02T13:44:46Z</time></trkpt><trkpt lat="39.19095977605367" lon="8.551642568963455"><ele>264.0</ele><time>2026-05-02T13:44:48Z</time></trkpt><trkpt lat="39.19102639292432" lon="8.551680205839805"><ele>265.0</ele><time>2026-05-02T13:44:50Z</time></trkpt><trkpt lat="39.19107406877935" lon="8.551749694109079"><ele>266.0</ele><time>2026-05-02T13:44:52Z</time></trkpt><trkpt lat="39.19111164793166" lon="8.551866734688005"><ele>266.0</ele><time>2026-05-02T13:44:54Z</time></trkpt><trkpt lat="39.19118235581847" lon="8.551943447874933"><ele>266.0</ele><time>2026-05-02T13:44:57Z</time></trkpt><trkpt lat="39.19124281322348" lon="8.551972948884186"><ele>266.0</ele><time>2026-05-02T13:44:58Z</time></trkpt><trkpt lat="39.19130185946598" lon="8.552001644988971"><ele>266.0</ele><time>2026-05-02T13:44:59Z</time></trkpt><trkpt lat="39.19139230345784" lon="8.552004383993708"><ele>266.0</ele><time>2026-05-02T13:45:01Z</time></trkpt><trkpt lat="39.19148062182916" lon="8.551982651653727"><ele>266.0</ele><time>2026-05-02T13:45:03Z</time></trkpt><trkpt lat="39.191620676836536" lon="8.551968058283501"><ele>268.0</ele><time>2026-05-02T13:45:04.999Z</time></trkpt><trkpt lat="39.19170666345137" lon="8.551994042648344"><ele>270.0</ele><time>2026-05-02T13:45:06.999Z</time></trkpt><trkpt lat="39.19174246470647" lon="8.552061738120965"><ele>272.0</ele><time>2026-05-02T13:45:07.999Z</time></trkpt><trkpt lat="39.19177803913831" lon="8.55214182363517"><ele>274.0</ele><time>2026-05-02T13:45:08.999Z</time></trkpt><trkpt lat="39.191829187799144" lon="8.552206581442928"><ele>276.0</ele><time>2026-05-02T13:45:09.999Z</time></trkpt><trkpt lat="39.19188839785024" lon="8.55225560310247"><ele>278.0</ele><time>2026-05-02T13:45:11.999Z</time></trkpt><trkpt lat="39.19196887295443" lon="8.552289114812616"><ele>280.0</ele><time>2026-05-02T13:45:13.999Z</time></trkpt><trkpt lat="39.192050076948824" lon="8.552305771715156"><ele>282.0</ele><time>2026-05-02T13:45:15.999Z</time></trkpt><trkpt lat="39.19213277986564" lon="8.55228649435257"><ele>284.0</ele><time>2026-05-02T13:45:49Z</time></trkpt><trkpt lat="39.19219787384411" lon="8.552285318969009"><ele>286.0</ele><time>2026-05-02T13:45:51Z</time></trkpt><trkpt lat="39.1922824706162" lon="8.552310788969328"><ele>288.0</ele><time>2026-05-02T13:45:54Z</time></trkpt><trkpt lat="39.19238364887715" lon="8.552383740578886"><ele>290.0</ele><time>2026-05-02T13:46:11Z</time></trkpt><trkpt lat="39.19248902764216" lon="8.552405871190203"><ele>291.8</ele><time>2026-05-02T13:46:16Z</time></trkpt><trkpt lat="39.192554694215204" lon="8.552417543023246"><ele>293.6</ele><time>2026-05-02T13:46:17Z</time></trkpt><trkpt lat="39.192668321053624" lon="8.552465820489942"><ele>295.4</ele><time>2026-05-02T13:46:19Z</time></trkpt><trkpt lat="39.19277870190508" lon="8.552516476639074"><ele>297.2</ele><time>2026-05-02T13:46:21Z</time></trkpt><trkpt lat="39.19285022112174" lon="8.552538632105385"><ele>299.0</ele><time>2026-05-02T13:46:23Z</time></trkpt><trkpt lat="39.19292662680435" lon="8.552575092317422"><ele>299.0</ele><time>2026-05-02T13:46:25Z</time></trkpt><trkpt lat="39.19302657541285" lon="8.552619623818574"><ele>299.0</ele><time>2026-05-02T13:46:27Z</time></trkpt><trkpt lat="39.19310267583625" lon="8.552621166444922"><ele>299.0</ele><time>2026-05-02T13:46:29Z</time></trkpt><trkpt lat="39.19317495337034" lon="8.552623642684956"><ele>299.0</ele><time>2026-05-02T13:46:31Z</time></trkpt><trkpt lat="39.19327886338607" lon="8.552666580848014"><ele>299.0</ele><time>2026-05-02T13:46:33Z</time></trkpt><trkpt lat="39.19334993765506" lon="8.552703213153295"><ele>299.0</ele><time>2026-05-02T13:46:34Z</time></trkpt><trkpt lat="39.19342443703754" lon="8.552720620172765"><ele>301.83333333333337</ele><time>2026-05-02T13:46:35Z</time></trkpt><trkpt lat="39.193542889113" lon="8.55274596074073"><ele>304.6666666666667</ele><time>2026-05-02T13:46:37Z</time></trkpt><trkpt lat="39.193608862426345" lon="8.552785233945565"><ele>307.5</ele><time>2026-05-02T13:46:38Z</time></trkpt><trkpt lat="39.19367671783173" lon="8.552829316881184"><ele>310.3333333333333</ele><time>2026-05-02T13:46:39Z</time></trkpt><trkpt lat="39.193745518206455" lon="8.552872683297336"><ele>313.16666666666663</ele><time>2026-05-02T13:46:40Z</time></trkpt><trkpt lat="39.19381960540397" lon="8.552909475982258"><ele>316.0</ele><time>2026-05-02T13:46:41Z</time></trkpt><trkpt lat="39.19390528094281" lon="8.552940995384105"><ele>316.8333333333333</ele><time>2026-05-02T13:46:42Z</time></trkpt><trkpt lat="39.19398607917413" lon="8.552956724244641"><ele>317.66666666666663</ele><time>2026-05-02T13:46:43Z</time></trkpt><trkpt lat="39.19405611493897" lon="8.552944884772204"><ele>318.5</ele><time>2026-05-02T13:46:44Z</time></trkpt><trkpt lat="39.19414491512986" lon="8.552922616050905"><ele>319.3333333333333</ele><time>2026-05-02T13:47:15.999Z</time></trkpt><trkpt lat="39.19412277385464" lon="8.553004111914474"><ele>320.1666666666667</ele><time>2026-05-02T13:48:08Z</time></trkpt><trkpt lat="39.1941408112684" lon="8.552922590812644"><ele>321.0</ele><time>2026-05-02T13:49:17.999Z</time></trkpt><trkpt lat="39.194160929871195" lon="8.55281111145867"><ele>323.6666666666667</ele><time>2026-05-02T13:50:27Z</time></trkpt><trkpt lat="39.19420442437059" lon="8.552699411559885"><ele>326.3333333333333</ele><time>2026-05-02T13:50:28Z</time></trkpt><trkpt lat="39.194238277799045" lon="8.552599343813753"><ele>329.0</ele><time>2026-05-02T13:50:29Z</time></trkpt><trkpt lat="39.19427518790843" lon="8.55252724484159"><ele>331.66666666666663</ele><time>2026-05-02T13:50:30Z</time></trkpt><trkpt lat="39.19430910067653" lon="8.552447505063755"><ele>334.3333333333333</ele><time>2026-05-02T13:50:31Z</time></trkpt><trkpt lat="39.19433608148838" lon="8.552371433473894"><ele>337.0</ele><time>2026-05-02T13:50:32Z</time></trkpt><trkpt lat="39.19436154539816" lon="8.552288881582589"><ele>337.0</ele><time>2026-05-02T13:50:33Z</time></trkpt><trkpt lat="39.19439256570853" lon="8.552171372040974"><ele>337.0</ele><time>2026-05-02T13:50:34Z</time></trkpt><trkpt lat="39.194412748889256" lon="8.552068008805525"><ele>337.0</ele><time>2026-05-02T13:50:35Z</time></trkpt><trkpt lat="39.1944428975296" lon="8.55198746810521"><ele>337.0</ele><time>2026-05-02T13:50:36Z</time></trkpt><trkpt lat="39.19447710469098" lon="8.551905480290875"><ele>337.0</ele><time>2026-05-02T13:50:37Z</time></trkpt><trkpt lat="39.194516525862404" lon="8.55183652692255"><ele>337.0</ele><time>2026-05-02T13:50:38Z</time></trkpt><trkpt lat="39.19454384593168" lon="8.551758697842061"><ele>338.0</ele><time>2026-05-02T13:50:39Z</time></trkpt><trkpt lat="39.194567905899575" lon="8.551657367626124"><ele>339.0</ele><time>2026-05-02T13:50:40Z</time></trkpt><trkpt lat="39.19461006738821" lon="8.551550943700414"><ele>340.0</ele><time>2026-05-02T13:50:41Z</time></trkpt><trkpt lat="39.19464437474537" lon="8.55146143815319"><ele>341.0</ele><time>2026-05-02T13:50:42Z</time></trkpt><trkpt lat="39.194662027267846" lon="8.551382199268936"><ele>342.0</ele><time>2026-05-02T13:50:43Z</time></trkpt><trkpt lat="39.194671007472806" lon="8.551288738088756"><ele>343.0</ele><time>2026-05-02T13:50:44Z</time></trkpt><trkpt lat="39.194729679051335" lon="8.551166881403296"><ele>343.8333333333333</ele><time>2026-05-02T13:50:46Z</time></trkpt><trkpt lat="39.194790047526965" lon="8.551114215774009"><ele>344.66666666666663</ele><time>2026-05-02T13:50:47Z</time></trkpt><trkpt lat="39.19486404812282" lon="8.551060377260828"><ele>345.5</ele><time>2026-05-02T13:50:48Z</time></trkpt><trkpt lat="39.194921425850985" lon="8.55100458929351"><ele>346.3333333333333</ele><time>2026-05-02T13:50:49Z</time></trkpt><trkpt lat="39.19496439344342" lon="8.550943291384083"><ele>347.1666666666667</ele><time>2026-05-02T13:50:50Z</time></trkpt><trkpt lat="39.195046729569555" lon="8.55083343207226"><ele>348.0</ele><time>2026-05-02T13:50:52Z</time></trkpt><trkpt lat="39.195096072724084" lon="8.550777807908014"><ele>348.0</ele><time>2026-05-02T13:50:53Z</time></trkpt><trkpt lat="39.19514488834795" lon="8.55071729974501"><ele>348.0</ele><time>2026-05-02T13:50:54Z</time></trkpt><trkpt lat="39.19519625855347" lon="8.550644122550917"><ele>348.0</ele><time>2026-05-02T13:50:55Z</time></trkpt><trkpt lat="39.195240640577396" lon="8.55057506332859"><ele>348.0</ele><time>2026-05-02T13:50:56Z</time></trkpt><trkpt lat="39.19530463028921" lon="8.550439283742051"><ele>348.0</ele><time>2026-05-02T13:50:58Z</time></trkpt><trkpt lat="39.195333352233284" lon="8.550364100184513"><ele>348.0</ele><time>2026-05-02T13:50:59Z</time></trkpt><trkpt lat="39.19535666198757" lon="8.55028290104586"><ele>347.5</ele><time>2026-05-02T13:51:00Z</time></trkpt><trkpt lat="39.195387374109764" lon="8.550198175049276"><ele>347.0</ele><time>2026-05-02T13:51:01Z</time></trkpt><trkpt lat="39.19544433512955" lon="8.55012478599345"><ele>346.5</ele><time>2026-05-02T13:51:02Z</time></trkpt><trkpt lat="39.19549415889076" lon="8.550053295151248"><ele>346.0</ele><time>2026-05-02T13:51:03Z</time></trkpt><trkpt lat="39.19555241656859" lon="8.54992190343607"><ele>345.5</ele><time>2026-05-02T13:51:05Z</time></trkpt><trkpt lat="39.19560459854902" lon="8.549843460686855"><ele>345.0</ele><time>2026-05-02T13:51:07Z</time></trkpt><trkpt lat="39.195625693630625" lon="8.549747540463702"><ele>345.0</ele><time>2026-05-02T13:51:09Z</time></trkpt><trkpt lat="39.195666470246415" lon="8.54968310515656"><ele>345.0</ele><time>2026-05-02T13:51:11Z</time></trkpt><trkpt lat="39.19572362506094" lon="8.549646194877875"><ele>345.0</ele><time>2026-05-02T13:51:13Z</time></trkpt><trkpt lat="39.19579748844569" lon="8.549550316501554"><ele>345.0</ele><time>2026-05-02T13:51:15Z</time></trkpt><trkpt lat="39.19585928338731" lon="8.549511654897708"><ele>345.0</ele><time>2026-05-02T13:51:16Z</time></trkpt><trkpt lat="39.19591876819862" lon="8.549477924913722"><ele>345.0</ele><time>2026-05-02T13:51:17Z</time></trkpt><trkpt lat="39.19598648204079" lon="8.549472114416435"><ele>345.0</ele><time>2026-05-02T13:51:17.999Z</time></trkpt><trkpt lat="39.19607188701364" lon="8.549485880558294"><ele>346.4</ele><time>2026-05-02T13:51:18.999Z</time></trkpt><trkpt lat="39.19617039786919" lon="8.549497243918125"><ele>347.8</ele><time>2026-05-02T13:51:19.999Z</time></trkpt><trkpt lat="39.19625882724479" lon="8.549491142296498"><ele>349.20000000000005</ele><time>2026-05-02T13:51:20.999Z</time></trkpt><trkpt lat="39.19634551739598" lon="8.54946949670329"><ele>350.6</ele><time>2026-05-02T13:51:21.999Z</time></trkpt><trkpt lat="39.19643259377668" lon="8.549454026199832"><ele>352.0</ele><time>2026-05-02T13:51:22.999Z</time></trkpt><trkpt lat="39.1965234342827" lon="8.549442145087097"><ele>352.0</ele><time>2026-05-02T13:51:23.999Z</time></trkpt><trkpt lat="39.1966123400072" lon="8.549449757465343"><ele>352.0</ele><time>2026-05-02T13:51:24.999Z</time></trkpt><trkpt lat="39.19670249872317" lon="8.549462703315262"><ele>352.0</ele><time>2026-05-02T13:51:25.999Z</time></trkpt><trkpt lat="39.196782652382424" lon="8.549489811590009"><ele>352.0</ele><time>2026-05-02T13:51:26.999Z</time></trkpt><trkpt lat="39.19684516610736" lon="8.5495435427677"><ele>352.0</ele><time>2026-05-02T13:51:27.999Z</time></trkpt><trkpt lat="39.196895007217506" lon="8.549617135541325"><ele>352.0</ele><time>2026-05-02T13:51:28.999Z</time></trkpt><trkpt lat="39.19693915066559" lon="8.549702952720894"><ele>351.0</ele><time>2026-05-02T13:51:29.999Z</time></trkpt><trkpt lat="39.196979965272405" lon="8.549788475393004"><ele>350.0</ele><time>2026-05-02T13:51:30.999Z</time></trkpt><trkpt lat="39.19700596691177" lon="8.54986354883055"><ele>349.0</ele><time>2026-05-02T13:51:31.999Z</time></trkpt><trkpt lat="39.19705076568736" lon="8.550000360711143"><ele>348.0</ele><time>2026-05-02T13:51:33.999Z</time></trkpt><trkpt lat="39.19708072193465" lon="8.550083646697082"><ele>347.0</ele><time>2026-05-02T13:51:34.999Z</time></trkpt><trkpt lat="39.197093200268014" lon="8.550187079435904"><ele>346.0</ele><time>2026-05-02T13:51:35.999Z</time></trkpt><trkpt lat="39.19712119235971" lon="8.550284411465626"><ele>345.66666666666663</ele><time>2026-05-02T13:51:36.999Z</time></trkpt><trkpt lat="39.19715041299922" lon="8.550387273561151"><ele>345.3333333333333</ele><time>2026-05-02T13:51:37.999Z</time></trkpt><trkpt lat="39.19715957082738" lon="8.550484161374657"><ele>345.0</ele><time>2026-05-02T13:51:38.999Z</time></trkpt><trkpt lat="39.19716335995997" lon="8.55056968988934"><ele>344.6666666666667</ele><time>2026-05-02T13:51:39.999Z</time></trkpt><trkpt lat="39.19717290166108" lon="8.55065828238784"><ele>344.33333333333337</ele><time>2026-05-02T13:51:40.999Z</time></trkpt><trkpt lat="39.19710919526442" lon="8.550735077175947"><ele>344.0</ele><time>2026-05-02T13:51:41.999Z</time></trkpt><trkpt lat="39.19707056325697" lon="8.55084175151017"><ele>344.00000000000006</ele><time>2026-05-02T13:51:42.999Z</time></trkpt><trkpt lat="39.197038841959966" lon="8.550933154195313"><ele>344.0</ele><time>2026-05-02T13:51:43.999Z</time></trkpt><trkpt lat="39.19701322270792" lon="8.551015378891272"><ele>344.0</ele><time>2026-05-02T13:51:44.999Z</time></trkpt><trkpt lat="39.196989948947945" lon="8.551100737599388"><ele>344.0</ele><time>2026-05-02T13:51:45.999Z</time></trkpt><trkpt lat="39.19691775221111" lon="8.551156098701691"><ele>344.0</ele><time>2026-05-02T13:51:46.999Z</time></trkpt><trkpt lat="39.19687916810771" lon="8.551234686345609"><ele>344.00000000000006</ele><time>2026-05-02T13:51:47.999Z</time></trkpt><trkpt lat="39.19684824221955" lon="8.551325119169826"><ele>344.0</ele><time>2026-05-02T13:51:48.999Z</time></trkpt><trkpt lat="39.19682372544746" lon="8.55141909626437"><ele>343.6</ele><time>2026-05-02T13:51:49.999Z</time></trkpt><trkpt lat="39.19680583770212" lon="8.551502373164581"><ele>343.2</ele><time>2026-05-02T13:51:51.999Z</time></trkpt><trkpt lat="39.196927679305695" lon="8.551611794988899"><ele>342.8</ele><time>2026-05-02T13:51:55.999Z</time></trkpt><trkpt lat="39.197019505533994" lon="8.551687014371517"><ele>342.40000000000003</ele><time>2026-05-02T13:51:57.999Z</time></trkpt><trkpt lat="39.19708222928317" lon="8.551744922809277"><ele>342.0</ele><time>2026-05-02T13:52:00Z</time></trkpt><trkpt lat="39.19717565427098" lon="8.551849984186509"><ele>342.0</ele><time>2026-05-02T13:52:02Z</time></trkpt><trkpt lat="39.197228728107085" lon="8.551916696509089"><ele>342.0</ele><time>2026-05-02T13:52:03Z</time></trkpt><trkpt lat="39.197290779240056" lon="8.551984308870683"><ele>342.0</ele><time>2026-05-02T13:52:04Z</time></trkpt><trkpt lat="39.197350025242066" lon="8.55208009779117"><ele>342.0</ele><time>2026-05-02T13:52:05Z</time></trkpt><trkpt lat="39.19742471604406" lon="8.552109751853244"><ele>342.0</ele><time>2026-05-02T13:52:06Z</time></trkpt><trkpt lat="39.19748841239661" lon="8.552234013628139"><ele>342.0</ele><time>2026-05-02T13:52:08Z</time></trkpt><trkpt lat="39.19753625955909" lon="8.552361884035093"><ele>341.1666666666667</ele><time>2026-05-02T13:52:10Z</time></trkpt><trkpt lat="39.197551480155816" lon="8.552451634970685"><ele>340.3333333333333</ele><time>2026-05-02T13:52:13Z</time></trkpt><trkpt lat="39.19755198202814" lon="8.55256695102567"><ele>339.5</ele><time>2026-05-02T13:52:17Z</time></trkpt><trkpt lat="39.1975400014743" lon="8.552664381410029"><ele>338.66666666666663</ele><time>2026-05-02T13:52:19Z</time></trkpt><trkpt lat="39.19751733523278" lon="8.552768679893925"><ele>337.8333333333333</ele><time>2026-05-02T13:52:21Z</time></trkpt><trkpt lat="39.197495420205854" lon="8.552916149126013"><ele>337.0</ele><time>2026-05-02T13:52:23Z</time></trkpt><trkpt lat="39.19747814497214" lon="8.553071629406258"><ele>335.8</ele><time>2026-05-02T13:52:25Z</time></trkpt><trkpt lat="39.19742429319934" lon="8.553213093792891"><ele>334.6</ele><time>2026-05-02T13:52:27Z</time></trkpt><trkpt lat="39.19737869569638" lon="8.553296268940896"><ele>333.40000000000003</ele><time>2026-05-02T13:52:28Z</time></trkpt><trkpt lat="39.197321228484995" lon="8.553392834629037"><ele>332.20000000000005</ele><time>2026-05-02T13:52:29Z</time></trkpt><trkpt lat="39.197264953089416" lon="8.553488469588606"><ele>331.0</ele><time>2026-05-02T13:52:30Z</time></trkpt><trkpt lat="39.19720957728914" lon="8.553583310748996"><ele>329.6</ele><time>2026-05-02T13:52:31Z</time></trkpt><trkpt lat="39.19713190215549" lon="8.553716343658744"><ele>328.20000000000005</ele><time>2026-05-02T13:52:32Z</time></trkpt><trkpt lat="39.197064551130225" lon="8.553831741434788"><ele>326.79999999999995</ele><time>2026-05-02T13:52:33Z</time></trkpt><trkpt lat="39.19700507353318" lon="8.553935262879785"><ele>325.4</ele><time>2026-05-02T13:52:34Z</time></trkpt><trkpt lat="39.196951262666694" lon="8.554028921330685"><ele>324.0</ele><time>2026-05-02T13:52:35Z</time></trkpt><trkpt lat="39.196902875871864" lon="8.554108590313888"><ele>324.0</ele><time>2026-05-02T13:52:36Z</time></trkpt><trkpt lat="39.196860278062864" lon="8.554177993996053"><ele>324.0</ele><time>2026-05-02T13:52:37Z</time></trkpt><trkpt lat="39.19679589696027" lon="8.554295053093755"><ele>324.0</ele><time>2026-05-02T13:52:39Z</time></trkpt><trkpt lat="39.19675877696835" lon="8.5543669632234"><ele>324.0</ele><time>2026-05-02T13:52:40Z</time></trkpt><trkpt lat="39.196722509509335" lon="8.55445958496149"><ele>324.0</ele><time>2026-05-02T13:52:41Z</time></trkpt><trkpt lat="39.196691930861995" lon="8.554548237760345"><ele>324.0</ele><time>2026-05-02T13:52:42Z</time></trkpt><trkpt lat="39.196662459454004" lon="8.554636695223087"><ele>323.0</ele><time>2026-05-02T13:52:43Z</time></trkpt><trkpt lat="39.196630639618554" lon="8.554735963361276"><ele>322.0</ele><time>2026-05-02T13:52:44Z</time></trkpt><trkpt lat="39.19659270208571" lon="8.554854316783096"><ele>321.0</ele><time>2026-05-02T13:52:45Z</time></trkpt><trkpt lat="39.19655562310947" lon="8.554969991790433"><ele>320.0</ele><time>2026-05-02T13:52:46Z</time></trkpt><trkpt lat="39.19651986795076" lon="8.555081536888576"><ele>319.0</ele><time>2026-05-02T13:52:47Z</time></trkpt><trkpt lat="39.196483725557734" lon="8.55519429004702"><ele>317.8</ele><time>2026-05-02T13:52:48Z</time></trkpt><trkpt lat="39.196446689179794" lon="8.555311153358419"><ele>316.59999999999997</ele><time>2026-05-02T13:52:49Z</time></trkpt><trkpt lat="39.19641458701763" lon="8.555437746548266"><ele>315.4</ele><time>2026-05-02T13:52:50Z</time></trkpt><trkpt lat="39.19639037628748" lon="8.555560301646205"><ele>314.2</ele><time>2026-05-02T13:52:51Z</time></trkpt><trkpt lat="39.196372109842585" lon="8.555685208725043"><ele>313.0</ele><time>2026-05-02T13:52:52Z</time></trkpt><trkpt lat="39.19635696766642" lon="8.555806346133783"><ele>312.5</ele><time>2026-05-02T13:52:53Z</time></trkpt><trkpt lat="39.19633950121271" lon="8.555912936999405"><ele>312.0</ele><time>2026-05-02T13:52:54Z</time></trkpt><trkpt lat="39.19631879991877" lon="8.556024085617226"><ele>311.5</ele><time>2026-05-02T13:52:55Z</time></trkpt><trkpt lat="39.19629305748167" lon="8.556130096933135"><ele>311.0</ele><time>2026-05-02T13:52:56Z</time></trkpt><trkpt lat="39.19626317096038" lon="8.556238502978388"><ele>310.5</ele><time>2026-05-02T13:52:57Z</time></trkpt><trkpt lat="39.196236291526354" lon="8.556347428177798"><ele>310.0</ele><time>2026-05-02T13:52:58Z</time></trkpt><trkpt lat="39.19621270080927" lon="8.556462936125635"><ele>310.0</ele><time>2026-05-02T13:52:59Z</time></trkpt><trkpt lat="39.19619160252762" lon="8.556583721959083"><ele>310.0</ele><time>2026-05-02T13:53:00Z</time></trkpt><trkpt lat="39.19615949612346" lon="8.55668494890207"><ele>310.0</ele><time>2026-05-02T13:53:01Z</time></trkpt><trkpt lat="39.19612030228822" lon="8.556779272498181"><ele>310.0</ele><time>2026-05-02T13:53:02Z</time></trkpt><trkpt lat="39.196071112498146" lon="8.556887971020046"><ele>310.0</ele><time>2026-05-02T13:53:03Z</time></trkpt><trkpt lat="39.1960241346851" lon="8.556991310621052"><ele>309.8</ele><time>2026-05-02T13:53:04Z</time></trkpt><trkpt lat="39.1959751046641" lon="8.557102399864894"><ele>309.6</ele><time>2026-05-02T13:53:05Z</time></trkpt><trkpt lat="39.19592722400656" lon="8.557212122950348"><ele>309.4</ele><time>2026-05-02T13:53:06Z</time></trkpt><trkpt lat="39.19587722901087" lon="8.557327444329319"><ele>309.2</ele><time>2026-05-02T13:53:07Z</time></trkpt><trkpt lat="39.19583045939766" lon="8.557435325857064"><ele>309.0</ele><time>2026-05-02T13:53:08Z</time></trkpt><trkpt lat="39.19578934783919" lon="8.557530156180162"><ele>309.0</ele><time>2026-05-02T13:53:09Z</time></trkpt><trkpt lat="39.19574326594932" lon="8.557636451361569"><ele>309.0</ele><time>2026-05-02T13:53:10Z</time></trkpt><trkpt lat="39.19569598160594" lon="8.557745520225305"><ele>309.0</ele><time>2026-05-02T13:53:11Z</time></trkpt><trkpt lat="39.195649594081495" lon="8.55785252034462"><ele>309.0</ele><time>2026-05-02T13:53:12Z</time></trkpt><trkpt lat="39.19560008799622" lon="8.55796421489269"><ele>309.0</ele><time>2026-05-02T13:53:13Z</time></trkpt><trkpt lat="39.19555333117617" lon="8.558058729718002"><ele>307.8333333333333</ele><time>2026-05-02T13:53:14Z</time></trkpt><trkpt lat="39.19549781577371" lon="8.558147715153597"><ele>306.6666666666667</ele><time>2026-05-02T13:53:15Z</time></trkpt><trkpt lat="39.195442991015256" lon="8.558223214608077"><ele>305.5</ele><time>2026-05-02T13:53:16Z</time></trkpt><trkpt lat="39.19538338562827" lon="8.558296428541583"><ele>304.33333333333337</ele><time>2026-05-02T13:53:17Z</time></trkpt><trkpt lat="39.1953142201854" lon="8.55836315067767"><ele>303.1666666666667</ele><time>2026-05-02T13:53:18Z</time></trkpt><trkpt lat="39.19523322452133" lon="8.558426991583016"><ele>302.0</ele><time>2026-05-02T13:53:18.999Z</time></trkpt><trkpt lat="39.19515046289845" lon="8.558488125699103"><ele>302.0</ele><time>2026-05-02T13:53:19.999Z</time></trkpt><trkpt lat="39.19506408838894" lon="8.558554678351546"><ele>302.0</ele><time>2026-05-02T13:53:20.999Z</time></trkpt><trkpt lat="39.19498356692763" lon="8.558632071431486"><ele>302.0</ele><time>2026-05-02T13:53:21.999Z</time></trkpt><trkpt lat="39.19489990606679" lon="8.558708723567888"><ele>302.0</ele><time>2026-05-02T13:53:22.999Z</time></trkpt><trkpt lat="39.1948122181404" lon="8.558773951499793"><ele>302.0</ele><time>2026-05-02T13:53:23.999Z</time></trkpt><trkpt lat="39.19472140718621" lon="8.558835767886881"><ele>302.8</ele><time>2026-05-02T13:53:24.999Z</time></trkpt><trkpt lat="39.194621643015" lon="8.558896541286064"><ele>303.6</ele><time>2026-05-02T13:53:25.999Z</time></trkpt><trkpt lat="39.194514530079935" lon="8.558958786192958"><ele>304.40000000000003</ele><time>2026-05-02T13:53:26.999Z</time></trkpt><trkpt lat="39.19441071492686" lon="8.559019114702796"><ele>305.2</ele><time>2026-05-02T13:53:27.999Z</time></trkpt><trkpt lat="39.194315051250626" lon="8.559078484992675"><ele>306.0</ele><time>2026-05-02T13:53:28.999Z</time></trkpt><trkpt lat="39.19422440073054" lon="8.559148103431887"><ele>306.0</ele><time>2026-05-02T13:53:29.999Z</time></trkpt><trkpt lat="39.194158590866145" lon="8.55924505728222"><ele>306.0</ele><time>2026-05-02T13:53:30.999Z</time></trkpt><trkpt lat="39.1940868723902" lon="8.55933947549654"><ele>306.0</ele><time>2026-05-02T13:53:31.999Z</time></trkpt><trkpt lat="39.19400793142454" lon="8.559430156989215"><ele>306.0</ele><time>2026-05-02T13:53:32.999Z</time></trkpt><trkpt lat="39.19393667920828" lon="8.559533713399416"><ele>306.0</ele><time>2026-05-02T13:53:33.999Z</time></trkpt><trkpt lat="39.19386917476966" lon="8.559627522112525"><ele>304.8333333333333</ele><time>2026-05-02T13:53:34.999Z</time></trkpt><trkpt lat="39.19380293226914" lon="8.559712907279199"><ele>303.6666666666667</ele><time>2026-05-02T13:53:35.999Z</time></trkpt><trkpt lat="39.19372718993505" lon="8.55979060057206"><ele>302.5</ele><time>2026-05-02T13:53:36.999Z</time></trkpt><trkpt lat="39.1936612264948" lon="8.559852158856238"><ele>301.33333333333337</ele><time>2026-05-02T13:53:37.999Z</time></trkpt><trkpt lat="39.193602850108725" lon="8.559904358033327"><ele>300.1666666666667</ele><time>2026-05-02T13:53:38.999Z</time></trkpt><trkpt lat="39.19354948352159" lon="8.559949239468363"><ele>299.0</ele><time>2026-05-02T13:53:39.999Z</time></trkpt><trkpt lat="39.19351721861996" lon="8.560024863249803"><ele>299.0</ele><time>2026-05-02T13:53:40.999Z</time></trkpt><trkpt lat="39.19346104417951" lon="8.560138626774592"><ele>299.0</ele><time>2026-05-02T13:53:42.999Z</time></trkpt><trkpt lat="39.19346643087894" lon="8.560264628435663"><ele>299.0</ele><time>2026-05-02T13:53:44.999Z</time></trkpt><trkpt lat="39.19348573849744" lon="8.560343451574038"><ele>299.0</ele><time>2026-05-02T13:53:47.999Z</time></trkpt><trkpt lat="39.19356525749913" lon="8.560352181107339"><ele>299.0</ele><time>2026-05-02T13:54:05Z</time></trkpt><trkpt lat="39.19348571544833" lon="8.560304058298158"><ele>299.0</ele><time>2026-05-02T13:54:08Z</time></trkpt><trkpt lat="39.19341157726133" lon="8.560381244827092"><ele>299.0</ele><time>2026-05-02T13:54:10Z</time></trkpt><trkpt lat="39.19337049064026" lon="8.560470081697536"><ele>299.0</ele><time>2026-05-02T13:54:11Z</time></trkpt><trkpt lat="39.193316071691044" lon="8.560559101543612"><ele>299.0</ele><time>2026-05-02T13:54:12Z</time></trkpt><trkpt lat="39.19324472869755" lon="8.560577104893936"><ele>299.0</ele><time>2026-05-02T13:54:13Z</time></trkpt><trkpt lat="39.19315252882976" lon="8.560673328614136"><ele>299.0</ele><time>2026-05-02T13:54:15Z</time></trkpt><trkpt lat="39.19306745423846" lon="8.560762755516341"><ele>297.5</ele><time>2026-05-02T13:54:17Z</time></trkpt><trkpt lat="39.193006197938665" lon="8.560826149466648"><ele>296.0</ele><time>2026-05-02T13:54:20Z</time></trkpt><trkpt lat="39.193064965750494" lon="8.56076539566158"><ele>294.5</ele><time>2026-05-02T13:54:38Z</time></trkpt><trkpt lat="39.19313750542353" lon="8.56091888034137"><ele>293.0</ele><time>2026-05-02T13:54:39Z</time></trkpt><trkpt lat="39.1931554434663" lon="8.560677130977657"><ele>294.5</ele><time>2026-05-02T13:54:40Z</time></trkpt><trkpt lat="39.19331611391801" lon="8.560517461279844"><ele>296.0</ele><time>2026-05-02T13:54:42Z</time></trkpt><trkpt lat="39.19341840823447" lon="8.560399994644369"><ele>297.5</ele><time>2026-05-02T13:54:44Z</time></trkpt><trkpt lat="39.193461385145966" lon="8.56033057028759"><ele>299.0</ele><time>2026-05-02T13:54:45Z</time></trkpt><trkpt lat="39.193502942408436" lon="8.560256298727792"><ele>299.0</ele><time>2026-05-02T13:54:47Z</time></trkpt><trkpt lat="39.193573965868175" lon="8.560374492229428"><ele>299.0</ele><time>2026-05-02T13:54:49Z</time></trkpt><trkpt lat="39.193640111422724" lon="8.560364965773875"><ele>299.0</ele><time>2026-05-02T13:54:50Z</time></trkpt><trkpt lat="39.19371720840606" lon="8.560345593559237"><ele>299.0</ele><time>2026-05-02T13:54:51Z</time></trkpt><trkpt lat="39.193786043488046" lon="8.56034306623803"><ele>299.0</ele><time>2026-05-02T13:54:52Z</time></trkpt><trkpt lat="39.1938945325929" lon="8.560298129550405"><ele>299.0</ele><time>2026-05-02T13:54:54Z</time></trkpt><trkpt lat="39.193954684189976" lon="8.560268955027441"><ele>299.4</ele><time>2026-05-02T13:54:55Z</time></trkpt><trkpt lat="39.19405630683705" lon="8.560189107974887"><ele>299.79999999999995</ele><time>2026-05-02T13:54:56Z</time></trkpt><trkpt lat="39.19416125417035" lon="8.560114532552188"><ele>300.20000000000005</ele><time>2026-05-02T13:54:57Z</time></trkpt><trkpt lat="39.19424483052787" lon="8.560051438599247"><ele>300.6</ele><time>2026-05-02T13:54:58Z</time></trkpt><trkpt lat="39.19432860542077" lon="8.55997415477241"><ele>301.0</ele><time>2026-05-02T13:54:59Z</time></trkpt><trkpt lat="39.194428824623834" lon="8.559884901344384"><ele>301.0</ele><time>2026-05-02T13:55:00Z</time></trkpt><trkpt lat="39.19451280633263" lon="8.559798306971114"><ele>301.0</ele><time>2026-05-02T13:55:01Z</time></trkpt><trkpt lat="39.194612027507915" lon="8.559777363099244"><ele>301.0</ele><time>2026-05-02T13:55:02Z</time></trkpt><trkpt lat="39.194701884682665" lon="8.559729640533792"><ele>301.0</ele><time>2026-05-02T13:55:03Z</time></trkpt><trkpt lat="39.19478157948597" lon="8.559696975869349"><ele>301.0</ele><time>2026-05-02T13:55:04Z</time></trkpt><trkpt lat="39.194862241242966" lon="8.559647306000624"><ele>300.66666666666663</ele><time>2026-05-02T13:55:05Z</time></trkpt><trkpt lat="39.19493953707135" lon="8.559591901166305"><ele>300.3333333333333</ele><time>2026-05-02T13:55:06Z</time></trkpt><trkpt lat="39.195013614616826" lon="8.559543267444269"><ele>300.0</ele><time>2026-05-02T13:55:07Z</time></trkpt><trkpt lat="39.195099525845485" lon="8.559501584985826"><ele>299.6666666666667</ele><time>2026-05-02T13:55:08Z</time></trkpt><trkpt lat="39.19519681112668" lon="8.559510421002177"><ele>299.33333333333337</ele><time>2026-05-02T13:55:09Z</time></trkpt><trkpt lat="39.195275002006156" lon="8.559491754935555"><ele>299.0</ele><time>2026-05-02T13:55:10Z</time></trkpt><trkpt lat="39.19532301186788" lon="8.559556081891975"><ele>296.2</ele><time>2026-05-02T13:55:15Z</time></trkpt><trkpt lat="39.19528348990255" lon="8.559640919311724"><ele>293.4</ele><time>2026-05-02T13:55:19Z</time></trkpt><trkpt lat="39.19522600765111" lon="8.55978364340666"><ele>290.6</ele><time>2026-05-02T13:55:21Z</time></trkpt><trkpt lat="39.19513773748902" lon="8.559916240372727"><ele>287.8</ele><time>2026-05-02T13:55:23Z</time></trkpt><trkpt lat="39.19509792511469" lon="8.560006429261527"><ele>285.0</ele><time>2026-05-02T13:55:24Z</time></trkpt><trkpt lat="39.19506243624755" lon="8.560085761968853"><ele>285.0</ele><time>2026-05-02T13:55:24.999Z</time></trkpt><trkpt lat="39.195023352237556" lon="8.560159481949364"><ele>285.0</ele><time>2026-05-02T13:55:25.999Z</time></trkpt><trkpt lat="39.1949730113095" lon="8.560256105194975"><ele>285.0</ele><time>2026-05-02T13:55:26.999Z</time></trkpt><trkpt lat="39.19491470454381" lon="8.560368017730376"><ele>285.0</ele><time>2026-05-02T13:55:27.999Z</time></trkpt><trkpt lat="39.194850401940954" lon="8.560484937358757"><ele>285.0</ele><time>2026-05-02T13:55:28.999Z</time></trkpt><trkpt lat="39.19479323670138" lon="8.56057903274381"><ele>285.8</ele><time>2026-05-02T13:55:29.999Z</time></trkpt><trkpt lat="39.19473575807538" lon="8.560663733670001"><ele>286.6</ele><time>2026-05-02T13:55:30.999Z</time></trkpt><trkpt lat="39.19466610844144" lon="8.560754730616617"><ele>287.4</ele><time>2026-05-02T13:55:31.999Z</time></trkpt><trkpt lat="39.19457816725683" lon="8.56086404000153"><ele>288.2</ele><time>2026-05-02T13:55:32.999Z</time></trkpt><trkpt lat="39.19451049031206" lon="8.560969342758359"><ele>289.0</ele><time>2026-05-02T13:55:33.999Z</time></trkpt><trkpt lat="39.194439810289936" lon="8.561027268455605"><ele>289.0</ele><time>2026-05-02T13:55:34.999Z</time></trkpt><trkpt lat="39.1943847964233" lon="8.56111826565811"><ele>289.0</ele><time>2026-05-02T13:55:35.999Z</time></trkpt><trkpt lat="39.19431191197723" lon="8.561176362773207"><ele>289.0</ele><time>2026-05-02T13:55:36.999Z</time></trkpt><trkpt lat="39.19427150032458" lon="8.561249982644535"><ele>289.0</ele><time>2026-05-02T13:55:37.999Z</time></trkpt><trkpt lat="39.194218658737526" lon="8.561310521343705"><ele>289.0</ele><time>2026-05-02T13:55:38.999Z</time></trkpt><trkpt lat="39.19414514461523" lon="8.561364639313167"><ele>289.0</ele><time>2026-05-02T13:55:39.999Z</time></trkpt><trkpt lat="39.19409027785431" lon="8.561450818348264"><ele>288.16666666666663</ele><time>2026-05-02T13:55:40.999Z</time></trkpt><trkpt lat="39.19401085807938" lon="8.561512063036178"><ele>287.3333333333333</ele><time>2026-05-02T13:55:41.999Z</time></trkpt><trkpt lat="39.1939417604758" lon="8.561580371720998"><ele>286.5</ele><time>2026-05-02T13:55:42.999Z</time></trkpt><trkpt lat="39.193892457358" lon="8.561683106619382"><ele>285.6666666666667</ele><time>2026-05-02T13:55:44.999Z</time></trkpt><trkpt lat="39.193896466778014" lon="8.561797084778703"><ele>284.83333333333337</ele><time>2026-05-02T13:55:48.999Z</time></trkpt><trkpt lat="39.19389910504719" lon="8.561883192690741"><ele>284.0</ele><time>2026-05-02T13:55:52.999Z</time></trkpt><trkpt lat="39.19390796537162" lon="8.562073130232953"><ele>282.8</ele><time>2026-05-02T13:55:53.999Z</time></trkpt><trkpt lat="39.19393144579579" lon="8.562214876520457"><ele>281.59999999999997</ele><time>2026-05-02T13:55:54.999Z</time></trkpt><trkpt lat="39.193948451058795" lon="8.562344457574499"><ele>280.4</ele><time>2026-05-02T13:55:55.999Z</time></trkpt><trkpt lat="39.193947000008954" lon="8.562458499788077"><ele>279.2</ele><time>2026-05-02T13:55:56.999Z</time></trkpt><trkpt lat="39.19396442681134" lon="8.562567030187267"><ele>278.0</ele><time>2026-05-02T13:55:57.999Z</time></trkpt><trkpt lat="39.19394391914184" lon="8.562675782381959"><ele>278.0</ele><time>2026-05-02T13:55:58.999Z</time></trkpt><trkpt lat="39.193934510667916" lon="8.562769981023049"><ele>278.0</ele><time>2026-05-02T13:55:59.999Z</time></trkpt><trkpt lat="39.19396354533672" lon="8.562907021561013"><ele>278.0</ele><time>2026-05-02T13:56:01.999Z</time></trkpt><trkpt lat="39.1940024475402" lon="8.563017444240256"><ele>278.0</ele><time>2026-05-02T13:56:02.999Z</time></trkpt><trkpt lat="39.19408686928235" lon="8.563145897737561"><ele>278.0</ele><time>2026-05-02T13:56:03.999Z</time></trkpt><trkpt lat="39.19415587914419" lon="8.563250806334429"><ele>278.6</ele><time>2026-05-02T13:56:04.999Z</time></trkpt><trkpt lat="39.19422631968552" lon="8.563356565092118"><ele>279.20000000000005</ele><time>2026-05-02T13:56:05.999Z</time></trkpt><trkpt lat="39.19429077691545" lon="8.563463514709802"><ele>279.8</ele><time>2026-05-02T13:56:06.999Z</time></trkpt><trkpt lat="39.19435010167492" lon="8.563571213454829"><ele>280.40000000000003</ele><time>2026-05-02T13:56:07.999Z</time></trkpt><trkpt lat="39.1944154459657" lon="8.563659693723714"><ele>281.0</ele><time>2026-05-02T13:56:08.999Z</time></trkpt><trkpt lat="39.19447091160548" lon="8.563735004771209"><ele>282.8</ele><time>2026-05-02T13:56:10Z</time></trkpt><trkpt lat="39.19452819103498" lon="8.563810031900713"><ele>284.6</ele><time>2026-05-02T13:56:11Z</time></trkpt><trkpt lat="39.194576983849686" lon="8.56389570559682"><ele>286.4</ele><time>2026-05-02T13:56:12Z</time></trkpt><trkpt lat="39.19463790824263" lon="8.564003028853502"><ele>288.2</ele><time>2026-05-02T13:56:13Z</time></trkpt><trkpt lat="39.194738942520914" lon="8.564077146567081"><ele>290.0</ele><time>2026-05-02T13:56:14Z</time></trkpt><trkpt lat="39.19480603999676" lon="8.564141758696989"><ele>288.1666666666667</ele><time>2026-05-02T13:56:15Z</time></trkpt><trkpt lat="39.19486849831621" lon="8.564207661407309"><ele>286.33333333333337</ele><time>2026-05-02T13:56:16Z</time></trkpt><trkpt lat="39.19493490450662" lon="8.56427567670555"><ele>284.5</ele><time>2026-05-02T13:56:17Z</time></trkpt><trkpt lat="39.195005825426556" lon="8.564345132991306"><ele>282.6666666666667</ele><time>2026-05-02T13:56:18Z</time></trkpt><trkpt lat="39.19508028612684" lon="8.564413708064137"><ele>280.8333333333333</ele><time>2026-05-02T13:56:19Z</time></trkpt><trkpt lat="39.19515809141262" lon="8.564470712179787"><ele>279.0</ele><time>2026-05-02T13:56:20Z</time></trkpt><trkpt lat="39.195245968482226" lon="8.56450358240706"><ele>279.0</ele><time>2026-05-02T13:56:21Z</time></trkpt><trkpt lat="39.19533405224026" lon="8.56452544346608"><ele>279.0</ele><time>2026-05-02T13:56:22Z</time></trkpt><trkpt lat="39.19543424327373" lon="8.56454766698686"><ele>279.0</ele><time>2026-05-02T13:56:23Z</time></trkpt><trkpt lat="39.19553469596446" lon="8.564578733913356"><ele>279.0</ele><time>2026-05-02T13:56:24Z</time></trkpt><trkpt lat="39.19563470212699" lon="8.56466364612189"><ele>279.0</ele><time>2026-05-02T13:56:26Z</time></trkpt><trkpt lat="39.19568261602625" lon="8.564798410943169"><ele>280.1666666666667</ele><time>2026-05-02T13:56:28Z</time></trkpt><trkpt lat="39.195709750105344" lon="8.564904236778528"><ele>281.3333333333333</ele><time>2026-05-02T13:56:29Z</time></trkpt><trkpt lat="39.19570747724412" lon="8.565027869839627"><ele>282.5</ele><time>2026-05-02T13:56:30Z</time></trkpt><trkpt lat="39.19572530549205" lon="8.565136659379542"><ele>283.66666666666663</ele><time>2026-05-02T13:56:31Z</time></trkpt><trkpt lat="39.195752659340904" lon="8.565218591012309"><ele>284.8333333333333</ele><time>2026-05-02T13:56:32Z</time></trkpt><trkpt lat="39.19574808368276" lon="8.565311176137127"><ele>286.0</ele><time>2026-05-02T13:56:33Z</time></trkpt><trkpt lat="39.19572936904944" lon="8.565390303142662"><ele>286.0</ele><time>2026-05-02T13:56:34Z</time></trkpt><trkpt lat="39.19570399884362" lon="8.565565818446903"><ele>286.0</ele><time>2026-05-02T13:56:37Z</time></trkpt><trkpt lat="39.195677718528216" lon="8.565696826197394"><ele>286.0</ele><time>2026-05-02T13:56:38Z</time></trkpt><trkpt lat="39.19565252540085" lon="8.56582516344506"><ele>286.0</ele><time>2026-05-02T13:56:39Z</time></trkpt><trkpt lat="39.19562661859513" lon="8.565933766131709"><ele>286.0</ele><time>2026-05-02T13:56:40Z</time></trkpt><trkpt lat="39.19557075585251" lon="8.566004543949084"><ele>286.0</ele><time>2026-05-02T13:56:41Z</time></trkpt><trkpt lat="39.19550028166058" lon="8.56609339653671"><ele>286.0</ele><time>2026-05-02T13:56:42Z</time></trkpt><trkpt lat="39.195433516413466" lon="8.566214922622958"><ele>286.0</ele><time>2026-05-02T13:56:43Z</time></trkpt><trkpt lat="39.19540882214551" lon="8.566360288414904"><ele>286.0</ele><time>2026-05-02T13:56:44Z</time></trkpt><trkpt lat="39.195370868203774" lon="8.566485683986391"><ele>286.0</ele><time>2026-05-02T13:56:45Z</time></trkpt><trkpt lat="39.1953252116996" lon="8.56658471795852"><ele>286.40000000000003</ele><time>2026-05-02T13:56:46Z</time></trkpt><trkpt lat="39.19525488329218" lon="8.566704875060527"><ele>286.8</ele><time>2026-05-02T13:56:47Z</time></trkpt><trkpt lat="39.195208792902704" lon="8.566824120524124"><ele>287.20000000000005</ele><time>2026-05-02T13:56:48Z</time></trkpt><trkpt lat="39.195179693826745" lon="8.566929330751957"><ele>287.6</ele><time>2026-05-02T13:56:49Z</time></trkpt><trkpt lat="39.19517563026046" lon="8.56705676626598"><ele>288.0</ele><time>2026-05-02T13:56:50Z</time></trkpt><trkpt lat="39.19516152485893" lon="8.567180125918622"><ele>288.8</ele><time>2026-05-02T13:56:51Z</time></trkpt><trkpt lat="39.19515131637846" lon="8.567318713195965"><ele>289.6</ele><time>2026-05-02T13:56:52Z</time></trkpt><trkpt lat="39.1951529295891" lon="8.567459306614214"><ele>290.4</ele><time>2026-05-02T13:56:53Z</time></trkpt><trkpt lat="39.195116249912154" lon="8.567580989502796"><ele>291.2</ele><time>2026-05-02T13:56:54Z</time></trkpt><trkpt lat="39.195093060845174" lon="8.56773066953906"><ele>292.0</ele><time>2026-05-02T13:56:55Z</time></trkpt><trkpt lat="39.195051250363704" lon="8.567871358694884"><ele>293.25</ele><time>2026-05-02T13:56:56Z</time></trkpt><trkpt lat="39.19500416880192" lon="8.56802438900007"><ele>294.5</ele><time>2026-05-02T13:56:57Z</time></trkpt><trkpt lat="39.194954106253675" lon="8.568137725135076"><ele>295.75</ele><time>2026-05-02T13:56:58Z</time></trkpt><trkpt lat="39.19490883370821" lon="8.568272127355373"><ele>297.0</ele><time>2026-05-02T13:56:59Z</time></trkpt><trkpt lat="39.19487317637066" lon="8.56841042512969"><ele>296.25</ele><time>2026-05-02T13:57:00Z</time></trkpt><trkpt lat="39.194834816751765" lon="8.568548469838584"><ele>295.5</ele><time>2026-05-02T13:57:01Z</time></trkpt><trkpt lat="39.194798206261545" lon="8.568693812735756"><ele>294.75</ele><time>2026-05-02T13:57:02Z</time></trkpt><trkpt lat="39.194760597495375" lon="8.568835654107758"><ele>294.0</ele><time>2026-05-02T13:57:03Z</time></trkpt><trkpt lat="39.19472337923959" lon="8.568977707549191"><ele>294.0</ele><time>2026-05-02T13:57:04Z</time></trkpt><trkpt lat="39.19468725634998" lon="8.569110774508928"><ele>294.0</ele><time>2026-05-02T13:57:05Z</time></trkpt><trkpt lat="39.19464687081546" lon="8.569222948469319"><ele>294.0</ele><time>2026-05-02T13:57:06Z</time></trkpt><trkpt lat="39.194612133645585" lon="8.569341260062641"><ele>294.0</ele><time>2026-05-02T13:57:07Z</time></trkpt><trkpt lat="39.19459658198917" lon="8.569496678480284"><ele>294.0</ele><time>2026-05-02T13:57:08Z</time></trkpt><trkpt lat="39.19454865248984" lon="8.56967305427351"><ele>294.75</ele><time>2026-05-02T13:57:09Z</time></trkpt><trkpt lat="39.194525251077884" lon="8.569835576021523"><ele>295.5</ele><time>2026-05-02T13:57:10Z</time></trkpt><trkpt lat="39.194483819670886" lon="8.569972658059362"><ele>296.25</ele><time>2026-05-02T13:57:11Z</time></trkpt><trkpt lat="39.19445492000078" lon="8.570103720338718"><ele>297.0</ele><time>2026-05-02T13:57:12Z</time></trkpt><trkpt lat="39.194442201040005" lon="8.570241220456953"><ele>297.25</ele><time>2026-05-02T13:57:13Z</time></trkpt><trkpt lat="39.194444509714245" lon="8.570387304580782"><ele>297.5</ele><time>2026-05-02T13:57:14Z</time></trkpt><trkpt lat="39.194454215345154" lon="8.570540445949621"><ele>297.75</ele><time>2026-05-02T13:57:15Z</time></trkpt><trkpt lat="39.19445289242177" lon="8.57069912081999"><ele>298.0</ele><time>2026-05-02T13:57:16Z</time></trkpt><trkpt lat="39.194429577903016" lon="8.570862681078145"><ele>298.0</ele><time>2026-05-02T13:57:17Z</time></trkpt><trkpt lat="39.1944018659586" lon="8.571013284519074"><ele>298.0</ele><time>2026-05-02T13:57:18Z</time></trkpt><trkpt lat="39.19437593572807" lon="8.571148705773087"><ele>298.0</ele><time>2026-05-02T13:57:19Z</time></trkpt><trkpt lat="39.194356067944724" lon="8.571278783329804"><ele>298.0</ele><time>2026-05-02T13:57:20Z</time></trkpt><trkpt lat="39.19433414766807" lon="8.571410201435262"><ele>298.0</ele><time>2026-05-02T13:57:21Z</time></trkpt><trkpt lat="39.19430290900003" lon="8.571534899027839"><ele>298.6</ele><time>2026-05-02T13:57:22Z</time></trkpt><trkpt lat="39.1942517462471" lon="8.571660134520426"><ele>299.20000000000005</ele><time>2026-05-02T13:57:23Z</time></trkpt><trkpt lat="39.19419463432216" lon="8.571779520935246"><ele>299.8</ele><time>2026-05-02T13:57:24Z</time></trkpt><trkpt lat="39.194134774385695" lon="8.571893843549608"><ele>300.40000000000003</ele><time>2026-05-02T13:57:25Z</time></trkpt><trkpt lat="39.19408249422848" lon="8.572003564197527"><ele>301.0</ele><time>2026-05-02T13:57:26Z</time></trkpt><trkpt lat="39.194050559054524" lon="8.572116395811312"><ele>301.7142857142857</ele><time>2026-05-02T13:57:27Z</time></trkpt><trkpt lat="39.19403399373266" lon="8.572215955391373"><ele>302.42857142857144</ele><time>2026-05-02T13:57:28Z</time></trkpt><trkpt lat="39.19401692818879" lon="8.572309139105046"><ele>303.1428571428571</ele><time>2026-05-02T13:57:29Z</time></trkpt><trkpt lat="39.19397507079407" lon="8.57239036787994"><ele>303.8571428571429</ele><time>2026-05-02T13:57:30Z</time></trkpt><trkpt lat="39.193920162601195" lon="8.572461985846484"><ele>304.57142857142856</ele><time>2026-05-02T13:57:31Z</time></trkpt><trkpt lat="39.19386874302481" lon="8.572519236418104"><ele>305.2857142857143</ele><time>2026-05-02T13:57:32Z</time></trkpt><trkpt lat="39.193851717224504" lon="8.57260722947774"><ele>306.0</ele><time>2026-05-02T13:57:33.999Z</time></trkpt><trkpt lat="39.193917379051896" lon="8.572753758773354"><ele>306.3333333333333</ele><time>2026-05-02T13:57:35.999Z</time></trkpt><trkpt lat="39.193947016111125" lon="8.572844284865953"><ele>306.6666666666667</ele><time>2026-05-02T13:57:36.999Z</time></trkpt><trkpt lat="39.193968970625605" lon="8.572923273605577"><ele>307.0</ele><time>2026-05-02T13:57:37.999Z</time></trkpt><trkpt lat="39.19406924069629" lon="8.573003864236817"><ele>307.33333333333337</ele><time>2026-05-02T13:57:39.999Z</time></trkpt><trkpt lat="39.1940921312814" lon="8.573115359921559"><ele>307.6666666666667</ele><time>2026-05-02T13:57:41.999Z</time></trkpt><trkpt lat="39.194086159021126" lon="8.573235779458578"><ele>308.0</ele><time>2026-05-02T13:57:42.999Z</time></trkpt><trkpt lat="39.19407996489492" lon="8.573369539252196"><ele>308.0</ele><time>2026-05-02T13:57:43.999Z</time></trkpt><trkpt lat="39.19407615059187" lon="8.573484876003212"><ele>308.0</ele><time>2026-05-02T13:57:44.999Z</time></trkpt><trkpt lat="39.19407865501161" lon="8.573575336168808"><ele>308.0</ele><time>2026-05-02T13:57:45.999Z</time></trkpt><trkpt lat="39.194068766719084" lon="8.573665466254575"><ele>308.0</ele><time>2026-05-02T13:57:46.999Z</time></trkpt><trkpt lat="39.19406721576115" lon="8.573771879894823"><ele>308.0</ele><time>2026-05-02T13:57:47.999Z</time></trkpt><trkpt lat="39.194076351846164" lon="8.573881357698072"><ele>308.0</ele><time>2026-05-02T13:57:48.999Z</time></trkpt><trkpt lat="39.194097930472175" lon="8.57398878835048"><ele>308.5</ele><time>2026-05-02T13:57:49.999Z</time></trkpt><trkpt lat="39.194091877091445" lon="8.574083716620851"><ele>309.0</ele><time>2026-05-02T13:57:50.999Z</time></trkpt><trkpt lat="39.19405616657" lon="8.574179244282808"><ele>309.5</ele><time>2026-05-02T13:57:52.999Z</time></trkpt><trkpt lat="39.193989419209636" lon="8.574152636867957"><ele>310.0</ele><time>2026-05-02T13:57:54.999Z</time></trkpt><trkpt lat="39.19389914163956" lon="8.574138258116722"><ele>310.5</ele><time>2026-05-02T13:57:57.999Z</time></trkpt><trkpt lat="39.19383973393407" lon="8.574097424261941"><ele>311.0</ele><time>2026-05-02T13:57:59.999Z</time></trkpt><trkpt lat="39.19377322605288" lon="8.574072166430371"><ele>311.8</ele><time>2026-05-02T13:58:01.999Z</time></trkpt><trkpt lat="39.19370648076173" lon="8.57403383249063"><ele>312.6</ele><time>2026-05-02T13:58:04.999Z</time></trkpt><trkpt lat="39.19354904189489" lon="8.573937978455103"><ele>313.4</ele><time>2026-05-02T13:58:06.999Z</time></trkpt><trkpt lat="39.19348354469429" lon="8.573907341812282"><ele>314.2</ele><time>2026-05-02T13:58:07.999Z</time></trkpt><trkpt lat="39.193399648676404" lon="8.573872704580008"><ele>315.0</ele><time>2026-05-02T13:58:08.999Z</time></trkpt><trkpt lat="39.193323659374244" lon="8.573856799891907"><ele>315.0</ele><time>2026-05-02T13:58:09.999Z</time></trkpt><trkpt lat="39.193225291323344" lon="8.573984639180978"><ele>315.0</ele><time>2026-05-02T13:58:11.999Z</time></trkpt><trkpt lat="39.19316628365696" lon="8.57406513126607"><ele>315.0</ele><time>2026-05-02T13:58:12.999Z</time></trkpt><trkpt lat="39.19305863181481" lon="8.574225519613131"><ele>315.0</ele><time>2026-05-02T13:58:13.999Z</time></trkpt><trkpt lat="39.1929903963788" lon="8.574315526357864"><ele>319.2</ele><time>2026-05-02T13:58:15Z</time></trkpt><trkpt lat="39.19292663908827" lon="8.574356392674918"><ele>323.4</ele><time>2026-05-02T13:58:16Z</time></trkpt><trkpt lat="39.192823469079286" lon="8.574441848477788"><ele>327.6</ele><time>2026-05-02T13:58:17Z</time></trkpt><trkpt lat="39.192734813381755" lon="8.574523909009757"><ele>331.8</ele><time>2026-05-02T13:58:18Z</time></trkpt><trkpt lat="39.192627384608066" lon="8.574589665292992"><ele>336.0</ele><time>2026-05-02T13:58:19Z</time></trkpt><trkpt lat="39.192561558388626" lon="8.574641276141785"><ele>337.0</ele><time>2026-05-02T13:58:20Z</time></trkpt><trkpt lat="39.192472715947616" lon="8.574697350122204"><ele>338.0</ele><time>2026-05-02T13:58:21Z</time></trkpt><trkpt lat="39.19236826830722" lon="8.574708816965549"><ele>339.0</ele><time>2026-05-02T13:58:22Z</time></trkpt><trkpt lat="39.19227348748481" lon="8.57471487308221"><ele>340.0</ele><time>2026-05-02T13:58:23Z</time></trkpt><trkpt lat="39.19220324384081" lon="8.57474164306943"><ele>341.0</ele><time>2026-05-02T13:58:24Z</time></trkpt><trkpt lat="39.19213067879756" lon="8.57479792654451"><ele>343.20000000000005</ele><time>2026-05-02T13:58:25Z</time></trkpt><trkpt lat="39.19206562364129" lon="8.574838119413398"><ele>345.40000000000003</ele><time>2026-05-02T13:58:26Z</time></trkpt><trkpt lat="39.19196314247942" lon="8.574874142595181"><ele>347.6</ele><time>2026-05-02T13:58:27Z</time></trkpt><trkpt lat="39.191850307378836" lon="8.574905624311416"><ele>349.8</ele><time>2026-05-02T13:58:28Z</time></trkpt><trkpt lat="39.19173868013093" lon="8.574933930199991"><ele>352.0</ele><time>2026-05-02T13:58:29Z</time></trkpt><trkpt lat="39.19163005963318" lon="8.574990032979057"><ele>352.0</ele><time>2026-05-02T13:58:30Z</time></trkpt><trkpt lat="39.191535378661584" lon="8.575044457964266"><ele>352.0</ele><time>2026-05-02T13:58:31Z</time></trkpt><trkpt lat="39.191443786477734" lon="8.575088360947722"><ele>352.0</ele><time>2026-05-02T13:58:32Z</time></trkpt><trkpt lat="39.19136100805334" lon="8.575145085558086"><ele>352.0</ele><time>2026-05-02T13:58:34Z</time></trkpt><trkpt lat="39.19133989847181" lon="8.575238467927923"><ele>352.0</ele><time>2026-05-02T13:58:36Z</time></trkpt><trkpt lat="39.191375340879844" lon="8.57532200424953"><ele>352.0</ele><time>2026-05-02T13:59:11Z</time></trkpt><trkpt lat="39.19144714666538" lon="8.575298368143553"><ele>352.0</ele><time>2026-05-02T13:59:13Z</time></trkpt><trkpt lat="39.19150682265119" lon="8.575220573260918"><ele>352.0</ele><time>2026-05-02T13:59:14Z</time></trkpt><trkpt lat="39.19157925186439" lon="8.5751739323683"><ele>352.0</ele><time>2026-05-02T13:59:15Z</time></trkpt><trkpt lat="39.19168573159744" lon="8.575157684468543"><ele>352.0</ele><time>2026-05-02T13:59:16Z</time></trkpt><trkpt lat="39.19181251949312" lon="8.575164569132287"><ele>352.0</ele><time>2026-05-02T13:59:17Z</time></trkpt><trkpt lat="39.19193858540209" lon="8.575181057595449"><ele>352.0</ele><time>2026-05-02T13:59:18Z</time></trkpt><trkpt lat="39.19206604720906" lon="8.575207201114884"><ele>352.0</ele><time>2026-05-02T13:59:19Z</time></trkpt><trkpt lat="39.19219575115563" lon="8.575212921607294"><ele>352.0</ele><time>2026-05-02T13:59:20Z</time></trkpt><trkpt lat="39.19229734851271" lon="8.57524070180306"><ele>352.0</ele><time>2026-05-02T13:59:21Z</time></trkpt><trkpt lat="39.192398514484275" lon="8.5752526234553"><ele>350.8</ele><time>2026-05-02T13:59:22Z</time></trkpt><trkpt lat="39.19249346035239" lon="8.575270821161267"><ele>349.6</ele><time>2026-05-02T13:59:23Z</time></trkpt><trkpt lat="39.19258304353872" lon="8.575298326787623"><ele>348.40000000000003</ele><time>2026-05-02T13:59:24Z</time></trkpt><trkpt lat="39.19265988000526" lon="8.575339028198236"><ele>347.20000000000005</ele><time>2026-05-02T13:59:25Z</time></trkpt><trkpt lat="39.192735716051054" lon="8.5754146106762"><ele>346.0</ele><time>2026-05-02T13:59:26Z</time></trkpt><trkpt lat="39.19280601008662" lon="8.575508668958024"><ele>346.0</ele><time>2026-05-02T13:59:27Z</time></trkpt><trkpt lat="39.19286989695496" lon="8.575603182141384"><ele>346.0</ele><time>2026-05-02T13:59:28Z</time></trkpt><trkpt lat="39.19292594995553" lon="8.575721524208635"><ele>346.0</ele><time>2026-05-02T13:59:29Z</time></trkpt><trkpt lat="39.192957148957724" lon="8.57585778246193"><ele>346.0</ele><time>2026-05-02T13:59:30Z</time></trkpt><trkpt lat="39.19300791360319" lon="8.575975351046134"><ele>346.0</ele><time>2026-05-02T13:59:31Z</time></trkpt><trkpt lat="39.19304908265132" lon="8.576066575892606"><ele>346.0</ele><time>2026-05-02T13:59:32Z</time></trkpt><trkpt lat="39.19309021836717" lon="8.576148519073058"><ele>346.0</ele><time>2026-05-02T13:59:33Z</time></trkpt><trkpt lat="39.193143039317" lon="8.576220020893203"><ele>346.0</ele><time>2026-05-02T13:59:34Z</time></trkpt><trkpt lat="39.193188859978264" lon="8.576291409656113"><ele>346.0</ele><time>2026-05-02T13:59:35Z</time></trkpt><trkpt lat="39.19329620786931" lon="8.576371237372728"><ele>346.0</ele><time>2026-05-02T13:59:37Z</time></trkpt><trkpt lat="39.19336751530851" lon="8.576359760625968"><ele>346.0</ele><time>2026-05-02T13:59:38Z</time></trkpt><trkpt lat="39.19343196902986" lon="8.576391728324499"><ele>342.20000000000005</ele><time>2026-05-02T13:59:39Z</time></trkpt><trkpt lat="39.19352336902253" lon="8.576408681890243"><ele>338.40000000000003</ele><time>2026-05-02T13:59:40Z</time></trkpt><trkpt lat="39.19362178437834" lon="8.576408019411248"><ele>334.6</ele><time>2026-05-02T13:59:40.999Z</time></trkpt><trkpt lat="39.193701469946554" lon="8.576350859819497"><ele>330.8</ele><time>2026-05-02T13:59:41.999Z</time></trkpt><trkpt lat="39.19378284174137" lon="8.576256259593293"><ele>327.0</ele><time>2026-05-02T13:59:42.999Z</time></trkpt><trkpt lat="39.19388745227965" lon="8.57618141743751"><ele>327.0</ele><time>2026-05-02T13:59:43.999Z</time></trkpt><trkpt lat="39.1939755156807" lon="8.576129238769008"><ele>327.0</ele><time>2026-05-02T13:59:44.999Z</time></trkpt><trkpt lat="39.19406720626143" lon="8.576131201638995"><ele>327.0</ele><time>2026-05-02T13:59:45.999Z</time></trkpt><trkpt lat="39.1941746269978" lon="8.576145953083362"><ele>327.0</ele><time>2026-05-02T13:59:46.999Z</time></trkpt><trkpt lat="39.194277833599564" lon="8.576141481357169"><ele>327.0</ele><time>2026-05-02T13:59:47.999Z</time></trkpt><trkpt lat="39.19436736759005" lon="8.576105195099528"><ele>327.0</ele><time>2026-05-02T13:59:48.999Z</time></trkpt><trkpt lat="39.19445128732913" lon="8.57603469112179"><ele>327.0</ele><time>2026-05-02T13:59:49.999Z</time></trkpt><trkpt lat="39.19454511902275" lon="8.575990019346728"><ele>327.0</ele><time>2026-05-02T13:59:50.999Z</time></trkpt><trkpt lat="39.19463467254419" lon="8.575951113954833"><ele>327.0</ele><time>2026-05-02T13:59:51.999Z</time></trkpt><trkpt lat="39.194731133004076" lon="8.57593661596589"><ele>327.0</ele><time>2026-05-02T13:59:52.999Z</time></trkpt><trkpt lat="39.19482471297641" lon="8.57595142847647"><ele>327.40000000000003</ele><time>2026-05-02T13:59:53.999Z</time></trkpt><trkpt lat="39.19492400107766" lon="8.575970251950993"><ele>327.8</ele><time>2026-05-02T13:59:54.999Z</time></trkpt><trkpt lat="39.19503488689176" lon="8.576000974301191"><ele>328.2</ele><time>2026-05-02T13:59:55.999Z</time></trkpt><trkpt lat="39.195128562784596" lon="8.576020135190642"><ele>328.6</ele><time>2026-05-02T13:59:56.999Z</time></trkpt><trkpt lat="39.1952095691484" lon="8.576017222506444"><ele>329.0</ele><time>2026-05-02T13:59:57.999Z</time></trkpt><trkpt lat="39.195285491162934" lon="8.575986449241869"><ele>329.0</ele><time>2026-05-02T13:59:58.999Z</time></trkpt><trkpt lat="39.19535792305266" lon="8.575917551128228"><ele>329.0</ele><time>2026-05-02T13:59:59.999Z</time></trkpt><trkpt lat="39.19542200330653" lon="8.575810920205559"><ele>329.0</ele><time>2026-05-02T14:00:00.999Z</time></trkpt><trkpt lat="39.19549347289011" lon="8.575705157009825"><ele>329.0</ele><time>2026-05-02T14:00:01.999Z</time></trkpt><trkpt lat="39.19555810525917" lon="8.575574030701606"><ele>329.0</ele><time>2026-05-02T14:00:02.999Z</time></trkpt><trkpt lat="39.1956620902371" lon="8.575407648252732"><ele>330.75</ele><time>2026-05-02T14:00:03.999Z</time></trkpt><trkpt lat="39.19575575100694" lon="8.575204908027386"><ele>332.5</ele><time>2026-05-02T14:00:04.999Z</time></trkpt><trkpt lat="39.195823961559284" lon="8.575057530273847"><ele>334.25</ele><time>2026-05-02T14:00:05.999Z</time></trkpt><trkpt lat="39.195867325294486" lon="8.574945436652493"><ele>336.0</ele><time>2026-05-02T14:00:06.999Z</time></trkpt><trkpt lat="39.195903937941836" lon="8.574874861309052"><ele>336.0</ele><time>2026-05-02T14:00:07.999Z</time></trkpt><trkpt lat="39.19598953252379" lon="8.574787506103483"><ele>336.0</ele><time>2026-05-02T14:00:09.999Z</time></trkpt><trkpt lat="39.19608177964904" lon="8.574777025051064"><ele>336.0</ele><time>2026-05-02T14:00:10.999Z</time></trkpt><trkpt lat="39.19620476433456" lon="8.574742928647426"><ele>336.0</ele><time>2026-05-02T14:00:11.999Z</time></trkpt><trkpt lat="39.1963193747455" lon="8.574720154048494"><ele>336.0</ele><time>2026-05-02T14:00:12.999Z</time></trkpt><trkpt lat="39.19641327329413" lon="8.57469821018116"><ele>336.0</ele><time>2026-05-02T14:00:13.999Z</time></trkpt><trkpt lat="39.19648766472001" lon="8.574668319909296"><ele>336.0</ele><time>2026-05-02T14:00:14.999Z</time></trkpt><trkpt lat="39.196551401252286" lon="8.574611790930136"><ele>336.0</ele><time>2026-05-02T14:00:15.999Z</time></trkpt><trkpt lat="39.196614338196554" lon="8.574557523535542"><ele>336.0</ele><time>2026-05-02T14:00:16.999Z</time></trkpt><trkpt lat="39.19667852224044" lon="8.574454358139649"><ele>336.0</ele><time>2026-05-02T14:00:17.999Z</time></trkpt><trkpt lat="39.19674391869096" lon="8.574334229285538"><ele>336.0</ele><time>2026-05-02T14:00:18.999Z</time></trkpt><trkpt lat="39.19682749991678" lon="8.574209028024947"><ele>338.0</ele><time>2026-05-02T14:00:19.999Z</time></trkpt><trkpt lat="39.196895362156894" lon="8.574082277812852"><ele>340.0</ele><time>2026-05-02T14:00:21Z</time></trkpt><trkpt lat="39.19694983852855" lon="8.574002742286279"><ele>342.0</ele><time>2026-05-02T14:00:22Z</time></trkpt><trkpt lat="39.197004233433056" lon="8.573952253507297"><ele>344.0</ele><time>2026-05-02T14:00:23Z</time></trkpt><trkpt lat="39.19708626964485" lon="8.573906260110988"><ele>346.0</ele><time>2026-05-02T14:00:24Z</time></trkpt><trkpt lat="39.19720701642983" lon="8.57385575576766"><ele>345.75</ele><time>2026-05-02T14:00:25Z</time></trkpt><trkpt lat="39.19734722648456" lon="8.573821652736292"><ele>345.5</ele><time>2026-05-02T14:00:26Z</time></trkpt><trkpt lat="39.197471923936746" lon="8.573786511585148"><ele>345.25</ele><time>2026-05-02T14:00:27Z</time></trkpt><trkpt lat="39.19756690593325" lon="8.573758591667241"><ele>345.0</ele><time>2026-05-02T14:00:28Z</time></trkpt><trkpt lat="39.19766326087498" lon="8.573723977176096"><ele>347.2</ele><time>2026-05-02T14:00:29Z</time></trkpt><trkpt lat="39.197735108968494" lon="8.57366952558617"><ele>349.4</ele><time>2026-05-02T14:00:30Z</time></trkpt><trkpt lat="39.19779375772893" lon="8.573623682045874"><ele>351.6</ele><time>2026-05-02T14:00:31Z</time></trkpt><trkpt lat="39.19786689457063" lon="8.573566514280047"><ele>353.8</ele><time>2026-05-02T14:00:32Z</time></trkpt><trkpt lat="39.197930765761114" lon="8.57343314372496"><ele>356.0</ele><time>2026-05-02T14:00:33Z</time></trkpt><trkpt lat="39.19801527464488" lon="8.573346919076101"><ele>356.0</ele><time>2026-05-02T14:00:34Z</time></trkpt><trkpt lat="39.19807761356431" lon="8.573304807919675"><ele>356.0</ele><time>2026-05-02T14:00:35Z</time></trkpt><trkpt lat="39.19814279243706" lon="8.573276204332156"><ele>356.0</ele><time>2026-05-02T14:00:36Z</time></trkpt><trkpt lat="39.198210805657475" lon="8.573249813574238"><ele>356.0</ele><time>2026-05-02T14:00:37Z</time></trkpt><trkpt lat="39.198302722694386" lon="8.573191493720174"><ele>356.0</ele><time>2026-05-02T14:00:38Z</time></trkpt><trkpt lat="39.19842432556512" lon="8.573140191217073"><ele>356.0</ele><time>2026-05-02T14:00:39Z</time></trkpt><trkpt lat="39.198554808489" lon="8.573095886831432"><ele>356.0</ele><time>2026-05-02T14:00:40Z</time></trkpt><trkpt lat="39.19866515642823" lon="8.573078447039956"><ele>356.0</ele><time>2026-05-02T14:00:41Z</time></trkpt><trkpt lat="39.198768178944135" lon="8.573045127449415"><ele>356.0</ele><time>2026-05-02T14:00:42Z</time></trkpt><trkpt lat="39.19888119653254" lon="8.573008575228027"><ele>356.0</ele><time>2026-05-02T14:00:43Z</time></trkpt><trkpt lat="39.19898002508397" lon="8.572976612041156"><ele>356.0</ele><time>2026-05-02T14:00:44Z</time></trkpt><trkpt lat="39.19908925445361" lon="8.572922020869036"><ele>354.0</ele><time>2026-05-02T14:00:45Z</time></trkpt><trkpt lat="39.19920935420486" lon="8.572888520161893"><ele>352.0</ele><time>2026-05-02T14:00:46Z</time></trkpt><trkpt lat="39.199315132381265" lon="8.572858821986829"><ele>350.0</ele><time>2026-05-02T14:00:47Z</time></trkpt><trkpt lat="39.1994178946056" lon="8.572830521392646"><ele>348.0</ele><time>2026-05-02T14:00:48Z</time></trkpt><trkpt lat="39.19951884500471" lon="8.572796192104413"><ele>346.0</ele><time>2026-05-02T14:00:49Z</time></trkpt><trkpt lat="39.19962353934965" lon="8.57275241556095"><ele>347.8333333333333</ele><time>2026-05-02T14:00:50Z</time></trkpt><trkpt lat="39.19972016217129" lon="8.572716462903234"><ele>349.66666666666663</ele><time>2026-05-02T14:00:51Z</time></trkpt><trkpt lat="39.19980892705818" lon="8.572707456420677"><ele>351.5</ele><time>2026-05-02T14:00:52Z</time></trkpt><trkpt lat="39.19988888354433" lon="8.572693042512624"><ele>353.3333333333333</ele><time>2026-05-02T14:00:53Z</time></trkpt><trkpt lat="39.199966132728946" lon="8.57269517836716"><ele>355.1666666666667</ele><time>2026-05-02T14:00:54Z</time></trkpt><trkpt lat="39.200054212345265" lon="8.572681995563546"><ele>357.0</ele><time>2026-05-02T14:00:55Z</time></trkpt><trkpt lat="39.20015069198396" lon="8.572690453830205"><ele>357.0</ele><time>2026-05-02T14:00:56Z</time></trkpt><trkpt lat="39.200268569365406" lon="8.57270114582459"><ele>357.0</ele><time>2026-05-02T14:00:57Z</time></trkpt><trkpt lat="39.20037583177005" lon="8.572737589519875"><ele>357.0</ele><time>2026-05-02T14:00:58Z</time></trkpt><trkpt lat="39.20047763496763" lon="8.572753140837955"><ele>357.0</ele><time>2026-05-02T14:00:59Z</time></trkpt><trkpt lat="39.20057322091149" lon="8.572767742423482"><ele>357.0</ele><time>2026-05-02T14:01:00Z</time></trkpt><trkpt lat="39.20066811548232" lon="8.572790914351923"><ele>356.2857142857143</ele><time>2026-05-02T14:01:01Z</time></trkpt><trkpt lat="39.200739345613165" lon="8.572787023879712"><ele>355.57142857142856</ele><time>2026-05-02T14:01:02Z</time></trkpt><trkpt lat="39.20080578534666" lon="8.572830161256833"><ele>354.8571428571429</ele><time>2026-05-02T14:01:03Z</time></trkpt><trkpt lat="39.2008728682187" lon="8.57288841529722"><ele>354.1428571428571</ele><time>2026-05-02T14:01:04Z</time></trkpt><trkpt lat="39.20091722069944" lon="8.572956447917077"><ele>353.42857142857144</ele><time>2026-05-02T14:01:05Z</time></trkpt><trkpt lat="39.20096933667894" lon="8.573016829219375"><ele>352.7142857142857</ele><time>2026-05-02T14:01:06Z</time></trkpt><trkpt lat="39.201042731804584" lon="8.573068176154605"><ele>352.0</ele><time>2026-05-02T14:01:07Z</time></trkpt><trkpt lat="39.20111787326887" lon="8.573092998150129"><ele>352.0</ele><time>2026-05-02T14:01:08Z</time></trkpt><trkpt lat="39.201181581127614" lon="8.573103844665805"><ele>352.0</ele><time>2026-05-02T14:01:09Z</time></trkpt><trkpt lat="39.20125018937669" lon="8.573115226346815"><ele>352.0</ele><time>2026-05-02T14:01:10Z</time></trkpt><trkpt lat="39.201320989674365" lon="8.573137110386584"><ele>352.0</ele><time>2026-05-02T14:01:11Z</time></trkpt><trkpt lat="39.2013963477399" lon="8.57315702691138"><ele>352.0</ele><time>2026-05-02T14:01:12Z</time></trkpt><trkpt lat="39.20147310299704" lon="8.573183452258036"><ele>352.0</ele><time>2026-05-02T14:01:13Z</time></trkpt><trkpt lat="39.201562905322774" lon="8.573218298558684"><ele>352.40000000000003</ele><time>2026-05-02T14:01:14Z</time></trkpt><trkpt lat="39.2016501727313" lon="8.573236404681534"><ele>352.8</ele><time>2026-05-02T14:01:15Z</time></trkpt><trkpt lat="39.20173195801086" lon="8.573241124402749"><ele>353.2</ele><time>2026-05-02T14:01:16Z</time></trkpt><trkpt lat="39.20182866021593" lon="8.5732079176735"><ele>353.6</ele><time>2026-05-02T14:01:17Z</time></trkpt><trkpt lat="39.20192492974619" lon="8.573194080496203"><ele>354.0</ele><time>2026-05-02T14:01:18Z</time></trkpt><trkpt lat="39.2020184153707" lon="8.573189110559165"><ele>354.0</ele><time>2026-05-02T14:01:19Z</time></trkpt><trkpt lat="39.20210414997715" lon="8.573130715813532"><ele>354.0</ele><time>2026-05-02T14:01:20Z</time></trkpt><trkpt lat="39.20219919519087" lon="8.573154385880176"><ele>354.0</ele><time>2026-05-02T14:01:21Z</time></trkpt><trkpt lat="39.202300653484386" lon="8.573201675858707"><ele>354.0</ele><time>2026-05-02T14:01:22Z</time></trkpt><trkpt lat="39.202397468288645" lon="8.573244953839609"><ele>354.0</ele><time>2026-05-02T14:01:23Z</time></trkpt><trkpt lat="39.20248822857281" lon="8.573284293078236"><ele>353.79999999999995</ele><time>2026-05-02T14:01:24Z</time></trkpt><trkpt lat="39.202587166081415" lon="8.573294460473669"><ele>353.59999999999997</ele><time>2026-05-02T14:01:25Z</time></trkpt><trkpt lat="39.2026791989578" lon="8.57332007019746"><ele>353.4</ele><time>2026-05-02T14:01:26Z</time></trkpt><trkpt lat="39.20277896317464" lon="8.573347042139066"><ele>353.2</ele><time>2026-05-02T14:01:27Z</time></trkpt><trkpt lat="39.20286980849424" lon="8.573371604333431"><ele>353.0</ele><time>2026-05-02T14:01:28Z</time></trkpt><trkpt lat="39.20295943574307" lon="8.573398818724229"><ele>353.0</ele><time>2026-05-02T14:01:29Z</time></trkpt><trkpt lat="39.203052873250975" lon="8.573426341116978"><ele>353.0</ele><time>2026-05-02T14:01:30Z</time></trkpt><trkpt lat="39.203154210840815" lon="8.57345231652435"><ele>353.0</ele><time>2026-05-02T14:01:31Z</time></trkpt><trkpt lat="39.20325604428243" lon="8.573485701735327"><ele>353.0</ele><time>2026-05-02T14:01:32Z</time></trkpt><trkpt lat="39.203357102902125" lon="8.573525137337542"><ele>353.0</ele><time>2026-05-02T14:01:33Z</time></trkpt><trkpt lat="39.20344917013938" lon="8.57356573537906"><ele>352.79999999999995</ele><time>2026-05-02T14:01:34Z</time></trkpt><trkpt lat="39.20353616467609" lon="8.573607301219026"><ele>352.6</ele><time>2026-05-02T14:01:35Z</time></trkpt><trkpt lat="39.203632257345575" lon="8.57365321414232"><ele>352.4</ele><time>2026-05-02T14:01:36Z</time></trkpt><trkpt lat="39.2037319369322" lon="8.57370101052927"><ele>352.20000000000005</ele><time>2026-05-02T14:01:37Z</time></trkpt><trkpt lat="39.20382856174679" lon="8.573745790546752"><ele>352.0</ele><time>2026-05-02T14:01:38Z</time></trkpt><trkpt lat="39.20392039358797" lon="8.573786137142626"><ele>353.66666666666663</ele><time>2026-05-02T14:01:39Z</time></trkpt><trkpt lat="39.20400773715039" lon="8.573824511808198"><ele>355.3333333333333</ele><time>2026-05-02T14:01:40Z</time></trkpt><trkpt lat="39.204081415367106" lon="8.573856882535893"><ele>357.0</ele><time>2026-05-02T14:01:41Z</time></trkpt><trkpt lat="39.204151129075036" lon="8.573887511489948"><ele>358.6666666666667</ele><time>2026-05-02T14:01:41.999Z</time></trkpt><trkpt lat="39.20423171469531" lon="8.57392291702667"><ele>360.33333333333337</ele><time>2026-05-02T14:01:42.999Z</time></trkpt><trkpt lat="39.20430294910994" lon="8.573972432043453"><ele>362.0</ele><time>2026-05-02T14:01:43.999Z</time></trkpt><trkpt lat="39.20437608015765" lon="8.573969291287534"><ele>362.0</ele><time>2026-05-02T14:01:44.999Z</time></trkpt><trkpt lat="39.20443619284112" lon="8.57401270445577"><ele>362.0</ele><time>2026-05-02T14:01:45.999Z</time></trkpt><trkpt lat="39.2045337831731" lon="8.574030837416183"><ele>362.0</ele><time>2026-05-02T14:01:46.999Z</time></trkpt><trkpt lat="39.20464994119124" lon="8.574085114660175"><ele>362.0</ele><time>2026-05-02T14:01:47.999Z</time></trkpt><trkpt lat="39.204759494474516" lon="8.574123775390902"><ele>362.0</ele><time>2026-05-02T14:01:48.999Z</time></trkpt><trkpt lat="39.20484877589764" lon="8.57413693893539"><ele>361.8</ele><time>2026-05-02T14:01:49.999Z</time></trkpt><trkpt lat="39.20492382026045" lon="8.574193686218905"><ele>361.6</ele><time>2026-05-02T14:01:50.999Z</time></trkpt><trkpt lat="39.2049827945921" lon="8.574240470235985"><ele>361.40000000000003</ele><time>2026-05-02T14:01:51.999Z</time></trkpt><trkpt lat="39.20502752967735" lon="8.574334095990944"><ele>361.20000000000005</ele><time>2026-05-02T14:01:52.999Z</time></trkpt><trkpt lat="39.20512164705204" lon="8.574423832647735"><ele>361.0</ele><time>2026-05-02T14:01:53.999Z</time></trkpt><trkpt lat="39.20522575042678" lon="8.574490671455495"><ele>360.0</ele><time>2026-05-02T14:01:54.999Z</time></trkpt><trkpt lat="39.20532808413823" lon="8.574571981915879"><ele>359.0</ele><time>2026-05-02T14:01:55.999Z</time></trkpt><trkpt lat="39.205435693602375" lon="8.574627336765188"><ele>358.0</ele><time>2026-05-02T14:01:56.999Z</time></trkpt><trkpt lat="39.20556378750506" lon="8.57458707391203"><ele>357.0</ele><time>2026-05-02T14:01:57.999Z</time></trkpt><trkpt lat="39.20566868829881" lon="8.574637231631826"><ele>359.8</ele><time>2026-05-02T14:01:58.999Z</time></trkpt><trkpt lat="39.205747313667295" lon="8.574677805071866"><ele>362.6</ele><time>2026-05-02T14:01:59.999Z</time></trkpt><trkpt lat="39.20583528584655" lon="8.574722308014978"><ele>365.40000000000003</ele><time>2026-05-02T14:02:00.999Z</time></trkpt><trkpt lat="39.20591902487788" lon="8.574761995453374"><ele>368.20000000000005</ele><time>2026-05-02T14:02:02.999Z</time></trkpt><trkpt lat="39.20597972012871" lon="8.574787406521958"><ele>371.0</ele><time>2026-05-02T14:02:17.999Z</time></trkpt><trkpt lat="39.20602674808204" lon="8.575108317135804"><ele>371.0</ele><time>2026-05-02T14:02:23.999Z</time></trkpt><trkpt lat="39.20606733235376" lon="8.575266661841425"><ele>371.0</ele><time>2026-05-02T14:02:25.999Z</time></trkpt><trkpt lat="39.20609604574248" lon="8.575383577823146"><ele>371.0</ele><time>2026-05-02T14:02:27Z</time></trkpt><trkpt lat="39.20611827473952" lon="8.575531382648961"><ele>371.0</ele><time>2026-05-02T14:02:28Z</time></trkpt><trkpt lat="39.206130831118394" lon="8.575706861453913"><ele>372.5</ele><time>2026-05-02T14:02:29Z</time></trkpt><trkpt lat="39.20610886563914" lon="8.575892172542963"><ele>374.0</ele><time>2026-05-02T14:02:30Z</time></trkpt><trkpt lat="39.20608596131623" lon="8.576050144140025"><ele>375.5</ele><time>2026-05-02T14:02:31Z</time></trkpt><trkpt lat="39.206057921296065" lon="8.57621151240604"><ele>377.0</ele><time>2026-05-02T14:02:32Z</time></trkpt><trkpt lat="39.20602712710767" lon="8.576375182668968"><ele>378.8</ele><time>2026-05-02T14:02:33Z</time></trkpt><trkpt lat="39.205998089632814" lon="8.576535836731066"><ele>380.6</ele><time>2026-05-02T14:02:34Z</time></trkpt><trkpt lat="39.20597941039069" lon="8.576654570223116"><ele>382.40000000000003</ele><time>2026-05-02T14:02:35Z</time></trkpt><trkpt lat="39.20597686789176" lon="8.576744485216864"><ele>384.20000000000005</ele><time>2026-05-02T14:02:36Z</time></trkpt><trkpt lat="39.20597759868011" lon="8.576859108930224"><ele>386.0</ele><time>2026-05-02T14:02:37Z</time></trkpt><trkpt lat="39.20597797109848" lon="8.576966415564986"><ele>385.4</ele><time>2026-05-02T14:02:38Z</time></trkpt><trkpt lat="39.205972562512464" lon="8.577051437775829"><ele>384.8</ele><time>2026-05-02T14:02:39Z</time></trkpt><trkpt lat="39.20594339721083" lon="8.577202585125361"><ele>384.2</ele><time>2026-05-02T14:02:41Z</time></trkpt><trkpt lat="39.20596355824709" lon="8.577342015515352"><ele>383.59999999999997</ele><time>2026-05-02T14:02:43Z</time></trkpt><trkpt lat="39.20604324378165" lon="8.57745695549333"><ele>383.0</ele><time>2026-05-02T14:02:45Z</time></trkpt><trkpt lat="39.20608481476162" lon="8.577526124401727"><ele>383.0</ele><time>2026-05-02T14:02:46Z</time></trkpt><trkpt lat="39.20610851511614" lon="8.577608819766198"><ele>383.0</ele><time>2026-05-02T14:02:47Z</time></trkpt><trkpt lat="39.20611106422688" lon="8.577718746921134"><ele>383.0</ele><time>2026-05-02T14:02:48Z</time></trkpt><trkpt lat="39.20612001614976" lon="8.57782728246413"><ele>383.0</ele><time>2026-05-02T14:02:49Z</time></trkpt><trkpt lat="39.20614494573857" lon="8.577940507479525"><ele>383.0</ele><time>2026-05-02T14:02:50Z</time></trkpt><trkpt lat="39.20617199294383" lon="8.578074433313649"><ele>383.0</ele><time>2026-05-02T14:02:51Z</time></trkpt><trkpt lat="39.20616917084445" lon="8.578222527086037"><ele>382.0</ele><time>2026-05-02T14:02:52Z</time></trkpt><trkpt lat="39.20615661982072" lon="8.57838016028078"><ele>381.0</ele><time>2026-05-02T14:02:53Z</time></trkpt><trkpt lat="39.20614188110004" lon="8.578530539465945"><ele>380.0</ele><time>2026-05-02T14:02:54Z</time></trkpt><trkpt lat="39.206132561812446" lon="8.578684760254214"><ele>379.0</ele><time>2026-05-02T14:02:55Z</time></trkpt><trkpt lat="39.20613412321245" lon="8.578834919260139"><ele>379.0</ele><time>2026-05-02T14:02:56Z</time></trkpt><trkpt lat="39.20613532817529" lon="8.5789719061329"><ele>379.0</ele><time>2026-05-02T14:02:57Z</time></trkpt><trkpt lat="39.2061311804392" lon="8.579092897807666"><ele>379.0</ele><time>2026-05-02T14:02:58Z</time></trkpt><trkpt lat="39.206137722666774" lon="8.579182447598098"><ele>379.0</ele><time>2026-05-02T14:02:59Z</time></trkpt><trkpt lat="39.206217433127776" lon="8.579300435789937"><ele>379.0</ele><time>2026-05-02T14:03:01Z</time></trkpt><trkpt lat="39.20627288232195" lon="8.579354231680941"><ele>379.0</ele><time>2026-05-02T14:03:02Z</time></trkpt><trkpt lat="39.206367545773155" lon="8.579405382366101"><ele>379.0</ele><time>2026-05-02T14:03:04Z</time></trkpt><trkpt lat="39.206490238489614" lon="8.57939058145348"><ele>379.0</ele><time>2026-05-02T14:03:06Z</time></trkpt><trkpt lat="39.20656816079434" lon="8.57938393473546"><ele>379.0</ele><time>2026-05-02T14:03:07Z</time></trkpt><trkpt lat="39.20664355403202" lon="8.579365323309274"><ele>379.0</ele><time>2026-05-02T14:03:08Z</time></trkpt><trkpt lat="39.20672635095176" lon="8.579382325051615"><ele>378.8333333333333</ele><time>2026-05-02T14:03:10Z</time></trkpt><trkpt lat="39.20670460631356" lon="8.579551403540025"><ele>378.66666666666663</ele><time>2026-05-02T14:03:13Z</time></trkpt><trkpt lat="39.20668484783505" lon="8.579654138201226"><ele>378.5</ele><time>2026-05-02T14:03:14Z</time></trkpt><trkpt lat="39.20667217685688" lon="8.579735514377532"><ele>378.3333333333333</ele><time>2026-05-02T14:03:15Z</time></trkpt><trkpt lat="39.20668679869361" lon="8.579825348499714"><ele>378.1666666666667</ele><time>2026-05-02T14:03:16Z</time></trkpt><trkpt lat="39.20670240762374" lon="8.579910426524892"><ele>378.0</ele><time>2026-05-02T14:03:17Z</time></trkpt><trkpt lat="39.206717686000864" lon="8.58000188315656"><ele>378.0</ele><time>2026-05-02T14:03:18Z</time></trkpt><trkpt lat="39.20673394064234" lon="8.580093908854774"><ele>378.0</ele><time>2026-05-02T14:03:19Z</time></trkpt><trkpt lat="39.20673995229624" lon="8.580196168439585"><ele>378.0</ele><time>2026-05-02T14:03:20Z</time></trkpt><trkpt lat="39.206739016446" lon="8.580302137230406"><ele>378.0</ele><time>2026-05-02T14:03:21Z</time></trkpt><trkpt lat="39.20673186898027" lon="8.580405667776697"><ele>378.0</ele><time>2026-05-02T14:03:22Z</time></trkpt><trkpt lat="39.2067085400073" lon="8.580549907097678"><ele>378.0</ele><time>2026-05-02T14:03:23Z</time></trkpt><trkpt lat="39.20668825660249" lon="8.580698024690086"><ele>378.0</ele><time>2026-05-02T14:03:24Z</time></trkpt><trkpt lat="39.20667518716888" lon="8.580830890142552"><ele>378.0</ele><time>2026-05-02T14:03:25Z</time></trkpt><trkpt lat="39.206666534492925" lon="8.580984169402234"><ele>378.0</ele><time>2026-05-02T14:03:26Z</time></trkpt><trkpt lat="39.20665462325579" lon="8.58112914125073"><ele>378.0</ele><time>2026-05-02T14:03:27Z</time></trkpt><trkpt lat="39.20661575312057" lon="8.581271978609642"><ele>378.59999999999997</ele><time>2026-05-02T14:03:28Z</time></trkpt><trkpt lat="39.20658328795282" lon="8.581410382589635"><ele>379.2</ele><time>2026-05-02T14:03:29Z</time></trkpt><trkpt lat="39.206569801900706" lon="8.581536374731984"><ele>379.8</ele><time>2026-05-02T14:03:30Z</time></trkpt><trkpt lat="39.20655530290191" lon="8.581665265441828"><ele>380.4</ele><time>2026-05-02T14:03:31Z</time></trkpt><trkpt lat="39.206555612530686" lon="8.581786601189279"><ele>381.0</ele><time>2026-05-02T14:03:32Z</time></trkpt><trkpt lat="39.20656894807892" lon="8.58190690036605"><ele>381.0</ele><time>2026-05-02T14:03:33Z</time></trkpt><trkpt lat="39.20658650589124" lon="8.58206926821852"><ele>381.0</ele><time>2026-05-02T14:03:35Z</time></trkpt><trkpt lat="39.20655770671486" lon="8.582171923149355"><ele>381.0</ele><time>2026-05-02T14:03:36Z</time></trkpt><trkpt lat="39.20653537946367" lon="8.582272780464466"><ele>381.0</ele><time>2026-05-02T14:03:37Z</time></trkpt><trkpt lat="39.206507488485606" lon="8.582371622759723"><ele>381.0</ele><time>2026-05-02T14:03:38Z</time></trkpt><trkpt lat="39.20648108236161" lon="8.582478325809527"><ele>379.8</ele><time>2026-05-02T14:03:39Z</time></trkpt><trkpt lat="39.20646316840884" lon="8.582584833581919"><ele>378.6</ele><time>2026-05-02T14:03:40Z</time></trkpt><trkpt lat="39.20645593718924" lon="8.582710610788126"><ele>377.4</ele><time>2026-05-02T14:03:41Z</time></trkpt><trkpt lat="39.206458841245144" lon="8.582858566027205"><ele>376.2</ele><time>2026-05-02T14:03:42Z</time></trkpt><trkpt lat="39.20645981253607" lon="8.583006431727872"><ele>375.0</ele><time>2026-05-02T14:03:43Z</time></trkpt><trkpt lat="39.20645675008814" lon="8.583135130100619"><ele>374.8333333333333</ele><time>2026-05-02T14:03:44Z</time></trkpt><trkpt lat="39.20644275337559" lon="8.58324602590629"><ele>374.6666666666667</ele><time>2026-05-02T14:03:45Z</time></trkpt><trkpt lat="39.206428159365636" lon="8.583358730406013"><ele>374.5</ele><time>2026-05-02T14:03:46Z</time></trkpt><trkpt lat="39.20639169707125" lon="8.58344752124448"><ele>374.33333333333337</ele><time>2026-05-02T14:03:46.999Z</time></trkpt><trkpt lat="39.206339100372" lon="8.583535875503228"><ele>374.1666666666667</ele><time>2026-05-02T14:03:47.999Z</time></trkpt><trkpt lat="39.20627940054554" lon="8.583591276925636"><ele>374.0</ele><time>2026-05-02T14:03:48.999Z</time></trkpt><trkpt lat="39.206213263044695" lon="8.583733690515624"><ele>374.0</ele><time>2026-05-02T14:03:50.999Z</time></trkpt><trkpt lat="39.20617465822792" lon="8.583827749906888"><ele>374.0</ele><time>2026-05-02T14:03:51.999Z</time></trkpt><trkpt lat="39.206133912976036" lon="8.583902821797018"><ele>374.0</ele><time>2026-05-02T14:03:52.999Z</time></trkpt><trkpt lat="39.206094718676226" lon="8.583966933887428"><ele>374.0</ele><time>2026-05-02T14:03:53.999Z</time></trkpt><trkpt lat="39.20605283400137" lon="8.584029892703564"><ele>374.0</ele><time>2026-05-02T14:03:54.999Z</time></trkpt><trkpt lat="39.20600465498265" lon="8.5841024545795"><ele>374.0</ele><time>2026-05-02T14:03:55.999Z</time></trkpt><trkpt lat="39.2059588348514" lon="8.584170805859712"><ele>374.0</ele><time>2026-05-02T14:03:56.999Z</time></trkpt><trkpt lat="39.20590257584794" lon="8.584242783237277"><ele>374.0</ele><time>2026-05-02T14:03:58.999Z</time></trkpt><trkpt lat="39.20586274154254" lon="8.58431106960503"><ele>374.0</ele><time>2026-05-02T14:04:02.999Z</time></trkpt><trkpt lat="39.20579089908489" lon="8.584368156153033"><ele>374.0</ele><time>2026-05-02T14:04:05.999Z</time></trkpt><trkpt lat="39.20578974215822" lon="8.584452980990221"><ele>374.0</ele><time>2026-05-02T14:04:08.999Z</time></trkpt><trkpt lat="39.20582746066998" lon="8.5845321258435"><ele>374.0</ele><time>2026-05-02T14:04:10.999Z</time></trkpt><trkpt lat="39.205795925524285" lon="8.584633138047977"><ele>374.0</ele><time>2026-05-02T14:04:12.999Z</time></trkpt><trkpt lat="39.20576680080241" lon="8.584709814122464"><ele>374.0</ele><time>2026-05-02T14:04:13.999Z</time></trkpt><trkpt lat="39.20576013434208" lon="8.584793593816629"><ele>372.85714285714283</ele><time>2026-05-02T14:04:14.999Z</time></trkpt><trkpt lat="39.20575895360338" lon="8.584877420561332"><ele>371.7142857142857</ele><time>2026-05-02T14:04:15.999Z</time></trkpt><trkpt lat="39.20573841990768" lon="8.584959470859479"><ele>370.57142857142856</ele><time>2026-05-02T14:04:16.999Z</time></trkpt><trkpt lat="39.20571873918565" lon="8.585045761381105"><ele>369.42857142857144</ele><time>2026-05-02T14:04:17.999Z</time></trkpt><trkpt lat="39.20570181659902" lon="8.585137446246224"><ele>368.28571428571433</ele><time>2026-05-02T14:04:18.999Z</time></trkpt><trkpt lat="39.205686021119554" lon="8.585217727554433"><ele>367.14285714285717</ele><time>2026-05-02T14:04:19.999Z</time></trkpt><trkpt lat="39.2056663925895" lon="8.585297270092868"><ele>366.0</ele><time>2026-05-02T14:04:20.999Z</time></trkpt><trkpt lat="39.205642158379284" lon="8.58538469371967"><ele>364.3333333333333</ele><time>2026-05-02T14:04:21.999Z</time></trkpt><trkpt lat="39.205618095976746" lon="8.585478995052764"><ele>362.6666666666667</ele><time>2026-05-02T14:04:22.999Z</time></trkpt><trkpt lat="39.20559849359451" lon="8.585579619325632"><ele>361.0</ele><time>2026-05-02T14:04:23.999Z</time></trkpt><trkpt lat="39.205578483237616" lon="8.585674678713405"><ele>359.33333333333337</ele><time>2026-05-02T14:04:24.999Z</time></trkpt><trkpt lat="39.20555774058297" lon="8.585760080129795"><ele>357.6666666666667</ele><time>2026-05-02T14:04:25.999Z</time></trkpt><trkpt lat="39.205535532676215" lon="8.585852347934575"><ele>356.0</ele><time>2026-05-02T14:04:26.999Z</time></trkpt><trkpt lat="39.205512074572" lon="8.58594375220591"><ele>356.0</ele><time>2026-05-02T14:04:27.999Z</time></trkpt><trkpt lat="39.205497265840776" lon="8.58602801863877"><ele>356.0</ele><time>2026-05-02T14:04:28.999Z</time></trkpt><trkpt lat="39.20548162673608" lon="8.586109176441775"><ele>356.0</ele><time>2026-05-02T14:04:29.999Z</time></trkpt><trkpt lat="39.205449564993785" lon="8.586244384420606"><ele>356.0</ele><time>2026-05-02T14:04:31.999Z</time></trkpt><trkpt lat="39.20541528873966" lon="8.586395610063782"><ele>356.0</ele><time>2026-05-02T14:04:34Z</time></trkpt><trkpt lat="39.205379439298305" lon="8.586499051707902"><ele>353.4</ele><time>2026-05-02T14:04:36Z</time></trkpt><trkpt lat="39.20536127059211" lon="8.586639228213267"><ele>350.8</ele><time>2026-05-02T14:04:38Z</time></trkpt><trkpt lat="39.20534093995458" lon="8.586719276621672"><ele>348.2</ele><time>2026-05-02T14:04:40Z</time></trkpt><trkpt lat="39.205359114402086" lon="8.58686652011028"><ele>345.59999999999997</ele><time>2026-05-02T14:04:44Z</time></trkpt><trkpt lat="39.20532633525836" lon="8.586942981943212"><ele>343.0</ele><time>2026-05-02T14:04:50Z</time></trkpt><trkpt lat="39.20520874864262" lon="8.587134204811617"><ele>343.0</ele><time>2026-05-02T14:04:52Z</time></trkpt><trkpt lat="39.20515128904834" lon="8.587204604437193"><ele>343.0</ele><time>2026-05-02T14:04:53Z</time></trkpt><trkpt lat="39.20510272565013" lon="8.587290681926147"><ele>343.0</ele><time>2026-05-02T14:04:54Z</time></trkpt><trkpt lat="39.20503976017701" lon="8.587441135687243"><ele>343.0</ele><time>2026-05-02T14:04:55Z</time></trkpt><trkpt lat="39.20497239884769" lon="8.587605074220184"><ele>343.0</ele><time>2026-05-02T14:04:56Z</time></trkpt><trkpt lat="39.204912846692" lon="8.587711358361913"><ele>343.0</ele><time>2026-05-02T14:04:57Z</time></trkpt><trkpt lat="39.20486839236579" lon="8.587826430976891"><ele>343.0</ele><time>2026-05-02T14:04:58Z</time></trkpt><trkpt lat="39.20483721572142" lon="8.58795158209541"><ele>343.0</ele><time>2026-05-02T14:04:59Z</time></trkpt><trkpt lat="39.20481232410355" lon="8.588067841709075"><ele>343.0</ele><time>2026-05-02T14:05:00Z</time></trkpt><trkpt lat="39.204797053789875" lon="8.588164523790823"><ele>343.0</ele><time>2026-05-02T14:05:01Z</time></trkpt><trkpt lat="39.20478284675613" lon="8.588278625923653"><ele>344.4</ele><time>2026-05-02T14:05:02Z</time></trkpt><trkpt lat="39.20477302840813" lon="8.58841730614092"><ele>345.79999999999995</ele><time>2026-05-02T14:05:03Z</time></trkpt><trkpt lat="39.204764435264245" lon="8.588546748109737"><ele>347.2</ele><time>2026-05-02T14:05:04Z</time></trkpt><trkpt lat="39.20477577223482" lon="8.58867681566613"><ele>348.6</ele><time>2026-05-02T14:05:05Z</time></trkpt><trkpt lat="39.204793371989496" lon="8.588790662369204"><ele>350.0</ele><time>2026-05-02T14:05:06Z</time></trkpt><trkpt lat="39.20479135160525" lon="8.588917446630129"><ele>352.0</ele><time>2026-05-02T14:05:07Z</time></trkpt><trkpt lat="39.20477039389315" lon="8.589071223019511"><ele>354.0</ele><time>2026-05-02T14:05:08Z</time></trkpt><trkpt lat="39.204765092802134" lon="8.58918407697512"><ele>356.0</ele><time>2026-05-02T14:05:09Z</time></trkpt><trkpt lat="39.20475900294243" lon="8.589309808230965"><ele>358.0</ele><time>2026-05-02T14:05:10Z</time></trkpt><trkpt lat="39.20473590553966" lon="8.589427627930545"><ele>360.0</ele><time>2026-05-02T14:05:11Z</time></trkpt><trkpt lat="39.204709634912845" lon="8.589559226697615"><ele>361.0</ele><time>2026-05-02T14:05:12Z</time></trkpt><trkpt lat="39.20470196858309" lon="8.589698534315012"><ele>362.0</ele><time>2026-05-02T14:05:13Z</time></trkpt><trkpt lat="39.20466239928806" lon="8.589840257537274"><ele>363.0</ele><time>2026-05-02T14:05:14Z</time></trkpt><trkpt lat="39.20462663961521" lon="8.589955249725369"><ele>364.0</ele><time>2026-05-02T14:05:15Z</time></trkpt><trkpt lat="39.20457073239476" lon="8.590092396824046"><ele>365.0</ele><time>2026-05-02T14:05:16Z</time></trkpt><trkpt lat="39.2045216589734" lon="8.590197063115372"><ele>365.0</ele><time>2026-05-02T14:05:17Z</time></trkpt><trkpt lat="39.2044757656767" lon="8.590322358295573"><ele>365.0</ele><time>2026-05-02T14:05:18Z</time></trkpt><trkpt lat="39.20443598556998" lon="8.590434340242897"><ele>365.0</ele><time>2026-05-02T14:05:19Z</time></trkpt><trkpt lat="39.204395666955726" lon="8.590520228867357"><ele>365.0</ele><time>2026-05-02T14:05:20Z</time></trkpt><trkpt lat="39.20435685147948" lon="8.590605730392953"><ele>365.0</ele><time>2026-05-02T14:05:21Z</time></trkpt><trkpt lat="39.20432297013823" lon="8.59071513544327"><ele>365.0</ele><time>2026-05-02T14:05:22Z</time></trkpt><trkpt lat="39.20428571290583" lon="8.590820107873371"><ele>365.1666666666667</ele><time>2026-05-02T14:05:23Z</time></trkpt><trkpt lat="39.204254082063" lon="8.590906352294569"><ele>365.33333333333337</ele><time>2026-05-02T14:05:24Z</time></trkpt><trkpt lat="39.20420221700999" lon="8.591038187148325"><ele>365.5</ele><time>2026-05-02T14:05:26Z</time></trkpt><trkpt lat="39.2041793547849" lon="8.591120381964933"><ele>365.6666666666667</ele><time>2026-05-02T14:05:27Z</time></trkpt><trkpt lat="39.204144403194874" lon="8.59120717179777"><ele>365.8333333333333</ele><time>2026-05-02T14:05:28Z</time></trkpt><trkpt lat="39.20410005478439" lon="8.59129261100947"><ele>366.0</ele><time>2026-05-02T14:05:29Z</time></trkpt><trkpt lat="39.20405245791883" lon="8.591367138587538"><ele>366.1666666666667</ele><time>2026-05-02T14:05:30Z</time></trkpt><trkpt lat="39.20399210082146" lon="8.591429664506121"><ele>366.3333333333333</ele><time>2026-05-02T14:05:31Z</time></trkpt><trkpt lat="39.20393277704324" lon="8.591493031729673"><ele>366.5</ele><time>2026-05-02T14:05:32Z</time></trkpt><trkpt lat="39.203891939955845" lon="8.591568842033189"><ele>366.66666666666663</ele><time>2026-05-02T14:05:33Z</time></trkpt><trkpt lat="39.203856468417726" lon="8.591648788040043"><ele>366.8333333333333</ele><time>2026-05-02T14:05:34Z</time></trkpt><trkpt lat="39.2038494966519" lon="8.591757271843088"><ele>367.0</ele><time>2026-05-02T14:05:36Z</time></trkpt><trkpt lat="39.20386353120791" lon="8.5918440788467"><ele>367.0</ele><time>2026-05-02T14:05:52Z</time></trkpt><trkpt lat="39.20378300317017" lon="8.591953677982264"><ele>367.0</ele><time>2026-05-02T14:05:53.999Z</time></trkpt><trkpt lat="39.20373589752091" lon="8.59204302464016"><ele>367.0</ele><time>2026-05-02T14:05:54.999Z</time></trkpt><trkpt lat="39.20366411004719" lon="8.592118325840547"><ele>367.0</ele><time>2026-05-02T14:05:55.999Z</time></trkpt><trkpt lat="39.20358545798026" lon="8.592205712664306"><ele>367.0</ele><time>2026-05-02T14:05:56.999Z</time></trkpt><trkpt lat="39.20351057087387" lon="8.59231884933661"><ele>365.8</ele><time>2026-05-02T14:05:57.999Z</time></trkpt><trkpt lat="39.2034473143256" lon="8.592433026735184"><ele>364.6</ele><time>2026-05-02T14:05:58.999Z</time></trkpt><trkpt lat="39.20339065930444" lon="8.592534912084494"><ele>363.40000000000003</ele><time>2026-05-02T14:05:59.999Z</time></trkpt><trkpt lat="39.203323401801995" lon="8.592615302092591"><ele>362.20000000000005</ele><time>2026-05-02T14:06:00.999Z</time></trkpt><trkpt lat="39.20326056651923" lon="8.592665402388215"><ele>361.0</ele><time>2026-05-02T14:06:01.999Z</time></trkpt><trkpt lat="39.20319240938154" lon="8.592747744535801"><ele>360.0</ele><time>2026-05-02T14:06:03.999Z</time></trkpt><trkpt lat="39.20311481307809" lon="8.592852307291695"><ele>359.0</ele><time>2026-05-02T14:06:05.999Z</time></trkpt><trkpt lat="39.20305096168445" lon="8.592917202566621"><ele>358.0</ele><time>2026-05-02T14:06:06.999Z</time></trkpt><trkpt lat="39.20298253538964" lon="8.59299017112428"><ele>357.0</ele><time>2026-05-02T14:06:07.999Z</time></trkpt><trkpt lat="39.202920164766965" lon="8.593063581812626"><ele>356.0</ele><time>2026-05-02T14:06:08.999Z</time></trkpt><trkpt lat="39.20285498859185" lon="8.593122838944218"><ele>355.0</ele><time>2026-05-02T14:06:09.999Z</time></trkpt><trkpt lat="39.20278770215169" lon="8.59318070172477"><ele>355.0</ele><time>2026-05-02T14:06:10.999Z</time></trkpt><trkpt lat="39.202733936141286" lon="8.593255857647582"><ele>355.0</ele><time>2026-05-02T14:06:11.999Z</time></trkpt><trkpt lat="39.20267511757415" lon="8.593335580618515"><ele>355.0</ele><time>2026-05-02T14:06:12.999Z</time></trkpt><trkpt lat="39.202606754980565" lon="8.59339356227338"><ele>355.0</ele><time>2026-05-02T14:06:13.999Z</time></trkpt><trkpt lat="39.2025359537929" lon="8.593435873619692"><ele>355.0</ele><time>2026-05-02T14:06:14.999Z</time></trkpt><trkpt lat="39.20247659909636" lon="8.593464230820986"><ele>355.0</ele><time>2026-05-02T14:06:15.999Z</time></trkpt><trkpt lat="39.20238903423231" lon="8.593474074738294"><ele>354.2</ele><time>2026-05-02T14:06:18.999Z</time></trkpt><trkpt lat="39.20229599838927" lon="8.5934595548587"><ele>353.4</ele><time>2026-05-02T14:06:21.999Z</time></trkpt><trkpt lat="39.20217719363308" lon="8.593410493485598"><ele>352.6</ele><time>2026-05-02T14:06:23.999Z</time></trkpt><trkpt lat="39.20210790315548" lon="8.59339189539175"><ele>351.8</ele><time>2026-05-02T14:06:25.999Z</time></trkpt><trkpt lat="39.20202924608787" lon="8.593368719094936"><ele>351.0</ele><time>2026-05-02T14:06:46Z</time></trkpt><trkpt lat="39.2019443317135" lon="8.593335771732754"><ele>351.00000000000006</ele><time>2026-05-02T14:06:47Z</time></trkpt><trkpt lat="39.2018587893864" lon="8.59329570299811"><ele>351.0</ele><time>2026-05-02T14:06:48Z</time></trkpt><trkpt lat="39.20179063212693" lon="8.593249167340876"><ele>351.0</ele><time>2026-05-02T14:06:49Z</time></trkpt><trkpt lat="39.201732262838455" lon="8.593216620348453"><ele>351.0</ele><time>2026-05-02T14:06:50Z</time></trkpt><trkpt lat="39.201671096862746" lon="8.593162454716607"><ele>351.0</ele><time>2026-05-02T14:06:52Z</time></trkpt><trkpt lat="39.201625263103494" lon="8.59309716678751"><ele>351.00000000000006</ele><time>2026-05-02T14:06:55Z</time></trkpt><trkpt lat="39.201566359337384" lon="8.59303713538483"><ele>351.0</ele><time>2026-05-02T14:07:39Z</time></trkpt><trkpt lat="39.20152570108491" lon="8.592954637298394"><ele>347.20000000000005</ele><time>2026-05-02T14:07:43Z</time></trkpt><trkpt lat="39.20142237404442" lon="8.592826830914328"><ele>343.40000000000003</ele><time>2026-05-02T14:08:14.999Z</time></trkpt><trkpt lat="39.20134517635848" lon="8.592743228810273"><ele>339.6</ele><time>2026-05-02T14:08:15.999Z</time></trkpt><trkpt lat="39.201274024150734" lon="8.592679719258577"><ele>335.8</ele><time>2026-05-02T14:08:16.999Z</time></trkpt><trkpt lat="39.20121338230366" lon="8.592633483809154"><ele>332.0</ele><time>2026-05-02T14:08:17.999Z</time></trkpt><trkpt lat="39.20111634997506" lon="8.592532082783276"><ele>332.0</ele><time>2026-05-02T14:08:19.999Z</time></trkpt><trkpt lat="39.201065157702" lon="8.592473399047485"><ele>332.0</ele><time>2026-05-02T14:08:20.999Z</time></trkpt><trkpt lat="39.20101907739655" lon="8.592411366707973"><ele>332.0</ele><time>2026-05-02T14:08:21.999Z</time></trkpt><trkpt lat="39.20097972899633" lon="8.592341118380183"><ele>332.0</ele><time>2026-05-02T14:08:22.999Z</time></trkpt><trkpt lat="39.200936679875056" lon="8.592193889075133"><ele>332.0</ele><time>2026-05-02T14:08:24.999Z</time></trkpt><trkpt lat="39.200911545684505" lon="8.592075960363431"><ele>332.0</ele><time>2026-05-02T14:08:26.999Z</time></trkpt><trkpt lat="39.20091922039767" lon="8.591986116592222"><ele>332.20000000000005</ele><time>2026-05-02T14:08:28.999Z</time></trkpt><trkpt lat="39.20096018194367" lon="8.591879699107734"><ele>332.4</ele><time>2026-05-02T14:08:30.999Z</time></trkpt><trkpt lat="39.201006239814" lon="8.591765984558029"><ele>332.6</ele><time>2026-05-02T14:08:32.999Z</time></trkpt><trkpt lat="39.20094850514611" lon="8.591642578607404"><ele>332.79999999999995</ele><time>2026-05-02T14:08:34.999Z</time></trkpt><trkpt lat="39.20089148099393" lon="8.591576470894097"><ele>333.0</ele><time>2026-05-02T14:08:35.999Z</time></trkpt><trkpt lat="39.20083231595875" lon="8.591508026233138"><ele>333.0</ele><time>2026-05-02T14:08:36.999Z</time></trkpt><trkpt lat="39.200779543416765" lon="8.591440607209503"><ele>333.0</ele><time>2026-05-02T14:08:37.999Z</time></trkpt><trkpt lat="39.20072564595879" lon="8.591374905766145"><ele>333.0</ele><time>2026-05-02T14:08:38.999Z</time></trkpt><trkpt lat="39.20061626550091" lon="8.591325121651197"><ele>333.0</ele><time>2026-05-02T14:08:40.999Z</time></trkpt><trkpt lat="39.2005551270133" lon="8.59135975184646"><ele>333.0</ele><time>2026-05-02T14:08:41.999Z</time></trkpt><trkpt lat="39.20050033428958" lon="8.591414578530102"><ele>333.0</ele><time>2026-05-02T14:08:42.999Z</time></trkpt><trkpt lat="39.20039333685765" lon="8.59147012904614"><ele>332.3333333333333</ele><time>2026-05-02T14:08:45Z</time></trkpt><trkpt lat="39.200275621337276" lon="8.59150411832911"><ele>331.6666666666667</ele><time>2026-05-02T14:08:47Z</time></trkpt><trkpt lat="39.200212672350375" lon="8.591512510593224"><ele>331.0</ele><time>2026-05-02T14:08:48Z</time></trkpt><trkpt lat="39.20014669980146" lon="8.591515200505926"><ele>330.33333333333337</ele><time>2026-05-02T14:08:49Z</time></trkpt><trkpt lat="39.20007472474148" lon="8.591516030775672"><ele>329.6666666666667</ele><time>2026-05-02T14:08:50Z</time></trkpt><trkpt lat="39.20000313937851" lon="8.591530773840457"><ele>329.0</ele><time>2026-05-02T14:08:51Z</time></trkpt><trkpt lat="39.19993175750342" lon="8.59156062792543"><ele>329.0</ele><time>2026-05-02T14:08:52Z</time></trkpt><trkpt lat="39.19984759096541" lon="8.591606889914829"><ele>329.0</ele><time>2026-05-02T14:08:53Z</time></trkpt><trkpt lat="39.19976650963022" lon="8.591653832924948"><ele>329.0</ele><time>2026-05-02T14:08:54Z</time></trkpt><trkpt lat="39.19969489572282" lon="8.59167816297989"><ele>329.0</ele><time>2026-05-02T14:08:55Z</time></trkpt><trkpt lat="39.19960103052446" lon="8.591695414124702"><ele>329.0</ele><time>2026-05-02T14:08:57Z</time></trkpt><trkpt lat="39.19952816215389" lon="8.591738427835926"><ele>329.0</ele><time>2026-05-02T14:08:59Z</time></trkpt><trkpt lat="39.19943914821589" lon="8.591799456158029"><ele>328.6666666666667</ele><time>2026-05-02T14:09:01Z</time></trkpt><trkpt lat="39.19937766538096" lon="8.591855028522192"><ele>328.33333333333337</ele><time>2026-05-02T14:09:03Z</time></trkpt><trkpt lat="39.19931840185115" lon="8.591903666703741"><ele>328.0</ele><time>2026-05-02T14:09:08Z</time></trkpt><trkpt lat="39.19926027506842" lon="8.591959460492632"><ele>327.6666666666667</ele><time>2026-05-02T14:09:11Z</time></trkpt><trkpt lat="39.19912217140174" lon="8.591950060184168"><ele>327.3333333333333</ele><time>2026-05-02T14:09:23Z</time></trkpt><trkpt lat="39.1990455609839" lon="8.591905472530991"><ele>327.0</ele><time>2026-05-02T14:09:25Z</time></trkpt><trkpt lat="39.198941525340985" lon="8.59196620656157"><ele>327.0</ele><time>2026-05-02T14:09:27Z</time></trkpt><trkpt lat="39.198895417698296" lon="8.592040171986111"><ele>327.0</ele><time>2026-05-02T14:09:28Z</time></trkpt><trkpt lat="39.1988477588493" lon="8.592106648657591"><ele>327.0</ele><time>2026-05-02T14:09:29Z</time></trkpt><trkpt lat="39.19878315248381" lon="8.592155012533418"><ele>327.0</ele><time>2026-05-02T14:09:30Z</time></trkpt><trkpt lat="39.19871896095688" lon="8.592222272959168"><ele>327.0</ele><time>2026-05-02T14:09:31Z</time></trkpt><trkpt lat="39.198669249474406" lon="8.592319629668772"><ele>327.0</ele><time>2026-05-02T14:09:32Z</time></trkpt><trkpt lat="39.198626802342766" lon="8.592407309756776"><ele>327.0</ele><time>2026-05-02T14:09:33Z</time></trkpt><trkpt lat="39.198589036698124" lon="8.592566442218859"><ele>327.0</ele><time>2026-05-02T14:09:35Z</time></trkpt><trkpt lat="39.198576113027876" lon="8.592649948260323"><ele>327.0</ele><time>2026-05-02T14:09:36Z</time></trkpt><trkpt lat="39.19854569965683" lon="8.592722290543584"><ele>327.0</ele><time>2026-05-02T14:09:37Z</time></trkpt><trkpt lat="39.19849729685696" lon="8.592789298788515"><ele>327.0</ele><time>2026-05-02T14:09:38Z</time></trkpt><trkpt lat="39.19843813069912" lon="8.592838708631126"><ele>327.0</ele><time>2026-05-02T14:09:39Z</time></trkpt><trkpt lat="39.19837985644657" lon="8.59289752841089"><ele>327.5</ele><time>2026-05-02T14:09:40Z</time></trkpt><trkpt lat="39.19833049556888" lon="8.592981773304151"><ele>328.0</ele><time>2026-05-02T14:09:41Z</time></trkpt><trkpt lat="39.19830003581454" lon="8.593069533273365"><ele>328.5</ele><time>2026-05-02T14:09:42Z</time></trkpt><trkpt lat="39.19827185971012" lon="8.593144238118558"><ele>329.0</ele><time>2026-05-02T14:09:43Z</time></trkpt><trkpt lat="39.19817169022303" lon="8.59323701801159"><ele>329.5</ele><time>2026-05-02T14:09:45Z</time></trkpt><trkpt lat="39.19809594122697" lon="8.593325248311432"><ele>330.0</ele><time>2026-05-02T14:09:47Z</time></trkpt><trkpt lat="39.19805854419192" lon="8.59347430779338"><ele>330.00000000000006</ele><time>2026-05-02T14:09:49Z</time></trkpt><trkpt lat="39.198045808083535" lon="8.593557980793392"><ele>330.0</ele><time>2026-05-02T14:09:50Z</time></trkpt><trkpt lat="39.198039396043534" lon="8.59364782356868"><ele>330.0</ele><time>2026-05-02T14:09:51Z</time></trkpt><trkpt lat="39.19802979640569" lon="8.593768202355003"><ele>330.0</ele><time>2026-05-02T14:09:53Z</time></trkpt><trkpt lat="39.19800595238997" lon="8.59386567311874"><ele>330.0</ele><time>2026-05-02T14:09:56Z</time></trkpt><trkpt lat="39.197987377687035" lon="8.593950394216376"><ele>330.00000000000006</ele><time>2026-05-02T14:10:01Z</time></trkpt><trkpt lat="39.19796615419754" lon="8.594037905061363"><ele>330.0</ele><time>2026-05-02T14:10:04Z</time></trkpt><trkpt lat="39.19791130432569" lon="8.594107144370929"><ele>331.4</ele><time>2026-05-02T14:13:57Z</time></trkpt><trkpt lat="39.197859758506176" lon="8.594178256163632"><ele>332.8</ele><time>2026-05-02T14:13:58.999Z</time></trkpt><trkpt lat="39.197783572172895" lon="8.5942594152041"><ele>334.20000000000005</ele><time>2026-05-02T14:14:00.999Z</time></trkpt><trkpt lat="39.1977291708247" lon="8.594361776714777"><ele>335.6</ele><time>2026-05-02T14:14:02.999Z</time></trkpt><trkpt lat="39.1976759944975" lon="8.59446123723423"><ele>337.0</ele><time>2026-05-02T14:14:04.999Z</time></trkpt><trkpt lat="39.19760752845831" lon="8.594566336254537"><ele>337.0</ele><time>2026-05-02T14:14:07.999Z</time></trkpt><trkpt lat="39.19753351662577" lon="8.594638305066015"><ele>337.0</ele><time>2026-05-02T14:14:09.999Z</time></trkpt><trkpt lat="39.197451694917234" lon="8.594705082030627"><ele>337.0</ele><time>2026-05-02T14:14:11.999Z</time></trkpt><trkpt lat="39.197380816128195" lon="8.594768931703642"><ele>337.0</ele><time>2026-05-02T14:14:13.999Z</time></trkpt><trkpt lat="39.19730754424654" lon="8.594830244212941"><ele>337.0</ele><time>2026-05-02T14:14:15.999Z</time></trkpt><trkpt lat="39.1972245853329" lon="8.594859811445989"><ele>337.0</ele><time>2026-05-02T14:14:17.999Z</time></trkpt><trkpt lat="39.19713659090591" lon="8.594848537534697"><ele>337.8</ele><time>2026-05-02T14:14:19.999Z</time></trkpt><trkpt lat="39.19705163401105" lon="8.59486432134473"><ele>338.6</ele><time>2026-05-02T14:14:21.999Z</time></trkpt><trkpt lat="39.19695172671911" lon="8.594891434881829"><ele>339.40000000000003</ele><time>2026-05-02T14:14:23.999Z</time></trkpt><trkpt lat="39.19684183161393" lon="8.594905070174786"><ele>340.20000000000005</ele><time>2026-05-02T14:14:25.999Z</time></trkpt><trkpt lat="39.196739665133904" lon="8.59491555339677"><ele>341.0</ele><time>2026-05-02T14:14:27.999Z</time></trkpt><trkpt lat="39.19665878180409" lon="8.594882388441068"><ele>341.0</ele><time>2026-05-02T14:14:29.999Z</time></trkpt><trkpt lat="39.19661246101136" lon="8.594809704698894"><ele>341.0</ele><time>2026-05-02T14:14:31.999Z</time></trkpt><trkpt lat="39.19655452780761" lon="8.594718963463048"><ele>341.0</ele><time>2026-05-02T14:14:33.999Z</time></trkpt><trkpt lat="39.19646902146477" lon="8.594649784261794"><ele>341.0</ele><time>2026-05-02T14:14:35.999Z</time></trkpt><trkpt lat="39.19636680510843" lon="8.5946411815124"><ele>341.0</ele><time>2026-05-02T14:14:37.999Z</time></trkpt><trkpt lat="39.19625338513088" lon="8.594573596980936"><ele>341.6</ele><time>2026-05-02T14:14:39.999Z</time></trkpt><trkpt lat="39.19620008311928" lon="8.594509594697385"><ele>342.20000000000005</ele><time>2026-05-02T14:14:40.999Z</time></trkpt><trkpt lat="39.19612749429867" lon="8.594422301782885"><ele>342.79999999999995</ele><time>2026-05-02T14:14:42.999Z</time></trkpt><trkpt lat="39.19603431339237" lon="8.594378804037989"><ele>343.4</ele><time>2026-05-02T14:14:44.999Z</time></trkpt><trkpt lat="39.19593551239462" lon="8.59438293418305"><ele>344.0</ele><time>2026-05-02T14:14:46.999Z</time></trkpt><trkpt lat="39.195858199870734" lon="8.594425181919535"><ele>344.2</ele><time>2026-05-02T14:14:48.999Z</time></trkpt><trkpt lat="39.19580268647041" lon="8.59453460575605"><ele>344.4</ele><time>2026-05-02T14:14:50.999Z</time></trkpt><trkpt lat="39.19575350376883" lon="8.594644773467447"><ele>344.6</ele><time>2026-05-02T14:14:52.999Z</time></trkpt><trkpt lat="39.195677106377794" lon="8.594717474258955"><ele>344.8</ele><time>2026-05-02T14:14:54.999Z</time></trkpt><trkpt lat="39.19558457033557" lon="8.594776266413929"><ele>345.0</ele><time>2026-05-02T14:14:56.999Z</time></trkpt><trkpt lat="39.19550348483674" lon="8.594863883133735"><ele>345.0</ele><time>2026-05-02T14:14:58.999Z</time></trkpt><trkpt lat="39.195434299620956" lon="8.594923481581462"><ele>345.0</ele><time>2026-05-02T14:15:00.999Z</time></trkpt><trkpt lat="39.195372761128" lon="8.595007658858831"><ele>345.0</ele><time>2026-05-02T14:15:03Z</time></trkpt><trkpt lat="39.19527690757594" lon="8.595124575997286"><ele>345.0</ele><time>2026-05-02T14:15:05Z</time></trkpt><trkpt lat="39.195230421224394" lon="8.595194762204232"><ele>345.0</ele><time>2026-05-02T14:15:06Z</time></trkpt><trkpt lat="39.195187437977665" lon="8.595260501661707"><ele>345.0</ele><time>2026-05-02T14:15:07Z</time></trkpt><trkpt lat="39.19513487606169" lon="8.595375778513812"><ele>345.0</ele><time>2026-05-02T14:15:09Z</time></trkpt><trkpt lat="39.19511223390788" lon="8.595520383797256"><ele>345.0</ele><time>2026-05-02T14:15:11Z</time></trkpt><trkpt lat="39.195059083421235" lon="8.59564519598579"><ele>345.0</ele><time>2026-05-02T14:15:13Z</time></trkpt><trkpt lat="39.195043212053406" lon="8.595766221870747"><ele>345.0</ele><time>2026-05-02T14:15:15Z</time></trkpt><trkpt lat="39.19503903089231" lon="8.595894749987606"><ele>345.0</ele><time>2026-05-02T14:15:17Z</time></trkpt><trkpt lat="39.19505542540142" lon="8.595979485548067"><ele>345.0</ele><time>2026-05-02T14:15:20Z</time></trkpt><trkpt lat="39.194970353556826" lon="8.596094270342128"><ele>345.0</ele><time>2026-05-02T14:15:47Z</time></trkpt><trkpt lat="39.19491930291972" lon="8.596152515630417"><ele>345.0</ele><time>2026-05-02T14:15:48Z</time></trkpt><trkpt lat="39.19485880405306" lon="8.596245095487442"><ele>345.0</ele><time>2026-05-02T14:15:50Z</time></trkpt><trkpt lat="39.194840176920124" lon="8.596338886319678"><ele>345.0</ele><time>2026-05-02T14:15:53Z</time></trkpt><trkpt lat="39.194755651674384" lon="8.596392099257118"><ele>343.14285714285717</ele><time>2026-05-02T14:15:56Z</time></trkpt><trkpt lat="39.19468398573125" lon="8.596424013752555"><ele>341.2857142857143</ele><time>2026-05-02T14:15:59Z</time></trkpt><trkpt lat="39.19461821035302" lon="8.59644367944344"><ele>339.42857142857144</ele><time>2026-05-02T14:16:01Z</time></trkpt><trkpt lat="39.19455583077023" lon="8.596468714760604"><ele>337.57142857142856</ele><time>2026-05-02T14:16:03Z</time></trkpt><trkpt lat="39.19448163776653" lon="8.59651232375273"><ele>335.7142857142857</ele><time>2026-05-02T14:16:05Z</time></trkpt><trkpt lat="39.194409627845076" lon="8.596557962616792"><ele>333.85714285714283</ele><time>2026-05-02T14:16:07Z</time></trkpt><trkpt lat="39.19433759887571" lon="8.596594145026476"><ele>332.0</ele><time>2026-05-02T14:16:09Z</time></trkpt><trkpt lat="39.194252745565414" lon="8.596622914134636"><ele>332.0</ele><time>2026-05-02T14:16:11Z</time></trkpt><trkpt lat="39.194176192298976" lon="8.596666014322379"><ele>332.0</ele><time>2026-05-02T14:16:13.999Z</time></trkpt><trkpt lat="39.19412186912473" lon="8.596741421334315"><ele>332.0</ele><time>2026-05-02T14:16:28.999Z</time></trkpt><trkpt lat="39.19415742383785" lon="8.596832025780023"><ele>332.0</ele><time>2026-05-02T14:16:30.999Z</time></trkpt><trkpt lat="39.19421713024989" lon="8.59691572448549"><ele>332.0</ele><time>2026-05-02T14:16:32.999Z</time></trkpt><trkpt lat="39.19426063575212" lon="8.597019312028076"><ele>332.0</ele><time>2026-05-02T14:16:34.999Z</time></trkpt><trkpt lat="39.194308869120945" lon="8.597146720194253"><ele>330.4285714285714</ele><time>2026-05-02T14:16:36.999Z</time></trkpt><trkpt lat="39.19434513801255" lon="8.597214349625206"><ele>328.8571428571429</ele><time>2026-05-02T14:16:37.999Z</time></trkpt><trkpt lat="39.1943888248073" lon="8.597278497670104"><ele>327.2857142857143</ele><time>2026-05-02T14:16:38.999Z</time></trkpt><trkpt lat="39.194434712894456" lon="8.597334659124694"><ele>325.71428571428567</ele><time>2026-05-02T14:16:39.999Z</time></trkpt><trkpt lat="39.194485194407164" lon="8.597394032948236"><ele>324.1428571428571</ele><time>2026-05-02T14:16:40.999Z</time></trkpt><trkpt lat="39.194542477757714" lon="8.597456818581348"><ele>322.57142857142856</ele><time>2026-05-02T14:16:41.999Z</time></trkpt><trkpt lat="39.19459431015388" lon="8.597525302965831"><ele>321.0</ele><time>2026-05-02T14:16:42.999Z</time></trkpt><trkpt lat="39.194641538882685" lon="8.597595080593928"><ele>321.0</ele><time>2026-05-02T14:16:43.999Z</time></trkpt><trkpt lat="39.19468793684974" lon="8.597660873928922"><ele>321.0</ele><time>2026-05-02T14:16:44.999Z</time></trkpt><trkpt lat="39.19472916995637" lon="8.597728884125543"><ele>321.0</ele><time>2026-05-02T14:16:45.999Z</time></trkpt><trkpt lat="39.19476008135775" lon="8.597800271039791"><ele>321.0</ele><time>2026-05-02T14:16:46.999Z</time></trkpt><trkpt lat="39.19479662442129" lon="8.597943271742487"><ele>321.0</ele><time>2026-05-02T14:16:48.999Z</time></trkpt><trkpt lat="39.19480617577415" lon="8.5980594996995"><ele>321.0</ele><time>2026-05-02T14:16:50.999Z</time></trkpt><trkpt lat="39.19481887728699" lon="8.598178462117867"><ele>319.3333333333333</ele><time>2026-05-02T14:16:52.999Z</time></trkpt><trkpt lat="39.19482898297416" lon="8.598287056933104"><ele>317.6666666666667</ele><time>2026-05-02T14:16:54.999Z</time></trkpt><trkpt lat="39.194831694767096" lon="8.598399755419152"><ele>316.0</ele><time>2026-05-02T14:16:56.999Z</time></trkpt><trkpt lat="39.194823652267424" lon="8.598509069380562"><ele>314.33333333333337</ele><time>2026-05-02T14:16:58.999Z</time></trkpt><trkpt lat="39.19481422960581" lon="8.598622873084768"><ele>312.6666666666667</ele><time>2026-05-02T14:17:00.999Z</time></trkpt><trkpt lat="39.19483792897605" lon="8.598752506820269"><ele>311.0</ele><time>2026-05-02T14:17:02.999Z</time></trkpt><trkpt lat="39.194865120189746" lon="8.598904481352251"><ele>307.0</ele><time>2026-05-02T14:17:04.999Z</time></trkpt><trkpt lat="39.19487110508804" lon="8.599041761783432"><ele>303.0</ele><time>2026-05-02T14:17:07Z</time></trkpt><trkpt lat="39.194866714895745" lon="8.599130079789912"><ele>299.0</ele><time>2026-05-02T14:17:08Z</time></trkpt><trkpt lat="39.19486895424926" lon="8.5992225225832"><ele>295.0</ele><time>2026-05-02T14:17:09Z</time></trkpt><trkpt lat="39.19487459885307" lon="8.599326848417318"><ele>291.0</ele><time>2026-05-02T14:17:10Z</time></trkpt><trkpt lat="39.19488385925753" lon="8.599423330133403"><ele>287.0</ele><time>2026-05-02T14:17:11Z</time></trkpt><trkpt lat="39.19489539488613" lon="8.599509189739265"><ele>284.0</ele><time>2026-05-02T14:17:12Z</time></trkpt><trkpt lat="39.19491166192612" lon="8.599652906196729"><ele>281.0</ele><time>2026-05-02T14:17:14Z</time></trkpt><trkpt lat="39.19491856085909" lon="8.599766940170552"><ele>278.0</ele><time>2026-05-02T14:17:16Z</time></trkpt><trkpt lat="39.19493116805046" lon="8.599864146268251"><ele>275.0</ele><time>2026-05-02T14:17:18Z</time></trkpt><trkpt lat="39.19496099224179" lon="8.599948206846197"><ele>272.0</ele><time>2026-05-02T14:17:20Z</time></trkpt><trkpt lat="39.1949960401908" lon="8.60003904180941"><ele>269.0</ele><time>2026-05-02T14:17:22Z</time></trkpt><trkpt lat="39.19503763178516" lon="8.600117946251823"><ele>269.0</ele><time>2026-05-02T14:17:25Z</time></trkpt><trkpt lat="39.195085196098326" lon="8.600211474146077"><ele>269.0</ele><time>2026-05-02T14:17:28Z</time></trkpt><trkpt lat="39.195131378242344" lon="8.600269936414971"><ele>269.0</ele><time>2026-05-02T14:17:30Z</time></trkpt><trkpt lat="39.19516140159991" lon="8.600371568654754"><ele>269.0</ele><time>2026-05-02T14:17:33Z</time></trkpt><trkpt lat="39.195167063626414" lon="8.600462764577877"><ele>269.0</ele><time>2026-05-02T14:17:36Z</time></trkpt><trkpt lat="39.19516575580465" lon="8.600573471922345"><ele>269.0</ele><time>2026-05-02T14:17:39Z</time></trkpt><trkpt lat="39.195157850491775" lon="8.600690731255943"><ele>266.2</ele><time>2026-05-02T14:17:42Z</time></trkpt><trkpt lat="39.19515586075153" lon="8.600773154640326"><ele>263.4</ele><time>2026-05-02T14:18:01Z</time></trkpt><trkpt lat="39.1951075306961" lon="8.600856865520532"><ele>260.6</ele><time>2026-05-02T14:18:04Z</time></trkpt><trkpt lat="39.195003038987636" lon="8.600925210025274"><ele>257.8</ele><time>2026-05-02T14:18:06Z</time></trkpt><trkpt lat="39.19490557430722" lon="8.60100615076587"><ele>255.0</ele><time>2026-05-02T14:18:08Z</time></trkpt><trkpt lat="39.194819433827334" lon="8.601048576951698"><ele>255.0</ele><time>2026-05-02T14:18:10Z</time></trkpt><trkpt lat="39.19474221834049" lon="8.601033679493721"><ele>255.0</ele><time>2026-05-02T14:18:12Z</time></trkpt><trkpt lat="39.19462493242133" lon="8.601034269356452"><ele>255.0</ele><time>2026-05-02T14:18:14Z</time></trkpt><trkpt lat="39.19452110156723" lon="8.601047102543163"><ele>255.0</ele><time>2026-05-02T14:18:15Z</time></trkpt><trkpt lat="39.19443127082062" lon="8.60104417338562"><ele>255.0</ele><time>2026-05-02T14:18:16Z</time></trkpt><trkpt lat="39.194313063474716" lon="8.601040291185818"><ele>255.0</ele><time>2026-05-02T14:18:18Z</time></trkpt><trkpt lat="39.19418799669759" lon="8.601097149811745"><ele>255.0</ele><time>2026-05-02T14:18:20Z</time></trkpt><trkpt lat="39.19412354492294" lon="8.60113195441638"><ele>255.0</ele><time>2026-05-02T14:18:21Z</time></trkpt><trkpt lat="39.194061833178225" lon="8.601180008171044"><ele>255.0</ele><time>2026-05-02T14:18:22Z</time></trkpt><trkpt lat="39.19400024599217" lon="8.601238032806524"><ele>255.0</ele><time>2026-05-02T14:18:23Z</time></trkpt><trkpt lat="39.19394141291043" lon="8.601289463876899"><ele>255.0</ele><time>2026-05-02T14:18:24Z</time></trkpt><trkpt lat="39.19383964550025" lon="8.601347068690222"><ele>253.0</ele><time>2026-05-02T14:18:25.999Z</time></trkpt><trkpt lat="39.19377438058579" lon="8.60145555415338"><ele>251.0</ele><time>2026-05-02T14:18:27.999Z</time></trkpt><trkpt lat="39.19367770952629" lon="8.601532297088417"><ele>249.0</ele><time>2026-05-02T14:18:29.999Z</time></trkpt><trkpt lat="39.193562504813514" lon="8.601563615045563"><ele>247.0</ele><time>2026-05-02T14:18:31.999Z</time></trkpt><trkpt lat="39.19344281052287" lon="8.601596278775217"><ele>246.99999999999997</ele><time>2026-05-02T14:18:33.999Z</time></trkpt><trkpt lat="39.193383722942784" lon="8.601633717442931"><ele>247.0</ele><time>2026-05-02T14:18:34.999Z</time></trkpt><trkpt lat="39.19332525705225" lon="8.601675993230794"><ele>247.0</ele><time>2026-05-02T14:18:35.999Z</time></trkpt><trkpt lat="39.19326494749722" lon="8.60171820319776"><ele>247.0</ele><time>2026-05-02T14:18:36.999Z</time></trkpt><trkpt lat="39.19319860957783" lon="8.601752916492728"><ele>246.99999999999997</ele><time>2026-05-02T14:18:37.999Z</time></trkpt><trkpt lat="39.19309055727948" lon="8.601815207372791"><ele>247.0</ele><time>2026-05-02T14:18:39.999Z</time></trkpt><trkpt lat="39.192984343190446" lon="8.601921830796194"><ele>246.83333333333331</ele><time>2026-05-02T14:18:41.999Z</time></trkpt><trkpt lat="39.19291230367022" lon="8.601979931584138"><ele>246.66666666666666</ele><time>2026-05-02T14:18:42.999Z</time></trkpt><trkpt lat="39.19285043105517" lon="8.602018767868326"><ele>246.5</ele><time>2026-05-02T14:18:43.999Z</time></trkpt><trkpt lat="39.19273346926747" lon="8.602016815610364"><ele>246.33333333333331</ele><time>2026-05-02T14:18:45.999Z</time></trkpt><trkpt lat="39.19265568341174" lon="8.60198983094566"><ele>246.16666666666666</ele><time>2026-05-02T14:18:46.999Z</time></trkpt><trkpt lat="39.192591327970014" lon="8.60195086376465"><ele>246.0</ele><time>2026-05-02T14:18:47.999Z</time></trkpt><trkpt lat="39.19253005195045" lon="8.601918706228554"><ele>246.0</ele><time>2026-05-02T14:18:48.999Z</time></trkpt><trkpt lat="39.19243742318258" lon="8.601950658611178"><ele>246.0</ele><time>2026-05-02T14:18:50.999Z</time></trkpt><trkpt lat="39.19235054011081" lon="8.602024974638343"><ele>246.0</ele><time>2026-05-02T14:18:52.999Z</time></trkpt><trkpt lat="39.19228017766264" lon="8.6020331150732"><ele>246.0</ele><time>2026-05-02T14:18:53.999Z</time></trkpt><trkpt lat="39.19221626645158" lon="8.602047655741877"><ele>246.0</ele><time>2026-05-02T14:18:54.999Z</time></trkpt><trkpt lat="39.19214391194451" lon="8.602065352934515"><ele>246.0</ele><time>2026-05-02T14:18:55.999Z</time></trkpt><trkpt lat="39.19207950796853" lon="8.60206117519215"><ele>243.8</ele><time>2026-05-02T14:18:56.999Z</time></trkpt><trkpt lat="39.19196685260001" lon="8.602071737233553"><ele>241.60000000000002</ele><time>2026-05-02T14:18:58.999Z</time></trkpt><trkpt lat="39.19187312403714" lon="8.602127213744371"><ele>239.4</ele><time>2026-05-02T14:19:00.999Z</time></trkpt><trkpt lat="39.19180471515391" lon="8.602175988602454"><ele>237.2</ele><time>2026-05-02T14:19:07.999Z</time></trkpt><trkpt lat="39.191680352220416" lon="8.602286651985578"><ele>235.0</ele><time>2026-05-02T14:19:09.999Z</time></trkpt><trkpt lat="39.19162004395939" lon="8.602330065959915"><ele>234.99999999999997</ele><time>2026-05-02T14:19:10.999Z</time></trkpt><trkpt lat="39.19152579784316" lon="8.602287455301697"><ele>235.0</ele><time>2026-05-02T14:19:13Z</time></trkpt><trkpt lat="39.1914516762256" lon="8.602315082799603"><ele>235.0</ele><time>2026-05-02T14:19:14Z</time></trkpt><trkpt lat="39.19135738208726" lon="8.602297500921074"><ele>235.0</ele><time>2026-05-02T14:19:16Z</time></trkpt><trkpt lat="39.19131733480457" lon="8.60219543325944"><ele>234.99999999999997</ele><time>2026-05-02T14:19:18Z</time></trkpt><trkpt lat="39.19127123017658" lon="8.602137815693155"><ele>235.0</ele><time>2026-05-02T14:19:19Z</time></trkpt><trkpt lat="39.19117974245344" lon="8.602050893655369"><ele>233.4</ele><time>2026-05-02T14:19:21Z</time></trkpt><trkpt lat="39.19108755317693" lon="8.601960924240887"><ele>231.8</ele><time>2026-05-02T14:19:23Z</time></trkpt><trkpt lat="39.19098501280667" lon="8.601855123574103"><ele>230.2</ele><time>2026-05-02T14:19:25Z</time></trkpt><trkpt lat="39.190910835012424" lon="8.60178931613084"><ele>228.6</ele><time>2026-05-02T14:19:26Z</time></trkpt><trkpt lat="39.1908494437511" lon="8.601750292103965"><ele>227.0</ele><time>2026-05-02T14:19:27Z</time></trkpt><trkpt lat="39.190780881293136" lon="8.601726845192772"><ele>225.8</ele><time>2026-05-02T14:19:28Z</time></trkpt><trkpt lat="39.190665069581996" lon="8.601702574317924"><ele>224.6</ele><time>2026-05-02T14:19:30Z</time></trkpt><trkpt lat="39.190580394301705" lon="8.601733158970923"><ele>223.40000000000003</ele><time>2026-05-02T14:19:32Z</time></trkpt><trkpt lat="39.1904960269466" lon="8.601813144330736"><ele>222.20000000000002</ele><time>2026-05-02T14:19:34Z</time></trkpt><trkpt lat="39.19040637802089" lon="8.601910961700867"><ele>221.0</ele><time>2026-05-02T14:19:36Z</time></trkpt><trkpt lat="39.190327944817646" lon="8.601986715089211"><ele>221.00000000000003</ele><time>2026-05-02T14:19:38Z</time></trkpt><trkpt lat="39.19023388843965" lon="8.602024421928316"><ele>221.0</ele><time>2026-05-02T14:19:40Z</time></trkpt><trkpt lat="39.19016506168102" lon="8.602009299998485"><ele>221.0</ele><time>2026-05-02T14:19:41Z</time></trkpt><trkpt lat="39.190098614621334" lon="8.601978378026082"><ele>221.0</ele><time>2026-05-02T14:19:42Z</time></trkpt><trkpt lat="39.19003484688069" lon="8.601926249346098"><ele>221.00000000000003</ele><time>2026-05-02T14:19:43Z</time></trkpt><trkpt lat="39.189972377058375" lon="8.601859025509063"><ele>221.0</ele><time>2026-05-02T14:19:44Z</time></trkpt><trkpt lat="39.18990566502529" lon="8.601809785569305"><ele>220.50000000000003</ele><time>2026-05-02T14:19:45Z</time></trkpt><trkpt lat="39.18983835056066" lon="8.60179791949276"><ele>220.0</ele><time>2026-05-02T14:19:46Z</time></trkpt><trkpt lat="39.18977034205643" lon="8.601797901165561"><ele>219.5</ele><time>2026-05-02T14:19:47Z</time></trkpt><trkpt lat="39.18968864372618" lon="8.601801650671034"><ele>219.0</ele><time>2026-05-02T14:19:48Z</time></trkpt><trkpt lat="39.189595726637464" lon="8.601783592174296"><ele>218.50000000000003</ele><time>2026-05-02T14:19:49Z</time></trkpt><trkpt lat="39.189514797845796" lon="8.601791716765177"><ele>218.0</ele><time>2026-05-02T14:19:50Z</time></trkpt><trkpt lat="39.18943762234887" lon="8.601806653271385"><ele>218.0</ele><time>2026-05-02T14:19:51Z</time></trkpt><trkpt lat="39.18934820783479" lon="8.601801936401756"><ele>218.0</ele><time>2026-05-02T14:19:52Z</time></trkpt><trkpt lat="39.18924166792501" lon="8.601785540411687"><ele>218.0</ele><time>2026-05-02T14:19:53Z</time></trkpt><trkpt lat="39.18914183573986" lon="8.601776073402814"><ele>218.0</ele><time>2026-05-02T14:19:54Z</time></trkpt><trkpt lat="39.189051795236544" lon="8.60178666771317"><ele>218.0</ele><time>2026-05-02T14:19:55Z</time></trkpt><trkpt lat="39.18895921465165" lon="8.601803006918745"><ele>219.00000000000003</ele><time>2026-05-02T14:19:56Z</time></trkpt><trkpt lat="39.18887357288726" lon="8.601823002832258"><ele>220.0</ele><time>2026-05-02T14:19:57Z</time></trkpt><trkpt lat="39.18879339876492" lon="8.601845757357246"><ele>221.0</ele><time>2026-05-02T14:19:58Z</time></trkpt><trkpt lat="39.18870301155762" lon="8.601865527408881"><ele>222.0</ele><time>2026-05-02T14:19:59Z</time></trkpt><trkpt lat="39.18862642446723" lon="8.601905275831063"><ele>223.00000000000003</ele><time>2026-05-02T14:20:00Z</time></trkpt><trkpt lat="39.188564707414045" lon="8.601957753609753"><ele>224.0</ele><time>2026-05-02T14:20:01Z</time></trkpt><trkpt lat="39.18849791634833" lon="8.602031067672748"><ele>220.39999999999998</ele><time>2026-05-02T14:20:03Z</time></trkpt><trkpt lat="39.18849595194495" lon="8.602127776578854"><ele>216.79999999999998</ele><time>2026-05-02T14:20:06Z</time></trkpt><trkpt lat="39.18856336398924" lon="8.602254877674735"><ele>213.2</ele><time>2026-05-02T14:20:09Z</time></trkpt><trkpt lat="39.18859100445134" lon="8.6023836138425"><ele>209.60000000000002</ele><time>2026-05-02T14:20:11Z</time></trkpt><trkpt lat="39.18858200036633" lon="8.602468981107188"><ele>206.0</ele><time>2026-05-02T14:20:12Z</time></trkpt><trkpt lat="39.18851472588969" lon="8.602577327628834"><ele>206.0</ele><time>2026-05-02T14:20:14Z</time></trkpt><trkpt lat="39.18843600552082" lon="8.602653144607334"><ele>206.0</ele><time>2026-05-02T14:20:16Z</time></trkpt><trkpt lat="39.18838818042494" lon="8.602707925233423"><ele>206.0</ele><time>2026-05-02T14:20:17Z</time></trkpt><trkpt lat="39.188291150712445" lon="8.602764788707299"><ele>206.0</ele><time>2026-05-02T14:20:19Z</time></trkpt><trkpt lat="39.18817560383073" lon="8.602869305931305"><ele>206.0</ele><time>2026-05-02T14:20:21Z</time></trkpt><trkpt lat="39.1881083695745" lon="8.602939680518228"><ele>204.83333333333334</ele><time>2026-05-02T14:20:22Z</time></trkpt><trkpt lat="39.18805193632672" lon="8.602982099189806"><ele>203.66666666666669</ele><time>2026-05-02T14:20:23Z</time></trkpt><trkpt lat="39.18799224748815" lon="8.603008310133484"><ele>202.5</ele><time>2026-05-02T14:20:24Z</time></trkpt><trkpt lat="39.18787246782025" lon="8.60305739552564"><ele>201.33333333333331</ele><time>2026-05-02T14:20:26Z</time></trkpt><trkpt lat="39.187809884951996" lon="8.603076210193304"><ele>200.16666666666666</ele><time>2026-05-02T14:20:27Z</time></trkpt><trkpt lat="39.187741333440506" lon="8.603090606927395"><ele>199.0</ele><time>2026-05-02T14:20:28Z</time></trkpt><trkpt lat="39.18767229594565" lon="8.603093100443866"><ele>198.99999999999997</ele><time>2026-05-02T14:20:29Z</time></trkpt><trkpt lat="39.18761170256961" lon="8.603117838299772"><ele>199.0</ele><time>2026-05-02T14:20:30Z</time></trkpt><trkpt lat="39.18754944910876" lon="8.603159706776689"><ele>199.0</ele><time>2026-05-02T14:20:31Z</time></trkpt><trkpt lat="39.187484627294204" lon="8.603201490616318"><ele>199.0</ele><time>2026-05-02T14:20:32Z</time></trkpt><trkpt lat="39.18741277761627" lon="8.603227695671"><ele>199.0</ele><time>2026-05-02T14:20:32.999Z</time></trkpt><trkpt lat="39.187347371500906" lon="8.60325066048007"><ele>198.99999999999997</ele><time>2026-05-02T14:20:33.999Z</time></trkpt><trkpt lat="39.187269967712716" lon="8.603279266133462"><ele>199.0</ele><time>2026-05-02T14:20:34.999Z</time></trkpt><trkpt lat="39.187200160007706" lon="8.60329402742119"><ele>197.33333333333331</ele><time>2026-05-02T14:20:35.999Z</time></trkpt><trkpt lat="39.18713354776425" lon="8.603311063121772"><ele>195.66666666666666</ele><time>2026-05-02T14:20:36.999Z</time></trkpt><trkpt lat="39.18706718880669" lon="8.603326747577942"><ele>194.0</ele><time>2026-05-02T14:20:38.999Z</time></trkpt><trkpt lat="39.18697453201974" lon="8.603295689819658"><ele>192.33333333333331</ele><time>2026-05-02T14:20:53.999Z</time></trkpt><trkpt lat="39.186881112695005" lon="8.60327173860226"><ele>190.66666666666666</ele><time>2026-05-02T14:20:55.999Z</time></trkpt><trkpt lat="39.18681813842957" lon="8.60327586169403"><ele>189.0</ele><time>2026-05-02T14:20:56.999Z</time></trkpt><trkpt lat="39.186751799616545" lon="8.603292576989103"><ele>189.0</ele><time>2026-05-02T14:20:57.999Z</time></trkpt><trkpt lat="39.18667856710616" lon="8.603287115464411"><ele>189.0</ele><time>2026-05-02T14:20:59.999Z</time></trkpt><trkpt lat="39.18657481343116" lon="8.603241865809496"><ele>189.0</ele><time>2026-05-02T14:21:01.999Z</time></trkpt><trkpt lat="39.18646877283235" lon="8.603257996905665"><ele>189.0</ele><time>2026-05-02T14:21:03.999Z</time></trkpt><trkpt lat="39.18638462526592" lon="8.603282683395417"><ele>189.0</ele><time>2026-05-02T14:21:05.999Z</time></trkpt><trkpt lat="39.1862936008409" lon="8.603331159298694"><ele>187.79999999999998</ele><time>2026-05-02T14:21:07.999Z</time></trkpt><trkpt lat="39.18622593115928" lon="8.603356829127282"><ele>186.6</ele><time>2026-05-02T14:21:09.999Z</time></trkpt><trkpt lat="39.186139796104776" lon="8.603384056198237"><ele>185.4</ele><time>2026-05-02T14:21:11.999Z</time></trkpt><trkpt lat="39.18603354179786" lon="8.603394519586727"><ele>184.2</ele><time>2026-05-02T14:21:13.999Z</time></trkpt><trkpt lat="39.185940134123435" lon="8.603353492933632"><ele>183.0</ele><time>2026-05-02T14:21:15.999Z</time></trkpt><trkpt lat="39.185870695214355" lon="8.603262469217098"><ele>183.0</ele><time>2026-05-02T14:21:17.999Z</time></trkpt><trkpt lat="39.18582368239493" lon="8.603122265600025"><ele>183.0</ele><time>2026-05-02T14:21:20Z</time></trkpt><trkpt lat="39.185796294454036" lon="8.602962527268165"><ele>183.0</ele><time>2026-05-02T14:21:22Z</time></trkpt><trkpt lat="39.18578518393559" lon="8.602826317184608"><ele>183.0</ele><time>2026-05-02T14:21:23Z</time></trkpt><trkpt lat="39.185779874473425" lon="8.602707719972365"><ele>183.0</ele><time>2026-05-02T14:21:24Z</time></trkpt><trkpt lat="39.185769985459096" lon="8.602613230608283"><ele>183.2</ele><time>2026-05-02T14:21:25Z</time></trkpt><trkpt lat="39.185738003504056" lon="8.602495659579178"><ele>183.4</ele><time>2026-05-02T14:21:27Z</time></trkpt><trkpt lat="39.18575641135348" lon="8.602366857888422"><ele>183.6</ele><time>2026-05-02T14:21:29Z</time></trkpt><trkpt lat="39.18581282151066" lon="8.602214774272447"><ele>183.79999999999998</ele><time>2026-05-02T14:21:31Z</time></trkpt><trkpt lat="39.185857675212276" lon="8.60210242887429"><ele>184.0</ele><time>2026-05-02T14:21:32Z</time></trkpt><trkpt lat="39.185886373420935" lon="8.602011818557978"><ele>184.16666666666669</ele><time>2026-05-02T14:21:33Z</time></trkpt><trkpt lat="39.18587815210629" lon="8.601925186787417"><ele>184.33333333333334</ele><time>2026-05-02T14:21:34Z</time></trkpt><trkpt lat="39.185855375448725" lon="8.601834990190968"><ele>184.5</ele><time>2026-05-02T14:21:35Z</time></trkpt><trkpt lat="39.185827856656" lon="8.601744442599951"><ele>184.66666666666666</ele><time>2026-05-02T14:21:36Z</time></trkpt><trkpt lat="39.18575035699421" lon="8.601703312546384"><ele>184.83333333333331</ele><time>2026-05-02T14:21:38Z</time></trkpt><trkpt lat="39.18568419425546" lon="8.601771163938944"><ele>185.0</ele><time>2026-05-02T14:21:40Z</time></trkpt><trkpt lat="39.18561200256673" lon="8.601857914446162"><ele>182.2</ele><time>2026-05-02T14:21:42Z</time></trkpt><trkpt lat="39.18550921416785" lon="8.60190755468577"><ele>179.4</ele><time>2026-05-02T14:21:44Z</time></trkpt><trkpt lat="39.185417092473024" lon="8.601904142725253"><ele>176.60000000000002</ele><time>2026-05-02T14:21:46Z</time></trkpt><trkpt lat="39.18531001008231" lon="8.601921773257226"><ele>173.8</ele><time>2026-05-02T14:30:41Z</time></trkpt><trkpt lat="39.18524487520913" lon="8.601878842222876"><ele>171.0</ele><time>2026-05-02T14:30:43Z</time></trkpt><trkpt lat="39.18512986066285" lon="8.60179382212938"><ele>171.0</ele><time>2026-05-02T14:30:45Z</time></trkpt><trkpt lat="39.185062718952224" lon="8.601763433279668"><ele>171.0</ele><time>2026-05-02T14:30:46Z</time></trkpt><trkpt lat="39.184952491950206" lon="8.601756796317215"><ele>171.0</ele><time>2026-05-02T14:30:48Z</time></trkpt><trkpt lat="39.18484630686509" lon="8.601718381987673"><ele>171.0</ele><time>2026-05-02T14:30:50Z</time></trkpt><trkpt lat="39.18478886038502" lon="8.601655826768537"><ele>171.0</ele><time>2026-05-02T14:30:51Z</time></trkpt><trkpt lat="39.18472940973539" lon="8.60157920876003"><ele>172.0</ele><time>2026-05-02T14:30:52Z</time></trkpt><trkpt lat="39.184657939113606" lon="8.60149275673511"><ele>173.0</ele><time>2026-05-02T14:30:52.999Z</time></trkpt><trkpt lat="39.18459437008402" lon="8.601421324303315"><ele>174.0</ele><time>2026-05-02T14:30:53.999Z</time></trkpt><trkpt lat="39.18453645973866" lon="8.601353083089746"><ele>175.0</ele><time>2026-05-02T14:30:54.999Z</time></trkpt><trkpt lat="39.184484206052765" lon="8.601291761764386"><ele>176.0</ele><time>2026-05-02T14:30:55.999Z</time></trkpt><trkpt lat="39.184397783157536" lon="8.601177367740664"><ele>174.25</ele><time>2026-05-02T14:30:57.999Z</time></trkpt><trkpt lat="39.18431232046396" lon="8.60107042357819"><ele>172.5</ele><time>2026-05-02T14:30:59.999Z</time></trkpt><trkpt lat="39.18424281574162" lon="8.600957015699796"><ele>170.75</ele><time>2026-05-02T14:31:01.999Z</time></trkpt><trkpt lat="39.18413862854256" lon="8.600910508049981"><ele>169.0</ele><time>2026-05-02T14:31:03.999Z</time></trkpt><trkpt lat="39.184027529927924" lon="8.600922287233423"><ele>166.39999999999998</ele><time>2026-05-02T14:31:05.999Z</time></trkpt><trkpt lat="39.18395091376126" lon="8.600879983014176"><ele>163.79999999999998</ele><time>2026-05-02T14:31:07.999Z</time></trkpt><trkpt lat="39.18388437485523" lon="8.600829261930976"><ele>161.2</ele><time>2026-05-02T14:31:09.999Z</time></trkpt><trkpt lat="39.18380025382944" lon="8.600811944220828"><ele>158.6</ele><time>2026-05-02T14:31:52Z</time></trkpt><trkpt lat="39.1836686080132" lon="8.600807876950427"><ele>156.0</ele><time>2026-05-02T14:31:54Z</time></trkpt><trkpt lat="39.18358296985891" lon="8.600815169836213"><ele>156.0</ele><time>2026-05-02T14:31:55Z</time></trkpt><trkpt lat="39.18349831397684" lon="8.600875784105195"><ele>156.0</ele><time>2026-05-02T14:31:57Z</time></trkpt><trkpt lat="39.18343743717939" lon="8.601021516709405"><ele>156.0</ele><time>2026-05-02T14:31:59Z</time></trkpt><trkpt lat="39.1833809026954" lon="8.601073455013998"><ele>156.0</ele><time>2026-05-02T14:32:00Z</time></trkpt><trkpt lat="39.1832955020818" lon="8.601054725770053"><ele>156.0</ele><time>2026-05-02T14:32:02Z</time></trkpt><trkpt lat="39.18322980035336" lon="8.601017601810176"><ele>156.66666666666666</ele><time>2026-05-02T14:32:03Z</time></trkpt><trkpt lat="39.18316323904684" lon="8.600960183390898"><ele>157.33333333333334</ele><time>2026-05-02T14:32:04Z</time></trkpt><trkpt lat="39.18310133720067" lon="8.600894630444385"><ele>158.0</ele><time>2026-05-02T14:32:05Z</time></trkpt><trkpt lat="39.18304821340153" lon="8.60083199912321"><ele>158.66666666666669</ele><time>2026-05-02T14:32:06Z</time></trkpt><trkpt lat="39.182994393718424" lon="8.600763673127306"><ele>159.33333333333334</ele><time>2026-05-02T14:32:07Z</time></trkpt><trkpt lat="39.18293824628872" lon="8.60068824846655"><ele>160.0</ele><time>2026-05-02T14:32:08Z</time></trkpt><trkpt lat="39.18287817923236" lon="8.600597225561957"><ele>160.0</ele><time>2026-05-02T14:32:09Z</time></trkpt><trkpt lat="39.18283147146869" lon="8.600497016934948"><ele>160.0</ele><time>2026-05-02T14:32:10Z</time></trkpt><trkpt lat="39.182785737406256" lon="8.600407265756628"><ele>160.0</ele><time>2026-05-02T14:32:11Z</time></trkpt><trkpt lat="39.18273236082433" lon="8.600320402240985"><ele>160.0</ele><time>2026-05-02T14:32:12Z</time></trkpt><trkpt lat="39.1826719285495" lon="8.600245819995143"><ele>160.0</ele><time>2026-05-02T14:32:13Z</time></trkpt><trkpt lat="39.18260086727898" lon="8.60016964730727"><ele>160.0</ele><time>2026-05-02T14:32:14Z</time></trkpt><trkpt lat="39.18253664230555" lon="8.600098120637721"><ele>158.42857142857142</ele><time>2026-05-02T14:32:15Z</time></trkpt><trkpt lat="39.182468559174644" lon="8.600049577805787"><ele>156.85714285714286</ele><time>2026-05-02T14:32:16Z</time></trkpt><trkpt lat="39.18240386174758" lon="8.600017663301962"><ele>155.28571428571428</ele><time>2026-05-02T14:32:17Z</time></trkpt><trkpt lat="39.1823364950563" lon="8.600005206566868"><ele>153.71428571428572</ele><time>2026-05-02T14:32:18Z</time></trkpt><trkpt lat="39.182267214136004" lon="8.600020934862581"><ele>152.14285714285714</ele><time>2026-05-02T14:32:19Z</time></trkpt><trkpt lat="39.18219696120244" lon="8.600049633475209"><ele>150.57142857142856</ele><time>2026-05-02T14:32:20Z</time></trkpt><trkpt lat="39.182116136292414" lon="8.600048683742022"><ele>149.0</ele><time>2026-05-02T14:32:21Z</time></trkpt><trkpt lat="39.18203655304899" lon="8.600010766449826"><ele>148.2</ele><time>2026-05-02T14:32:22Z</time></trkpt><trkpt lat="39.18194802143439" lon="8.599948486362852"><ele>147.4</ele><time>2026-05-02T14:32:23Z</time></trkpt><trkpt lat="39.181853380588095" lon="8.599923463183023"><ele>146.6</ele><time>2026-05-02T14:32:24Z</time></trkpt><trkpt lat="39.18175551993311" lon="8.599933509639776"><ele>145.8</ele><time>2026-05-02T14:32:25Z</time></trkpt><trkpt lat="39.1816592421554" lon="8.599941020445835"><ele>145.0</ele><time>2026-05-02T14:32:26Z</time></trkpt><trkpt lat="39.181560670951114" lon="8.599937462280517"><ele>145.33333333333334</ele><time>2026-05-02T14:32:27Z</time></trkpt><trkpt lat="39.181477327830535" lon="8.599938720114137"><ele>145.66666666666669</ele><time>2026-05-02T14:32:28Z</time></trkpt><trkpt lat="39.18140288034556" lon="8.599933315843035"><ele>146.0</ele><time>2026-05-02T14:32:29Z</time></trkpt><trkpt lat="39.18133060810848" lon="8.59991986837355"><ele>146.33333333333334</ele><time>2026-05-02T14:32:30Z</time></trkpt><trkpt lat="39.18125358017461" lon="8.599895190480588"><ele>146.66666666666666</ele><time>2026-05-02T14:32:31Z</time></trkpt><trkpt lat="39.18117813966215" lon="8.599872159461928"><ele>147.0</ele><time>2026-05-02T14:32:32Z</time></trkpt><trkpt lat="39.18110135374358" lon="8.599852684397824"><ele>147.0</ele><time>2026-05-02T14:32:33Z</time></trkpt><trkpt lat="39.180999653351606" lon="8.599806895466548"><ele>147.0</ele><time>2026-05-02T14:32:35Z</time></trkpt><trkpt lat="39.180950945274894" lon="8.599738116628561"><ele>147.0</ele><time>2026-05-02T14:32:36Z</time></trkpt><trkpt lat="39.180899427370235" lon="8.599651511153647"><ele>147.0</ele><time>2026-05-02T14:32:37Z</time></trkpt><trkpt lat="39.18086294957003" lon="8.599566213342445"><ele>147.0</ele><time>2026-05-02T14:32:38Z</time></trkpt><trkpt lat="39.18082931162333" lon="8.599496756034757"><ele>147.0</ele><time>2026-05-02T14:32:39Z</time></trkpt><trkpt lat="39.18078363993108" lon="8.599429918763814"><ele>147.5</ele><time>2026-05-02T14:32:40Z</time></trkpt><trkpt lat="39.18072242761713" lon="8.599366750396817"><ele>148.0</ele><time>2026-05-02T14:32:41Z</time></trkpt><trkpt lat="39.180666352484096" lon="8.599314939919676"><ele>148.5</ele><time>2026-05-02T14:32:42Z</time></trkpt><trkpt lat="39.18060336651604" lon="8.599266345225049"><ele>149.0</ele><time>2026-05-02T14:32:43Z</time></trkpt><trkpt lat="39.1805300781897" lon="8.599236170270972"><ele>149.5</ele><time>2026-05-02T14:32:44Z</time></trkpt><trkpt lat="39.18044911753413" lon="8.599208884387819"><ele>150.0</ele><time>2026-05-02T14:32:45Z</time></trkpt><trkpt lat="39.18037058293306" lon="8.599183942471292"><ele>150.0</ele><time>2026-05-02T14:32:46Z</time></trkpt><trkpt lat="39.18028827675441" lon="8.599172712581693"><ele>150.0</ele><time>2026-05-02T14:32:47Z</time></trkpt><trkpt lat="39.18020900252759" lon="8.599165669681588"><ele>150.0</ele><time>2026-05-02T14:32:48Z</time></trkpt><trkpt lat="39.18012625480927" lon="8.599173900585654"><ele>150.0</ele><time>2026-05-02T14:32:49Z</time></trkpt><trkpt lat="39.18002568752022" lon="8.599232514571904"><ele>150.0</ele><time>2026-05-02T14:32:51Z</time></trkpt><trkpt lat="39.1799917887059" lon="8.599382031870812"><ele>150.0</ele><time>2026-05-02T14:32:53Z</time></trkpt><trkpt lat="39.17999280589141" lon="8.599475770008207"><ele>150.0</ele><time>2026-05-02T14:32:54Z</time></trkpt><trkpt lat="39.179971525974615" lon="8.599635479986587"><ele>150.0</ele><time>2026-05-02T14:32:55.999Z</time></trkpt><trkpt lat="39.179945528829855" lon="8.599732606006585"><ele>150.0</ele><time>2026-05-02T14:32:56.999Z</time></trkpt><trkpt lat="39.179916875221046" lon="8.599820711785135"><ele>150.0</ele><time>2026-05-02T14:32:57.999Z</time></trkpt><trkpt lat="39.17987831190906" lon="8.599887946613027"><ele>150.0</ele><time>2026-05-02T14:32:58.999Z</time></trkpt><trkpt lat="39.17976783681107" lon="8.599983133472117"><ele>148.66666666666666</ele><time>2026-05-02T14:33:00.999Z</time></trkpt><trkpt lat="39.179694635116874" lon="8.600026026469434"><ele>147.33333333333334</ele><time>2026-05-02T14:33:01.999Z</time></trkpt><trkpt lat="39.17962129941092" lon="8.600069113782563"><ele>146.0</ele><time>2026-05-02T14:33:02.999Z</time></trkpt><trkpt lat="39.179542603817204" lon="8.600114247377872"><ele>144.66666666666669</ele><time>2026-05-02T14:33:03.999Z</time></trkpt><trkpt lat="39.179458691184635" lon="8.600161781541958"><ele>143.33333333333334</ele><time>2026-05-02T14:33:04.999Z</time></trkpt><trkpt lat="39.179381479272244" lon="8.600186270674744"><ele>142.0</ele><time>2026-05-02T14:33:05.999Z</time></trkpt><trkpt lat="39.179313973659376" lon="8.600188202554596"><ele>142.0</ele><time>2026-05-02T14:33:06.999Z</time></trkpt><trkpt lat="39.17919261182527" lon="8.600105697315598"><ele>142.0</ele><time>2026-05-02T14:33:08.999Z</time></trkpt><trkpt lat="39.17912507573511" lon="8.600053698867892"><ele>142.0</ele><time>2026-05-02T14:33:09.999Z</time></trkpt><trkpt lat="39.179057639869626" lon="8.600036832099228"><ele>142.0</ele><time>2026-05-02T14:33:10.999Z</time></trkpt><trkpt lat="39.178975186665134" lon="8.600031862400867"><ele>142.0</ele><time>2026-05-02T14:33:11.999Z</time></trkpt><trkpt lat="39.178895972201275" lon="8.600030811293976"><ele>142.0</ele><time>2026-05-02T14:33:12.999Z</time></trkpt><trkpt lat="39.17882083724324" lon="8.600051620025289"><ele>141.0</ele><time>2026-05-02T14:33:13.999Z</time></trkpt><trkpt lat="39.17875890660761" lon="8.60009476940587"><ele>140.0</ele><time>2026-05-02T14:33:14.999Z</time></trkpt><trkpt lat="39.17869607286098" lon="8.60012373787828"><ele>139.0</ele><time>2026-05-02T14:33:15.999Z</time></trkpt><trkpt lat="39.178631545458515" lon="8.600131411825068"><ele>138.0</ele><time>2026-05-02T14:33:16.999Z</time></trkpt><trkpt lat="39.17854129923824" lon="8.600161343987393"><ele>137.0</ele><time>2026-05-02T14:33:18.999Z</time></trkpt><trkpt lat="39.17847771749714" lon="8.600277606897837"><ele>136.0</ele><time>2026-05-02T14:33:20.999Z</time></trkpt><trkpt lat="39.17845740118309" lon="8.600364305719095"><ele>136.0</ele><time>2026-05-02T14:33:21.999Z</time></trkpt><trkpt lat="39.17844834252989" lon="8.600461228714424"><ele>136.0</ele><time>2026-05-02T14:33:22.999Z</time></trkpt><trkpt lat="39.17843884735108" lon="8.600561729218247"><ele>136.0</ele><time>2026-05-02T14:33:23.999Z</time></trkpt><trkpt lat="39.17841950247947" lon="8.600647469597227"><ele>136.0</ele><time>2026-05-02T14:33:24.999Z</time></trkpt><trkpt lat="39.17835207917621" lon="8.600776336154224"><ele>136.0</ele><time>2026-05-02T14:33:26.999Z</time></trkpt><trkpt lat="39.17823951815871" lon="8.600845810552553"><ele>136.83333333333334</ele><time>2026-05-02T14:33:28.999Z</time></trkpt><trkpt lat="39.17816848488886" lon="8.600876908234806"><ele>137.66666666666669</ele><time>2026-05-02T14:33:29.999Z</time></trkpt><trkpt lat="39.178082184861864" lon="8.600915519407119"><ele>138.5</ele><time>2026-05-02T14:33:30.999Z</time></trkpt><trkpt lat="39.17798104642617" lon="8.600950733061204"><ele>139.33333333333334</ele><time>2026-05-02T14:33:31.999Z</time></trkpt><trkpt lat="39.17789558285614" lon="8.600963444975916"><ele>140.16666666666666</ele><time>2026-05-02T14:33:32.999Z</time></trkpt><trkpt lat="39.177834621153714" lon="8.6009974031928"><ele>141.0</ele><time>2026-05-02T14:33:33.999Z</time></trkpt><trkpt lat="39.177759691615364" lon="8.601109110145556"><ele>139.83333333333334</ele><time>2026-05-02T14:33:35.999Z</time></trkpt><trkpt lat="39.17772410391309" lon="8.601210578585695"><ele>138.66666666666666</ele><time>2026-05-02T14:33:37.999Z</time></trkpt><trkpt lat="39.17768639235677" lon="8.60128345068793"><ele>137.5</ele><time>2026-05-02T14:33:40.999Z</time></trkpt><trkpt lat="39.17776967170097" lon="8.601305774685999"><ele>136.33333333333331</ele><time>2026-05-02T14:33:44.999Z</time></trkpt><trkpt lat="39.177843353303544" lon="8.60130998359208"><ele>135.16666666666666</ele><time>2026-05-02T14:33:45.999Z</time></trkpt><trkpt lat="39.177938397684336" lon="8.601362392241208"><ele>134.0</ele><time>2026-05-02T14:33:47.999Z</time></trkpt><trkpt lat="39.178045911733996" lon="8.601373267920462"><ele>134.0</ele><time>2026-05-02T14:33:49.999Z</time></trkpt><trkpt lat="39.17813306509193" lon="8.601384508644358"><ele>134.0</ele><time>2026-05-02T14:33:51.999Z</time></trkpt><trkpt lat="39.17821491535455" lon="8.601377680316766"><ele>134.0</ele><time>2026-05-02T14:33:54Z</time></trkpt><trkpt lat="39.17828553564508" lon="8.601376264004795"><ele>134.0</ele><time>2026-05-02T14:33:56Z</time></trkpt><trkpt lat="39.178357938141524" lon="8.601369301352975"><ele>134.0</ele><time>2026-05-02T14:33:59Z</time></trkpt><trkpt lat="39.17841661040723" lon="8.601398738365035"><ele>134.0</ele><time>2026-05-02T14:34:02Z</time></trkpt><trkpt lat="39.17852473906947" lon="8.601456343204596"><ele>135.83333333333331</ele><time>2026-05-02T14:34:05Z</time></trkpt><trkpt lat="39.178587983906745" lon="8.601512778958684"><ele>137.66666666666666</ele><time>2026-05-02T14:34:07Z</time></trkpt><trkpt lat="39.178660267202304" lon="8.601597967534268"><ele>139.5</ele><time>2026-05-02T14:34:09Z</time></trkpt><trkpt lat="39.17872034769613" lon="8.601724737246862"><ele>141.33333333333334</ele><time>2026-05-02T14:34:11Z</time></trkpt><trkpt lat="39.17875885091741" lon="8.601800815935398"><ele>143.16666666666669</ele><time>2026-05-02T14:34:12Z</time></trkpt><trkpt lat="39.17880442124122" lon="8.601878213673144"><ele>145.0</ele><time>2026-05-02T14:34:13Z</time></trkpt><trkpt lat="39.17883549190276" lon="8.601956764822356"><ele>149.33333333333334</ele><time>2026-05-02T14:34:15Z</time></trkpt><trkpt lat="39.17881881282631" lon="8.602067211476724"><ele>153.66666666666669</ele><time>2026-05-02T14:34:18Z</time></trkpt><trkpt lat="39.17876596622367" lon="8.602171546745563"><ele>158.0</ele><time>2026-05-02T14:34:20Z</time></trkpt><trkpt lat="39.1787313876822" lon="8.602280555681565"><ele>162.33333333333334</ele><time>2026-05-02T14:34:22Z</time></trkpt><trkpt lat="39.178668123307716" lon="8.602278409484715"><ele>166.66666666666666</ele><time>2026-05-02T14:34:25Z</time></trkpt><trkpt lat="39.17860859238529" lon="8.602330827893532"><ele>171.0</ele><time>2026-05-02T14:34:26Z</time></trkpt><trkpt lat="39.178578643417914" lon="8.602258332938362"><ele>171.0</ele><time>2026-05-02T14:34:28Z</time></trkpt><trkpt lat="39.17845810041237" lon="8.602271102143032"><ele>171.0</ele><time>2026-05-02T14:34:29Z</time></trkpt><trkpt lat="39.17835078981426" lon="8.602163857080438"><ele>171.0</ele><time>2026-05-02T14:34:31Z</time></trkpt><trkpt lat="39.17825712321302" lon="8.602125095829793"><ele>171.0</ele><time>2026-05-02T14:34:33Z</time></trkpt><trkpt lat="39.1781923875127" lon="8.60216010235637"><ele>171.0</ele><time>2026-05-02T14:34:35Z</time></trkpt><trkpt lat="39.17816553563327" lon="8.602239215415784"><ele>171.0</ele><time>2026-05-02T14:34:37Z</time></trkpt><trkpt lat="39.178228301823125" lon="8.602321987956255"><ele>171.0</ele><time>2026-05-02T14:34:39Z</time></trkpt><trkpt lat="39.17834020230442" lon="8.602396034884803"><ele>171.0</ele><time>2026-05-02T14:34:41Z</time></trkpt><trkpt lat="39.17839087946591" lon="8.6024448331246"><ele>171.0</ele><time>2026-05-02T14:34:42Z</time></trkpt><trkpt lat="39.178448667292166" lon="8.602546327978384"><ele>171.0</ele><time>2026-05-02T14:34:44Z</time></trkpt><trkpt lat="39.17851746568344" lon="8.602599943624199"><ele>171.0</ele><time>2026-05-02T14:34:46Z</time></trkpt><trkpt lat="39.17860500114968" lon="8.60267111499389"><ele>171.0</ele><time>2026-05-02T14:34:48Z</time></trkpt><trkpt lat="39.17865791007701" lon="8.602754437891791"><ele>171.0</ele><time>2026-05-02T14:34:50Z</time></trkpt><trkpt lat="39.178748190335355" lon="8.602835533934336"><ele>171.0</ele><time>2026-05-02T14:34:52Z</time></trkpt><trkpt lat="39.178827277015735" lon="8.60289742910145"><ele>171.0</ele><time>2026-05-02T14:34:54Z</time></trkpt><trkpt lat="39.17888628881853" lon="8.602926031423147"><ele>171.4</ele><time>2026-05-02T14:35:23.999Z</time></trkpt><trkpt lat="39.17896492733712" lon="8.602943284398414"><ele>171.8</ele><time>2026-05-02T14:35:26.999Z</time></trkpt><trkpt lat="39.179081061786704" lon="8.602945029017167"><ele>172.20000000000002</ele><time>2026-05-02T14:35:28.999Z</time></trkpt><trkpt lat="39.17914843657561" lon="8.60289511862499"><ele>172.60000000000002</ele><time>2026-05-02T14:35:30.999Z</time></trkpt><trkpt lat="39.17921377512386" lon="8.602862454065974"><ele>173.0</ele><time>2026-05-02T14:35:33.999Z</time></trkpt><trkpt lat="39.17931112195819" lon="8.602792284002472"><ele>173.0</ele><time>2026-05-02T14:35:35.999Z</time></trkpt><trkpt lat="39.17942613102107" lon="8.602723888806043"><ele>173.0</ele><time>2026-05-02T14:35:37.999Z</time></trkpt><trkpt lat="39.1794909129429" lon="8.602695870956333"><ele>173.0</ele><time>2026-05-02T14:35:38.999Z</time></trkpt><trkpt lat="39.17958280291454" lon="8.602734434714854"><ele>173.0</ele><time>2026-05-02T14:35:40.999Z</time></trkpt><trkpt lat="39.179642424827925" lon="8.602827502655543"><ele>173.0</ele><time>2026-05-02T14:35:42.999Z</time></trkpt><trkpt lat="39.179707238831384" lon="8.60287348080377"><ele>177.33333333333331</ele><time>2026-05-02T14:35:44.999Z</time></trkpt><trkpt lat="39.17982015338176" lon="8.602957825880951"><ele>181.66666666666666</ele><time>2026-05-02T14:35:46.999Z</time></trkpt><trkpt lat="39.179876959736255" lon="8.603005909017563"><ele>186.0</ele><time>2026-05-02T14:35:47.999Z</time></trkpt><trkpt lat="39.17994575497131" lon="8.603039527888505"><ele>190.33333333333331</ele><time>2026-05-02T14:35:49.999Z</time></trkpt><trkpt lat="39.17998357666745" lon="8.602952604492886"><ele>194.66666666666666</ele><time>2026-05-02T14:35:51.999Z</time></trkpt><trkpt lat="39.180035782440974" lon="8.603019420519741"><ele>199.0</ele><time>2026-05-02T14:35:53.999Z</time></trkpt><trkpt lat="39.18002909596517" lon="8.60312296893725"><ele>199.0</ele><time>2026-05-02T14:35:55.999Z</time></trkpt><trkpt lat="39.17994305407364" lon="8.603227314897072"><ele>199.0</ele><time>2026-05-02T14:35:57.999Z</time></trkpt><trkpt lat="39.179837030652344" lon="8.603256954275778"><ele>199.0</ele><time>2026-05-02T14:36:00Z</time></trkpt><trkpt lat="39.17974517432654" lon="8.603279833700668"><ele>199.0</ele><time>2026-05-02T14:36:02Z</time></trkpt><trkpt lat="39.17963568000074" lon="8.603353458483367"><ele>199.0</ele><time>2026-05-02T14:36:04Z</time></trkpt><trkpt lat="39.179557402583086" lon="8.603457488385446"><ele>198.99999999999997</ele><time>2026-05-02T14:36:06Z</time></trkpt><trkpt lat="39.17950721500783" lon="8.603509387407746"><ele>199.0</ele><time>2026-05-02T14:36:07Z</time></trkpt><trkpt lat="39.17945680129738" lon="8.603583754411146"><ele>199.0</ele><time>2026-05-02T14:36:08Z</time></trkpt><trkpt lat="39.17941508678739" lon="8.603700979958424"><ele>199.0</ele><time>2026-05-02T14:36:10Z</time></trkpt><trkpt lat="39.17931745452983" lon="8.60378796313121"><ele>198.99999999999997</ele><time>2026-05-02T14:36:12Z</time></trkpt><trkpt lat="39.17926001762933" lon="8.603836128933228"><ele>199.0</ele><time>2026-05-02T14:36:13Z</time></trkpt><trkpt lat="39.179174602579856" lon="8.603857800277043"><ele>203.99999999999997</ele><time>2026-05-02T14:36:15Z</time></trkpt><trkpt lat="39.17909682571284" lon="8.603894611645885"><ele>209.0</ele><time>2026-05-02T14:36:34Z</time></trkpt><trkpt lat="39.17900545891241" lon="8.603933011575885"><ele>214.0</ele><time>2026-05-02T14:36:36Z</time></trkpt><trkpt lat="39.1789375635177" lon="8.603954103402401"><ele>219.0</ele><time>2026-05-02T14:36:37Z</time></trkpt><trkpt lat="39.17884271915799" lon="8.603974910217728"><ele>223.99999999999997</ele><time>2026-05-02T14:36:39Z</time></trkpt><trkpt lat="39.17876063279365" lon="8.604016939161937"><ele>229.0</ele><time>2026-05-02T14:36:41Z</time></trkpt><trkpt lat="39.17870341203168" lon="8.6040672414881"><ele>228.99999999999997</ele><time>2026-05-02T14:36:43Z</time></trkpt><trkpt lat="39.17865395782215" lon="8.604119627265701"><ele>229.0</ele><time>2026-05-02T14:36:53Z</time></trkpt><trkpt lat="39.178602388439394" lon="8.6041761614029"><ele>229.0</ele><time>2026-05-02T14:36:54Z</time></trkpt><trkpt lat="39.17854391614759" lon="8.604240810432133"><ele>229.0</ele><time>2026-05-02T14:36:55Z</time></trkpt><trkpt lat="39.17845018199015" lon="8.604334704788448"><ele>228.99999999999997</ele><time>2026-05-02T14:36:57Z</time></trkpt><trkpt lat="39.178409152256805" lon="8.604403668616312"><ele>229.0</ele><time>2026-05-02T14:36:58Z</time></trkpt><trkpt lat="39.17835641995734" lon="8.60446535382407"><ele>230.6</ele><time>2026-05-02T14:36:58.999Z</time></trkpt><trkpt lat="39.17830027438152" lon="8.604522632032664"><ele>232.2</ele><time>2026-05-02T14:36:59.999Z</time></trkpt><trkpt lat="39.178255654678374" lon="8.604628001844777"><ele>233.79999999999998</ele><time>2026-05-02T14:37:01.999Z</time></trkpt><trkpt lat="39.17829897752643" lon="8.604747471056532"><ele>235.39999999999998</ele><time>2026-05-02T14:37:03.999Z</time></trkpt><trkpt lat="39.178369012376805" lon="8.60480530018221"><ele>237.0</ele><time>2026-05-02T14:37:05.999Z</time></trkpt><trkpt lat="39.17849837666768" lon="8.604727288617596"><ele>237.0</ele><time>2026-05-02T14:37:07.999Z</time></trkpt><trkpt lat="39.17859099597167" lon="8.604701173073614"><ele>237.0</ele><time>2026-05-02T14:37:08.999Z</time></trkpt><trkpt lat="39.17866668986064" lon="8.604676936042123"><ele>237.0</ele><time>2026-05-02T14:37:09.999Z</time></trkpt><trkpt lat="39.17872974164387" lon="8.60468108005663"><ele>237.0</ele><time>2026-05-02T14:37:12.999Z</time></trkpt><trkpt lat="39.17884209390072" lon="8.604699924474495"><ele>237.0</ele><time>2026-05-02T14:38:12Z</time></trkpt><trkpt lat="39.17892694988934" lon="8.604702523073849"><ele>237.0</ele><time>2026-05-02T14:38:13Z</time></trkpt><trkpt lat="39.179009200917946" lon="8.604691861323131"><ele>240.83333333333334</ele><time>2026-05-02T14:38:14Z</time></trkpt><trkpt lat="39.179112022495104" lon="8.604674532034837"><ele>244.66666666666669</ele><time>2026-05-02T14:38:15Z</time></trkpt><trkpt lat="39.1791992451636" lon="8.604645600797683"><ele>248.5</ele><time>2026-05-02T14:38:16Z</time></trkpt><trkpt lat="39.17926520503644" lon="8.604613587708418"><ele>252.33333333333334</ele><time>2026-05-02T14:38:17Z</time></trkpt><trkpt lat="39.179333533419175" lon="8.604596783544304"><ele>256.1666666666667</ele><time>2026-05-02T14:38:18Z</time></trkpt><trkpt lat="39.17941992540397" lon="8.604593925294004"><ele>260.0</ele><time>2026-05-02T14:38:19Z</time></trkpt><trkpt lat="39.179508250344355" lon="8.604591664807089"><ele>260.0</ele><time>2026-05-02T14:38:20Z</time></trkpt><trkpt lat="39.1795888647568" lon="8.604586826021434"><ele>260.0</ele><time>2026-05-02T14:38:21Z</time></trkpt><trkpt lat="39.17967563565097" lon="8.604560688317473"><ele>260.0</ele><time>2026-05-02T14:38:22Z</time></trkpt><trkpt lat="39.17976603605689" lon="8.604532452976215"><ele>260.0</ele><time>2026-05-02T14:38:23Z</time></trkpt><trkpt lat="39.17985289318623" lon="8.60453444657184"><ele>260.0</ele><time>2026-05-02T14:38:24Z</time></trkpt><trkpt lat="39.17995058780667" lon="8.604542647051279"><ele>260.0</ele><time>2026-05-02T14:38:25Z</time></trkpt><trkpt lat="39.180065302709195" lon="8.604555448996752"><ele>262.6</ele><time>2026-05-02T14:38:26Z</time></trkpt><trkpt lat="39.1801690262904" lon="8.604560962950513"><ele>265.2</ele><time>2026-05-02T14:38:27Z</time></trkpt><trkpt lat="39.180266774492" lon="8.604563652167066"><ele>267.8</ele><time>2026-05-02T14:38:28Z</time></trkpt><trkpt lat="39.18036825460858" lon="8.604561387633563"><ele>270.4</ele><time>2026-05-02T14:38:29Z</time></trkpt><trkpt lat="39.180456254201935" lon="8.604559733631588"><ele>273.0</ele><time>2026-05-02T14:38:30Z</time></trkpt><trkpt lat="39.18053788279935" lon="8.604540042410658"><ele>273.0</ele><time>2026-05-02T14:38:31Z</time></trkpt><trkpt lat="39.18063253715739" lon="8.604519721815034"><ele>273.0</ele><time>2026-05-02T14:38:32Z</time></trkpt><trkpt lat="39.18071444795138" lon="8.604494032824679"><ele>273.0</ele><time>2026-05-02T14:38:33Z</time></trkpt><trkpt lat="39.18078718771132" lon="8.60445719319863"><ele>273.0</ele><time>2026-05-02T14:38:34Z</time></trkpt><trkpt lat="39.1808674836917" lon="8.60439633647226"><ele>273.0</ele><time>2026-05-02T14:38:35Z</time></trkpt><trkpt lat="39.18095809510561" lon="8.604308731559298"><ele>272.5</ele><time>2026-05-02T14:38:36Z</time></trkpt><trkpt lat="39.18103117179215" lon="8.604239699270574"><ele>272.0</ele><time>2026-05-02T14:38:37Z</time></trkpt><trkpt lat="39.18111322901992" lon="8.604184512110722"><ele>271.5</ele><time>2026-05-02T14:38:39Z</time></trkpt><trkpt lat="39.181187356601086" lon="8.60420876862983"><ele>271.0</ele><time>2026-05-02T14:38:41Z</time></trkpt><trkpt lat="39.181214158674834" lon="8.604291526661804"><ele>270.5</ele><time>2026-05-02T14:38:42Z</time></trkpt><trkpt lat="39.181249269941084" lon="8.60440206083531"><ele>270.0</ele><time>2026-05-02T14:38:43Z</time></trkpt><trkpt lat="39.18128052241966" lon="8.60449903649693"><ele>271.5</ele><time>2026-05-02T14:38:44Z</time></trkpt><trkpt lat="39.181274302081064" lon="8.60460524854481"><ele>273.0</ele><time>2026-05-02T14:38:45Z</time></trkpt><trkpt lat="39.18128228086267" lon="8.604714886688283"><ele>274.5</ele><time>2026-05-02T14:38:46Z</time></trkpt><trkpt lat="39.181314296882434" lon="8.604808941244158"><ele>276.0</ele><time>2026-05-02T14:38:47Z</time></trkpt><trkpt lat="39.181352432720224" lon="8.604898989379581"><ele>277.5</ele><time>2026-05-02T14:38:48Z</time></trkpt><trkpt lat="39.181386933685175" lon="8.604988900547252"><ele>279.0</ele><time>2026-05-02T14:38:50Z</time></trkpt><trkpt lat="39.18145579188827" lon="8.605015824251627"><ele>280.0</ele><time>2026-05-02T14:39:54.999Z</time></trkpt><trkpt lat="39.18155117154114" lon="8.60504906313617"><ele>281.0</ele><time>2026-05-02T14:39:56.999Z</time></trkpt><trkpt lat="39.18165821939882" lon="8.605103093649637"><ele>282.0</ele><time>2026-05-02T14:39:58.999Z</time></trkpt><trkpt lat="39.18177461049243" lon="8.60514694441582"><ele>283.0</ele><time>2026-05-02T14:40:00.999Z</time></trkpt><trkpt lat="39.18188071990022" lon="8.605207240260157"><ele>283.0</ele><time>2026-05-02T14:40:02.999Z</time></trkpt><trkpt lat="39.18197203936008" lon="8.60525390443831"><ele>283.0</ele><time>2026-05-02T14:40:04.999Z</time></trkpt><trkpt lat="39.18206333858403" lon="8.605282983479912"><ele>283.0</ele><time>2026-05-02T14:40:06.999Z</time></trkpt><trkpt lat="39.18214029394864" lon="8.605256863722774"><ele>283.0</ele><time>2026-05-02T14:40:08.999Z</time></trkpt><trkpt lat="39.18220486154638" lon="8.605245172821146"><ele>283.0</ele><time>2026-05-02T14:40:10.999Z</time></trkpt><trkpt lat="39.18229408370115" lon="8.605224669133504"><ele>283.0</ele><time>2026-05-02T14:40:13Z</time></trkpt><trkpt lat="39.18236829197987" lon="8.60526669270966"><ele>282.16666666666663</ele><time>2026-05-02T14:40:15Z</time></trkpt><trkpt lat="39.18244824964082" lon="8.605231481516695"><ele>281.3333333333333</ele><time>2026-05-02T14:40:18Z</time></trkpt><trkpt lat="39.1825329145753" lon="8.605229001187604"><ele>280.5</ele><time>2026-05-02T14:40:21Z</time></trkpt><trkpt lat="39.182600250825466" lon="8.605260275275334"><ele>279.6666666666667</ele><time>2026-05-02T14:40:23Z</time></trkpt><trkpt lat="39.18266250148508" lon="8.605362331115375"><ele>278.83333333333337</ele><time>2026-05-02T14:40:26Z</time></trkpt><trkpt lat="39.18271203006888" lon="8.605473412400222"><ele>278.0</ele><time>2026-05-02T14:40:28Z</time></trkpt><trkpt lat="39.1827492285706" lon="8.60559922555305"><ele>276.4</ele><time>2026-05-02T14:40:30Z</time></trkpt><trkpt lat="39.18287212430038" lon="8.605641772971316"><ele>274.8</ele><time>2026-05-02T14:40:32Z</time></trkpt><trkpt lat="39.182952375359925" lon="8.605685919525206"><ele>273.2</ele><time>2026-05-02T14:40:34Z</time></trkpt><trkpt lat="39.18304721847421" lon="8.605734087660307"><ele>271.6</ele><time>2026-05-02T14:40:36Z</time></trkpt><trkpt lat="39.18312671731363" lon="8.605799632998934"><ele>270.0</ele><time>2026-05-02T14:40:38Z</time></trkpt><trkpt lat="39.18320785351744" lon="8.605868425129646"><ele>269.6666666666667</ele><time>2026-05-02T14:40:40Z</time></trkpt><trkpt lat="39.18329896225846" lon="8.605897300423365"><ele>269.3333333333333</ele><time>2026-05-02T14:40:42Z</time></trkpt><trkpt lat="39.18340459024685" lon="8.605914102872672"><ele>269.0</ele><time>2026-05-02T14:40:44Z</time></trkpt><trkpt lat="39.18350940150722" lon="8.605961151749735"><ele>268.66666666666663</ele><time>2026-05-02T14:40:46Z</time></trkpt><trkpt lat="39.18356070282398" lon="8.60600886847602"><ele>268.3333333333333</ele><time>2026-05-02T14:40:47Z</time></trkpt><trkpt lat="39.18361891244492" lon="8.606066619084832"><ele>268.0</ele><time>2026-05-02T14:40:50Z</time></trkpt><trkpt lat="39.183689091623116" lon="8.606073652367387"><ele>268.0</ele><time>2026-05-02T14:40:52Z</time></trkpt><trkpt lat="39.18376432047763" lon="8.606045655063005"><ele>268.0</ele><time>2026-05-02T14:40:54Z</time></trkpt><trkpt lat="39.18385725949958" lon="8.606054718586272"><ele>268.0</ele><time>2026-05-02T14:40:56Z</time></trkpt><trkpt lat="39.18392655251028" lon="8.6061271220045"><ele>268.0</ele><time>2026-05-02T14:40:58Z</time></trkpt><trkpt lat="39.18399566275474" lon="8.606188666420554"><ele>268.0</ele><time>2026-05-02T14:41:00Z</time></trkpt><trkpt lat="39.18408982450817" lon="8.606219469758306"><ele>268.0</ele><time>2026-05-02T14:41:02Z</time></trkpt><trkpt lat="39.18417823712744" lon="8.606270919663372"><ele>266.6</ele><time>2026-05-02T14:41:04Z</time></trkpt><trkpt lat="39.184204234574786" lon="8.606368347244146"><ele>265.20000000000005</ele><time>2026-05-02T14:41:05.999Z</time></trkpt><trkpt lat="39.18422851143709" lon="8.606513458757167"><ele>263.8</ele><time>2026-05-02T14:41:07.999Z</time></trkpt><trkpt lat="39.184266914945866" lon="8.606586807698967"><ele>262.40000000000003</ele><time>2026-05-02T14:41:08.999Z</time></trkpt><trkpt lat="39.184299878532656" lon="8.60672569223226"><ele>261.0</ele><time>2026-05-02T14:41:10.999Z</time></trkpt><trkpt lat="39.184297029434696" lon="8.606826392217641"><ele>261.0</ele><time>2026-05-02T14:41:12.999Z</time></trkpt><trkpt lat="39.184286731714735" lon="8.606912065716562"><ele>261.0</ele><time>2026-05-02T14:41:15.999Z</time></trkpt><trkpt lat="39.18431904485138" lon="8.607000377769726"><ele>261.0</ele><time>2026-05-02T14:41:46.999Z</time></trkpt><trkpt lat="39.18437224789716" lon="8.607044964377312"><ele>261.0</ele><time>2026-05-02T14:41:48.999Z</time></trkpt><trkpt lat="39.184396573349794" lon="8.607133198456866"><ele>261.0</ele><time>2026-05-02T14:41:50.999Z</time></trkpt><trkpt lat="39.184397571107965" lon="8.607249013976789"><ele>261.0</ele><time>2026-05-02T14:41:52.999Z</time></trkpt><trkpt lat="39.18437862894818" lon="8.60738185640452"><ele>259.6</ele><time>2026-05-02T14:41:54.999Z</time></trkpt><trkpt lat="39.18436904501676" lon="8.607515574937379"><ele>258.20000000000005</ele><time>2026-05-02T14:41:56.999Z</time></trkpt><trkpt lat="39.184397128584166" lon="8.60760498127704"><ele>256.79999999999995</ele><time>2026-05-02T14:41:58.999Z</time></trkpt><trkpt lat="39.184488062156085" lon="8.607642015484856"><ele>255.39999999999998</ele><time>2026-05-02T14:42:00.999Z</time></trkpt><trkpt lat="39.184613798525994" lon="8.607604369491803"><ele>254.0</ele><time>2026-05-02T14:42:02.999Z</time></trkpt><trkpt lat="39.18472323341031" lon="8.607605470146778"><ele>254.00000000000003</ele><time>2026-05-02T14:42:04.999Z</time></trkpt><trkpt lat="39.184784745586725" lon="8.607624648285755"><ele>254.0</ele><time>2026-05-02T14:42:05.999Z</time></trkpt><trkpt lat="39.184901117602884" lon="8.607682116781536"><ele>254.0</ele><time>2026-05-02T14:42:07.999Z</time></trkpt><trkpt lat="39.1849701895978" lon="8.607746767676442"><ele>254.0</ele><time>2026-05-02T14:42:09.999Z</time></trkpt><trkpt lat="39.18501126647103" lon="8.607818656060093"><ele>254.00000000000003</ele><time>2026-05-02T14:42:12.999Z</time></trkpt><trkpt lat="39.18502017936989" lon="8.607941922502652"><ele>254.0</ele><time>2026-05-02T14:42:15.999Z</time></trkpt><trkpt lat="39.18512444210684" lon="8.60803746295989"><ele>250.66666666666669</ele><time>2026-05-02T14:42:18Z</time></trkpt><trkpt lat="39.18522026124807" lon="8.608130220366261"><ele>247.33333333333334</ele><time>2026-05-02T14:42:20Z</time></trkpt><trkpt lat="39.185274497593916" lon="8.608182900371263"><ele>244.0</ele><time>2026-05-02T14:42:21Z</time></trkpt><trkpt lat="39.185323383277385" lon="8.608247671783408"><ele>240.66666666666669</ele><time>2026-05-02T14:42:22Z</time></trkpt><trkpt lat="39.18535142778411" lon="8.608322726870075"><ele>237.33333333333334</ele><time>2026-05-02T14:42:23Z</time></trkpt><trkpt lat="39.18538495957289" lon="8.60839950641094"><ele>234.0</ele><time>2026-05-02T14:42:24Z</time></trkpt><trkpt lat="39.185437084860546" lon="8.608507138771976"><ele>234.0</ele><time>2026-05-02T14:42:26Z</time></trkpt><trkpt lat="39.18545660699969" lon="8.608644073014192"><ele>234.0</ele><time>2026-05-02T14:42:28Z</time></trkpt><trkpt lat="39.185487329159706" lon="8.608750379808129"><ele>234.0</ele><time>2026-05-02T14:42:30Z</time></trkpt><trkpt lat="39.18550299066399" lon="8.608833741786258"><ele>234.0</ele><time>2026-05-02T14:42:32Z</time></trkpt><trkpt lat="39.185509508788336" lon="8.60893125304384"><ele>234.0</ele><time>2026-05-02T14:42:35Z</time></trkpt><trkpt lat="39.18549754614494" lon="8.609012897983902"><ele>234.0</ele><time>2026-05-02T14:42:38Z</time></trkpt><trkpt lat="39.18547875956346" lon="8.609117945377944"><ele>232.0</ele><time>2026-05-02T14:42:54Z</time></trkpt><trkpt lat="39.18545547817405" lon="8.609205750378043"><ele>230.0</ele><time>2026-05-02T14:42:57Z</time></trkpt><trkpt lat="39.18542563946789" lon="8.609315206043764"><ele>228.0</ele><time>2026-05-02T14:43:00Z</time></trkpt><trkpt lat="39.185400962373905" lon="8.609417306290467"><ele>226.0</ele><time>2026-05-02T14:43:02Z</time></trkpt><trkpt lat="39.18538525552318" lon="8.609534017526665"><ele>224.0</ele><time>2026-05-02T14:43:04Z</time></trkpt><trkpt lat="39.18534633235796" lon="8.60963388751729"><ele>222.0</ele><time>2026-05-02T14:43:06Z</time></trkpt><trkpt lat="39.185302081470056" lon="8.609727018122177"><ele>219.16666666666666</ele><time>2026-05-02T14:43:08Z</time></trkpt><trkpt lat="39.18522930812247" lon="8.609867571566175"><ele>216.33333333333331</ele><time>2026-05-02T14:43:11Z</time></trkpt><trkpt lat="39.18518626356119" lon="8.60994634956633"><ele>213.5</ele><time>2026-05-02T14:43:12Z</time></trkpt><trkpt lat="39.18511709275708" lon="8.61002698040532"><ele>210.66666666666666</ele><time>2026-05-02T14:43:13.999Z</time></trkpt><trkpt lat="39.185067751559366" lon="8.610112811048698"><ele>207.83333333333331</ele><time>2026-05-02T14:43:16.999Z</time></trkpt><trkpt lat="39.185029998165135" lon="8.610184675181271"><ele>205.0</ele><time>2026-05-02T14:43:19.999Z</time></trkpt><trkpt lat="39.18498715326757" lon="8.610258203576628"><ele>203.66666666666666</ele><time>2026-05-02T14:43:24.999Z</time></trkpt><trkpt lat="39.18493748597587" lon="8.610339816934896"><ele>202.33333333333331</ele><time>2026-05-02T14:43:27.999Z</time></trkpt><trkpt lat="39.18488686080052" lon="8.610401251932817"><ele>201.0</ele><time>2026-05-02T14:43:30.999Z</time></trkpt><trkpt lat="39.184836678470006" lon="8.610480497679893"><ele>199.66666666666669</ele><time>2026-05-02T14:43:32.999Z</time></trkpt><trkpt lat="39.184801275238314" lon="8.610549618986425"><ele>198.33333333333334</ele><time>2026-05-02T14:43:36.999Z</time></trkpt><trkpt lat="39.18477717504931" lon="8.610638751427485"><ele>197.0</ele><time>2026-05-02T14:43:40.999Z</time></trkpt><trkpt lat="39.184744847383755" lon="8.610761873033702"><ele>197.0</ele><time>2026-05-02T14:43:44.999Z</time></trkpt><trkpt lat="39.1847055772994" lon="8.610831975722121"><ele>197.0</ele><time>2026-05-02T14:43:57.999Z</time></trkpt><trkpt lat="39.18469796158646" lon="8.610917835395693"><ele>197.0</ele><time>2026-05-02T14:43:59.999Z</time></trkpt><trkpt lat="39.18470620237608" lon="8.611005680784936"><ele>197.0</ele><time>2026-05-02T14:44:01.999Z</time></trkpt><trkpt lat="39.184679331273216" lon="8.611085641118464"><ele>197.0</ele><time>2026-05-02T14:44:03.999Z</time></trkpt><trkpt lat="39.18465908645119" lon="8.61119344193014"><ele>197.0</ele><time>2026-05-02T14:44:05.999Z</time></trkpt><trkpt lat="39.1846561388483" lon="8.61128623089317"><ele>197.0</ele><time>2026-05-02T14:44:07.999Z</time></trkpt><trkpt lat="39.184599925651014" lon="8.611353500183835"><ele>192.2</ele><time>2026-05-02T14:44:11.999Z</time></trkpt><trkpt lat="39.18464948339975" lon="8.611422537613551"><ele>187.39999999999998</ele><time>2026-05-02T14:44:14.999Z</time></trkpt><trkpt lat="39.18469218405606" lon="8.611513115031673"><ele>182.60000000000002</ele><time>2026-05-02T14:44:58Z</time></trkpt><trkpt lat="39.18481760974994" lon="8.611527520995864"><ele>177.8</ele><time>2026-05-02T14:45:00Z</time></trkpt><trkpt lat="39.18488664184397" lon="8.611510599490666"><ele>173.0</ele><time>2026-05-02T14:45:01Z</time></trkpt><trkpt lat="39.18498561428885" lon="8.611495729808071"><ele>173.0</ele><time>2026-05-02T14:45:02Z</time></trkpt><trkpt lat="39.18510096870422" lon="8.611478193655689"><ele>173.0</ele><time>2026-05-02T14:45:03Z</time></trkpt><trkpt lat="39.18521699775531" lon="8.61145632487032"><ele>173.0</ele><time>2026-05-02T14:45:04Z</time></trkpt><trkpt lat="39.18530743095203" lon="8.611444473221809"><ele>173.0</ele><time>2026-05-02T14:45:05Z</time></trkpt><trkpt lat="39.185394650928274" lon="8.61141519865494"><ele>173.0</ele><time>2026-05-02T14:45:06Z</time></trkpt><trkpt lat="39.185482224528876" lon="8.611409965458177"><ele>173.0</ele><time>2026-05-02T14:45:07Z</time></trkpt><trkpt lat="39.185572397769185" lon="8.611406858654663"><ele>173.0</ele><time>2026-05-02T14:45:08Z</time></trkpt><trkpt lat="39.185664700398775" lon="8.611392243575551"><ele>173.0</ele><time>2026-05-02T14:45:09Z</time></trkpt><trkpt lat="39.18574715107233" lon="8.611390363758904"><ele>173.0</ele><time>2026-05-02T14:45:10Z</time></trkpt><trkpt lat="39.18582531338328" lon="8.61139781049416"><ele>173.0</ele><time>2026-05-02T14:45:11Z</time></trkpt><trkpt lat="39.18591242583478" lon="8.61141243414357"><ele>173.0</ele><time>2026-05-02T14:45:12Z</time></trkpt><trkpt lat="39.18600415899365" lon="8.61141662088756"><ele>173.8</ele><time>2026-05-02T14:45:13Z</time></trkpt><trkpt lat="39.18608700919655" lon="8.61141433498527"><ele>174.60000000000002</ele><time>2026-05-02T14:45:14Z</time></trkpt><trkpt lat="39.186173923419425" lon="8.611390496706226"><ele>175.39999999999998</ele><time>2026-05-02T14:45:15Z</time></trkpt><trkpt lat="39.18628701592373" lon="8.611391606716586"><ele>176.2</ele><time>2026-05-02T14:45:16Z</time></trkpt><trkpt lat="39.18639105839482" lon="8.611410380067626"><ele>177.0</ele><time>2026-05-02T14:45:17Z</time></trkpt><trkpt lat="39.18647549484882" lon="8.61142508021866"><ele>177.83333333333334</ele><time>2026-05-02T14:45:18Z</time></trkpt><trkpt lat="39.18654823255287" lon="8.611441848992376"><ele>178.66666666666666</ele><time>2026-05-02T14:45:18.999Z</time></trkpt><trkpt lat="39.18662380156951" lon="8.611459743582936"><ele>179.5</ele><time>2026-05-02T14:45:19.999Z</time></trkpt><trkpt lat="39.186685687717954" lon="8.611489615136948"><ele>180.33333333333331</ele><time>2026-05-02T14:45:20.999Z</time></trkpt><trkpt lat="39.18674238721144" lon="8.611550478747636"><ele>181.16666666666666</ele><time>2026-05-02T14:45:21.999Z</time></trkpt><trkpt lat="39.18680737853815" lon="8.611647763870568"><ele>182.0</ele><time>2026-05-02T14:45:22.999Z</time></trkpt><trkpt lat="39.1868427551615" lon="8.611748771476352"><ele>182.0</ele><time>2026-05-02T14:45:23.999Z</time></trkpt><trkpt lat="39.18689267168567" lon="8.611816330822483"><ele>182.0</ele><time>2026-05-02T14:45:25.999Z</time></trkpt><trkpt lat="39.18696418807638" lon="8.611776380471648"><ele>182.0</ele><time>2026-05-02T14:45:27.999Z</time></trkpt><trkpt lat="39.18708114121902" lon="8.611778824153715"><ele>182.0</ele><time>2026-05-02T14:45:29.999Z</time></trkpt><trkpt lat="39.18713655182014" lon="8.611823410683838"><ele>182.0</ele><time>2026-05-02T14:45:30.999Z</time></trkpt><trkpt lat="39.1871846040832" lon="8.611890843499172"><ele>182.0</ele><time>2026-05-02T14:45:31.999Z</time></trkpt><trkpt lat="39.18725383750553" lon="8.612037554570975"><ele>182.33333333333331</ele><time>2026-05-02T14:45:33.999Z</time></trkpt><trkpt lat="39.18731424735366" lon="8.61208407467109"><ele>182.66666666666666</ele><time>2026-05-02T14:45:34.999Z</time></trkpt><trkpt lat="39.18739114794051" lon="8.612107592849727"><ele>183.0</ele><time>2026-05-02T14:45:35.999Z</time></trkpt><trkpt lat="39.18746968242093" lon="8.612126807707432"><ele>183.33333333333334</ele><time>2026-05-02T14:45:36.999Z</time></trkpt><trkpt lat="39.18754228088279" lon="8.612145250541813"><ele>183.66666666666669</ele><time>2026-05-02T14:45:37.999Z</time></trkpt><trkpt lat="39.18760736761976" lon="8.612185808669528"><ele>184.0</ele><time>2026-05-02T14:45:38.999Z</time></trkpt><trkpt lat="39.187674946155006" lon="8.612237504097239"><ele>184.0</ele><time>2026-05-02T14:45:39.999Z</time></trkpt><trkpt lat="39.18772548482682" lon="8.61229187592942"><ele>184.0</ele><time>2026-05-02T14:45:40.999Z</time></trkpt><trkpt lat="39.1877708814209" lon="8.61234992600458"><ele>184.0</ele><time>2026-05-02T14:45:41.999Z</time></trkpt><trkpt lat="39.187811652512295" lon="8.612416552385696"><ele>184.0</ele><time>2026-05-02T14:45:42.999Z</time></trkpt><trkpt lat="39.187867680260396" lon="8.612587683891316"><ele>184.0</ele><time>2026-05-02T14:45:44.999Z</time></trkpt><trkpt lat="39.18788166836244" lon="8.612678103505475"><ele>184.0</ele><time>2026-05-02T14:45:45.999Z</time></trkpt><trkpt lat="39.18786953229129" lon="8.612767851875944"><ele>185.33333333333334</ele><time>2026-05-02T14:45:46.999Z</time></trkpt><trkpt lat="39.18783775215938" lon="8.612863648345924"><ele>186.66666666666669</ele><time>2026-05-02T14:45:47.999Z</time></trkpt><trkpt lat="39.18781971850423" lon="8.612949128236242"><ele>188.0</ele><time>2026-05-02T14:45:48.999Z</time></trkpt><trkpt lat="39.18782258467914" lon="8.613073887354627"><ele>189.33333333333334</ele><time>2026-05-02T14:45:50.999Z</time></trkpt><trkpt lat="39.18783062885475" lon="8.613217429869408"><ele>190.66666666666666</ele><time>2026-05-02T14:45:52.999Z</time></trkpt><trkpt lat="39.18782146303324" lon="8.613322435398722"><ele>192.0</ele><time>2026-05-02T14:45:54.999Z</time></trkpt><trkpt lat="39.18787212829644" lon="8.613400226336251"><ele>192.0</ele><time>2026-05-02T14:45:56.999Z</time></trkpt><trkpt lat="39.18793473122733" lon="8.613507237004145"><ele>192.0</ele><time>2026-05-02T14:45:57.999Z</time></trkpt><trkpt lat="39.18798610306881" lon="8.613598675691765"><ele>192.0</ele><time>2026-05-02T14:45:58.999Z</time></trkpt><trkpt lat="39.18801565630284" lon="8.613691221056252"><ele>192.0</ele><time>2026-05-02T14:45:59.999Z</time></trkpt><trkpt lat="39.18803752862772" lon="8.613773271352162"><ele>192.0</ele><time>2026-05-02T14:46:00.999Z</time></trkpt><trkpt lat="39.188077693500496" lon="8.613837719425566"><ele>192.0</ele><time>2026-05-02T14:46:01.999Z</time></trkpt><trkpt lat="39.18820104878312" lon="8.61390031826685"><ele>192.0</ele><time>2026-05-02T14:46:03.999Z</time></trkpt><trkpt lat="39.18828494285077" lon="8.613900474176354"><ele>192.0</ele><time>2026-05-02T14:46:04.999Z</time></trkpt><trkpt lat="39.18835911795641" lon="8.613889208038179"><ele>192.0</ele><time>2026-05-02T14:46:05.999Z</time></trkpt><trkpt lat="39.188422956474845" lon="8.613859050689715"><ele>192.0</ele><time>2026-05-02T14:46:06.999Z</time></trkpt><trkpt lat="39.18849911504213" lon="8.613814439315872"><ele>192.0</ele><time>2026-05-02T14:46:07.999Z</time></trkpt><trkpt lat="39.1885794812238" lon="8.613785563920553"><ele>192.0</ele><time>2026-05-02T14:46:08.999Z</time></trkpt><trkpt lat="39.188650546701716" lon="8.613793702150991"><ele>192.0</ele><time>2026-05-02T14:46:09.999Z</time></trkpt><trkpt lat="39.18871995924183" lon="8.61381351221002"><ele>192.0</ele><time>2026-05-02T14:46:10.999Z</time></trkpt><trkpt lat="39.18883308083318" lon="8.613790265030097"><ele>192.0</ele><time>2026-05-02T14:46:12.999Z</time></trkpt><trkpt lat="39.18895903927129" lon="8.6137817213189"><ele>192.0</ele><time>2026-05-02T14:46:14.999Z</time></trkpt><trkpt lat="39.189040339614834" lon="8.613743210064417"><ele>192.0</ele><time>2026-05-02T14:46:15.999Z</time></trkpt><trkpt lat="39.18910492515014" lon="8.61371004818691"><ele>192.66666666666666</ele><time>2026-05-02T14:46:16.999Z</time></trkpt><trkpt lat="39.18917397625315" lon="8.613671157289307"><ele>193.33333333333331</ele><time>2026-05-02T14:46:17.999Z</time></trkpt><trkpt lat="39.189253630896836" lon="8.61364195694403"><ele>194.0</ele><time>2026-05-02T14:46:18.999Z</time></trkpt><trkpt lat="39.18931905412007" lon="8.613607760478072"><ele>194.66666666666666</ele><time>2026-05-02T14:46:19.999Z</time></trkpt><trkpt lat="39.18936849968239" lon="8.613513460269843"><ele>195.33333333333331</ele><time>2026-05-02T14:46:21.999Z</time></trkpt><trkpt lat="39.189386050845705" lon="8.613424840004521"><ele>196.0</ele><time>2026-05-02T14:46:22.999Z</time></trkpt><trkpt lat="39.189376604481346" lon="8.613336709175845"><ele>196.8</ele><time>2026-05-02T14:46:23.999Z</time></trkpt><trkpt lat="39.189372338908896" lon="8.613181071969835"><ele>197.60000000000002</ele><time>2026-05-02T14:46:25.999Z</time></trkpt><trkpt lat="39.18942078839521" lon="8.613021437798476"><ele>198.4</ele><time>2026-05-02T14:46:27.999Z</time></trkpt><trkpt lat="39.18943435374991" lon="8.612911061708122"><ele>199.2</ele><time>2026-05-02T14:46:30Z</time></trkpt><trkpt lat="39.189436692025346" lon="8.6128022965791"><ele>200.0</ele><time>2026-05-02T14:46:32Z</time></trkpt><trkpt lat="39.18947821416777" lon="8.612671214627875"><ele>203.4</ele><time>2026-05-02T14:46:34Z</time></trkpt><trkpt lat="39.18953652431625" lon="8.612544324828574"><ele>206.8</ele><time>2026-05-02T14:46:36Z</time></trkpt><trkpt lat="39.18961223780771" lon="8.612417697122146"><ele>210.2</ele><time>2026-05-02T14:46:38Z</time></trkpt><trkpt lat="39.18970440142396" lon="8.61230265802908"><ele>213.6</ele><time>2026-05-02T14:46:40Z</time></trkpt><trkpt lat="39.18974931028151" lon="8.612226464063655"><ele>217.0</ele><time>2026-05-02T14:46:41Z</time></trkpt><trkpt lat="39.1898259513005" lon="8.612110110330956"><ele>216.16666666666666</ele><time>2026-05-02T14:46:43Z</time></trkpt><trkpt lat="39.18991155642123" lon="8.612028393835296"><ele>215.33333333333331</ele><time>2026-05-02T14:46:45Z</time></trkpt><trkpt lat="39.18996133058068" lon="8.611967483795205"><ele>214.5</ele><time>2026-05-02T14:46:46Z</time></trkpt><trkpt lat="39.19000534274229" lon="8.611901006958401"><ele>213.66666666666669</ele><time>2026-05-02T14:46:47Z</time></trkpt><trkpt lat="39.19008770867196" lon="8.611787576701818"><ele>212.83333333333334</ele><time>2026-05-02T14:46:49Z</time></trkpt><trkpt lat="39.19014473492701" lon="8.611734223408611"><ele>212.0</ele><time>2026-05-02T14:46:50Z</time></trkpt><trkpt lat="39.190201773082" lon="8.611683383493707"><ele>212.00000000000003</ele><time>2026-05-02T14:46:51Z</time></trkpt><trkpt lat="39.19026287367107" lon="8.611632922979387"><ele>212.0</ele><time>2026-05-02T14:46:52Z</time></trkpt><trkpt lat="39.190327525965365" lon="8.611585965149786"><ele>212.0</ele><time>2026-05-02T14:46:53Z</time></trkpt><trkpt lat="39.190398982942064" lon="8.611545831212366"><ele>212.0</ele><time>2026-05-02T14:46:55Z</time></trkpt><trkpt lat="39.19047473909243" lon="8.61156253657711"><ele>212.00000000000003</ele><time>2026-05-02T14:46:58Z</time></trkpt><trkpt lat="39.190576933243435" lon="8.611501588983637"><ele>212.0</ele><time>2026-05-02T14:47:00Z</time></trkpt><trkpt lat="39.19063070062719" lon="8.611449915973834"><ele>211.66666666666669</ele><time>2026-05-02T14:47:01Z</time></trkpt><trkpt lat="39.190718380562124" lon="8.611355670067296"><ele>211.33333333333334</ele><time>2026-05-02T14:47:03Z</time></trkpt><trkpt lat="39.190792473126415" lon="8.611284753193532"><ele>211.0</ele><time>2026-05-02T14:47:05Z</time></trkpt><trkpt lat="39.1908573958254" lon="8.611270511216453"><ele>210.66666666666669</ele><time>2026-05-02T14:47:07Z</time></trkpt><trkpt lat="39.19094327417094" lon="8.611252078642108"><ele>210.33333333333334</ele><time>2026-05-02T14:47:09Z</time></trkpt><trkpt lat="39.19100134914721" lon="8.611178454165826"><ele>210.0</ele><time>2026-05-02T14:47:12Z</time></trkpt><trkpt lat="39.19101301168979" lon="8.61108640571586"><ele>212.8</ele><time>2026-05-02T14:47:16Z</time></trkpt><trkpt lat="39.19104263179931" lon="8.61087415819727"><ele>215.6</ele><time>2026-05-02T14:47:18Z</time></trkpt><trkpt lat="39.19110285567432" lon="8.610748285372223"><ele>218.39999999999998</ele><time>2026-05-02T14:47:20Z</time></trkpt><trkpt lat="39.191162022099284" lon="8.610679141382427"><ele>221.2</ele><time>2026-05-02T14:47:21Z</time></trkpt><trkpt lat="39.19122265846467" lon="8.610607494228844"><ele>224.0</ele><time>2026-05-02T14:47:22Z</time></trkpt><trkpt lat="39.19127993480274" lon="8.610542723437309"><ele>224.00000000000003</ele><time>2026-05-02T14:47:22.999Z</time></trkpt><trkpt lat="39.19133961155407" lon="8.610480076055868"><ele>224.0</ele><time>2026-05-02T14:47:23.999Z</time></trkpt><trkpt lat="39.19139614045268" lon="8.610402736137706"><ele>224.0</ele><time>2026-05-02T14:47:24.999Z</time></trkpt><trkpt lat="39.19145610661759" lon="8.610347979222356"><ele>224.0</ele><time>2026-05-02T14:47:25.999Z</time></trkpt><trkpt lat="39.191511809785254" lon="8.610299871129673"><ele>224.00000000000003</ele><time>2026-05-02T14:47:26.999Z</time></trkpt><trkpt lat="39.1915990224381" lon="8.610247678898046"><ele>224.0</ele><time>2026-05-02T14:47:28.999Z</time></trkpt><trkpt lat="39.19169555897036" lon="8.610235363049078"><ele>228.2</ele><time>2026-05-02T14:47:30.999Z</time></trkpt><trkpt lat="39.191769174512906" lon="8.610221892067383"><ele>232.39999999999998</ele><time>2026-05-02T14:47:31.999Z</time></trkpt><trkpt lat="39.191867468549624" lon="8.61018793570703"><ele>236.6</ele><time>2026-05-02T14:47:33.999Z</time></trkpt><trkpt lat="39.19194895477087" lon="8.610167969656718"><ele>240.8</ele><time>2026-05-02T14:47:35.999Z</time></trkpt><trkpt lat="39.192047838161045" lon="8.610177870301726"><ele>245.0</ele><time>2026-05-02T14:47:37.999Z</time></trkpt><trkpt lat="39.192138747370166" lon="8.61023468086279"><ele>245.0</ele><time>2026-05-02T14:47:39.999Z</time></trkpt><trkpt lat="39.1922379933685" lon="8.61029637899073"><ele>245.0</ele><time>2026-05-02T14:47:41.999Z</time></trkpt><trkpt lat="39.19231084788823" lon="8.610310689164509"><ele>245.0</ele><time>2026-05-02T14:47:43.999Z</time></trkpt><trkpt lat="39.19243088393855" lon="8.610360618363613"><ele>245.0</ele><time>2026-05-02T14:47:45.999Z</time></trkpt><trkpt lat="39.19249685863781" lon="8.610431769769953"><ele>245.0</ele><time>2026-05-02T14:47:47.999Z</time></trkpt><trkpt lat="39.19252931646852" lon="8.610511441233204"><ele>243.0</ele><time>2026-05-02T14:47:49.999Z</time></trkpt><trkpt lat="39.192538610668436" lon="8.610605609227079"><ele>241.0</ele><time>2026-05-02T14:47:51.999Z</time></trkpt><trkpt lat="39.192601134994796" lon="8.610709410451383"><ele>239.0</ele><time>2026-05-02T14:47:53.999Z</time></trkpt><trkpt lat="39.192653955177306" lon="8.610798040700287"><ele>237.0</ele><time>2026-05-02T14:47:55.999Z</time></trkpt><trkpt lat="39.19267513716525" lon="8.610934823705309"><ele>235.0</ele><time>2026-05-02T14:47:57.999Z</time></trkpt><trkpt lat="39.19272333017132" lon="8.611051107664593"><ele>235.0</ele><time>2026-05-02T14:47:59.999Z</time></trkpt><trkpt lat="39.19276446701017" lon="8.611156197650633"><ele>235.0</ele><time>2026-05-02T14:48:01.999Z</time></trkpt><trkpt lat="39.19285830838821" lon="8.611227749475864"><ele>235.0</ele><time>2026-05-02T14:48:03.999Z</time></trkpt><trkpt lat="39.192892389348074" lon="8.611339640432675"><ele>235.0</ele><time>2026-05-02T14:48:05.999Z</time></trkpt><trkpt lat="39.192959719684296" lon="8.611495607877982"><ele>235.0</ele><time>2026-05-02T14:48:07.999Z</time></trkpt><trkpt lat="39.19298514878253" lon="8.611593318611721"><ele>235.66666666666666</ele><time>2026-05-02T14:48:08.999Z</time></trkpt><trkpt lat="39.19303790158382" lon="8.611700853603244"><ele>236.33333333333331</ele><time>2026-05-02T14:48:37Z</time></trkpt><trkpt lat="39.193090552688766" lon="8.611746894022648"><ele>237.0</ele><time>2026-05-02T14:48:38Z</time></trkpt><trkpt lat="39.19314342450536" lon="8.611820929634636"><ele>237.66666666666669</ele><time>2026-05-02T14:48:39Z</time></trkpt><trkpt lat="39.19322623803588" lon="8.611879474796591"><ele>238.33333333333334</ele><time>2026-05-02T14:48:40Z</time></trkpt><trkpt lat="39.19329848199184" lon="8.611919305537603"><ele>239.0</ele><time>2026-05-02T14:48:41Z</time></trkpt><trkpt lat="39.19336125587626" lon="8.61194273376308"><ele>240.2</ele><time>2026-05-02T14:48:42Z</time></trkpt><trkpt lat="39.19346220023769" lon="8.61196538537616"><ele>241.39999999999998</ele><time>2026-05-02T14:48:43Z</time></trkpt><trkpt lat="39.193571777073636" lon="8.61198893008167"><ele>242.6</ele><time>2026-05-02T14:48:44Z</time></trkpt><trkpt lat="39.19365169932993" lon="8.612019501649836"><ele>243.8</ele><time>2026-05-02T14:48:45Z</time></trkpt><trkpt lat="39.19372848613192" lon="8.612077768125745"><ele>245.0</ele><time>2026-05-02T14:48:46Z</time></trkpt><trkpt lat="39.19380514535424" lon="8.612167486371346"><ele>245.4</ele><time>2026-05-02T14:48:47Z</time></trkpt><trkpt lat="39.19388734461731" lon="8.612264069280423"><ele>245.8</ele><time>2026-05-02T14:48:48Z</time></trkpt><trkpt lat="39.193959098293" lon="8.612367341712226"><ele>246.2</ele><time>2026-05-02T14:48:49Z</time></trkpt><trkpt lat="39.194012045954416" lon="8.612461643296022"><ele>246.6</ele><time>2026-05-02T14:48:50Z</time></trkpt><trkpt lat="39.19405329981852" lon="8.612533195601747"><ele>247.0</ele><time>2026-05-02T14:48:51Z</time></trkpt><trkpt lat="39.194119069715704" lon="8.612584179775562"><ele>248.39999999999998</ele><time>2026-05-02T14:48:55Z</time></trkpt><trkpt lat="39.194137087400094" lon="8.612708597630933"><ele>249.79999999999998</ele><time>2026-05-02T14:49:00Z</time></trkpt><trkpt lat="39.19414619710347" lon="8.612825030231118"><ele>251.2</ele><time>2026-05-02T14:49:01Z</time></trkpt><trkpt lat="39.19416921099929" lon="8.612950311584717"><ele>252.6</ele><time>2026-05-02T14:49:02Z</time></trkpt><trkpt lat="39.19420793385079" lon="8.613077293912601"><ele>254.0</ele><time>2026-05-02T14:49:04Z</time></trkpt><trkpt lat="39.19425509363071" lon="8.613138456500018"><ele>254.0</ele><time>2026-05-02T14:49:05Z</time></trkpt><trkpt lat="39.19435183141025" lon="8.6132054462684"><ele>253.99999999999997</ele><time>2026-05-02T14:49:06Z</time></trkpt><trkpt lat="39.19442205540154" lon="8.613244533119156"><ele>253.99999999999997</ele><time>2026-05-02T14:49:08Z</time></trkpt><trkpt lat="39.19443625639383" lon="8.613327681452438"><ele>254.0</ele><time>2026-05-02T14:49:14Z</time></trkpt><trkpt lat="39.194496858903705" lon="8.613471206044863"><ele>254.0</ele><time>2026-05-02T14:49:16Z</time></trkpt><trkpt lat="39.194539439269754" lon="8.613563541038499"><ele>255.33333333333334</ele><time>2026-05-02T14:49:17Z</time></trkpt><trkpt lat="39.194575176536695" lon="8.613668080675637"><ele>256.6666666666667</ele><time>2026-05-02T14:49:19Z</time></trkpt><trkpt lat="39.194606278810106" lon="8.613768943654462"><ele>258.0</ele><time>2026-05-02T14:49:21Z</time></trkpt><trkpt lat="39.19464550947819" lon="8.613834294457938"><ele>259.3333333333333</ele><time>2026-05-02T14:49:23Z</time></trkpt><trkpt lat="39.19469060923205" lon="8.61395295441618"><ele>260.66666666666663</ele><time>2026-05-02T14:49:26Z</time></trkpt><trkpt lat="39.194730457356364" lon="8.614054397629523"><ele>262.0</ele><time>2026-05-02T14:49:27.999Z</time></trkpt><trkpt lat="39.19477399970624" lon="8.614172427691615"><ele>262.0</ele><time>2026-05-02T14:49:29.999Z</time></trkpt><trkpt lat="39.19482161221707" lon="8.614292313011836"><ele>262.0</ele><time>2026-05-02T14:49:31.999Z</time></trkpt><trkpt lat="39.194861308506354" lon="8.614380016092982"><ele>262.0</ele><time>2026-05-02T14:49:33.999Z</time></trkpt><trkpt lat="39.19491105447446" lon="8.614455899063827"><ele>262.0</ele><time>2026-05-02T14:49:35.999Z</time></trkpt><trkpt lat="39.19492672843892" lon="8.614575874585663"><ele>262.0</ele><time>2026-05-02T14:49:37.999Z</time></trkpt><trkpt lat="39.19491185341705" lon="8.614713355075086"><ele>261.4</ele><time>2026-05-02T14:49:39.999Z</time></trkpt><trkpt lat="39.194972761606756" lon="8.614821160711198"><ele>260.79999999999995</ele><time>2026-05-02T14:49:41.999Z</time></trkpt><trkpt lat="39.19507361570891" lon="8.614862888197402"><ele>260.2</ele><time>2026-05-02T14:49:43.999Z</time></trkpt><trkpt lat="39.1951678008651" lon="8.61484655596796"><ele>259.59999999999997</ele><time>2026-05-02T14:49:45.999Z</time></trkpt><trkpt lat="39.19527291958411" lon="8.61484723976736"><ele>259.0</ele><time>2026-05-02T14:49:47.999Z</time></trkpt><trkpt lat="39.19537179356485" lon="8.614838728208289"><ele>259.0</ele><time>2026-05-02T14:49:49.999Z</time></trkpt><trkpt lat="39.19546572937358" lon="8.61482567404439"><ele>259.0</ele><time>2026-05-02T14:49:51.999Z</time></trkpt><trkpt lat="39.19558914162026" lon="8.614798134793508"><ele>259.0</ele><time>2026-05-02T14:49:53.999Z</time></trkpt><trkpt lat="39.1956605947963" lon="8.614808393784124"><ele>259.0</ele><time>2026-05-02T14:49:55.999Z</time></trkpt><trkpt lat="39.195724484679296" lon="8.614787769603907"><ele>259.0</ele><time>2026-05-02T14:49:57.999Z</time></trkpt><trkpt lat="39.195828609129144" lon="8.614728473967906"><ele>259.66666666666663</ele><time>2026-05-02T14:49:59.999Z</time></trkpt><trkpt lat="39.19588942757949" lon="8.614675547875848"><ele>260.3333333333333</ele><time>2026-05-02T14:50:00.999Z</time></trkpt><trkpt lat="39.19594660669802" lon="8.614617332009228"><ele>261.0</ele><time>2026-05-02T14:50:01.999Z</time></trkpt><trkpt lat="39.19600845575667" lon="8.614562709759056"><ele>261.6666666666667</ele><time>2026-05-02T14:50:02.999Z</time></trkpt><trkpt lat="39.19606808612494" lon="8.614504219148168"><ele>262.33333333333337</ele><time>2026-05-02T14:50:03.999Z</time></trkpt><trkpt lat="39.19612642367893" lon="8.61445251316684"><ele>263.0</ele><time>2026-05-02T14:50:04.999Z</time></trkpt><trkpt lat="39.1962452577234" lon="8.614371657561067"><ele>263.8</ele><time>2026-05-02T14:50:06.999Z</time></trkpt><trkpt lat="39.19631819064442" lon="8.614329088352711"><ele>264.6</ele><time>2026-05-02T14:50:07.999Z</time></trkpt><trkpt lat="39.19639654304999" lon="8.61428504275474"><ele>265.4</ele><time>2026-05-02T14:50:08.999Z</time></trkpt><trkpt lat="39.19647886165349" lon="8.614242228639256"><ele>266.2</ele><time>2026-05-02T14:50:09.999Z</time></trkpt><trkpt lat="39.19656849340172" lon="8.614201321874926"><ele>267.0</ele><time>2026-05-02T14:50:10.999Z</time></trkpt><trkpt lat="39.19666469294255" lon="8.614156065421014"><ele>268.4</ele><time>2026-05-02T14:50:11.999Z</time></trkpt><trkpt lat="39.19675673823288" lon="8.61410381148624"><ele>269.79999999999995</ele><time>2026-05-02T14:50:12.999Z</time></trkpt><trkpt lat="39.19684676659826" lon="8.614074263223012"><ele>271.2</ele><time>2026-05-02T14:50:13.999Z</time></trkpt><trkpt lat="39.19693980579647" lon="8.614066613798585"><ele>272.59999999999997</ele><time>2026-05-02T14:50:14.999Z</time></trkpt><trkpt lat="39.19703790685182" lon="8.614079855684576"><ele>274.0</ele><time>2026-05-02T14:50:15.999Z</time></trkpt><trkpt lat="39.19713358467378" lon="8.61412736664871"><ele>274.0</ele><time>2026-05-02T14:50:16.999Z</time></trkpt><trkpt lat="39.19722476231417" lon="8.614191109826129"><ele>274.0</ele><time>2026-05-02T14:50:17.999Z</time></trkpt><trkpt lat="39.19732055358582" lon="8.614242319249016"><ele>274.0</ele><time>2026-05-02T14:50:18.999Z</time></trkpt><trkpt lat="39.19741852182074" lon="8.614259764432363"><ele>274.0</ele><time>2026-05-02T14:50:19.999Z</time></trkpt><trkpt lat="39.19752162156646" lon="8.614252505806348"><ele>274.0</ele><time>2026-05-02T14:50:20.999Z</time></trkpt><trkpt lat="39.19762991665795" lon="8.614231722396523"><ele>274.0</ele><time>2026-05-02T14:50:21.999Z</time></trkpt><trkpt lat="39.197725111054254" lon="8.61419860454782"><ele>274.0</ele><time>2026-05-02T14:50:22.999Z</time></trkpt><trkpt lat="39.197822521620324" lon="8.614162270603158"><ele>274.0</ele><time>2026-05-02T14:50:23.999Z</time></trkpt><trkpt lat="39.19792129680983" lon="8.614129086068584"><ele>274.0</ele><time>2026-05-02T14:50:24.999Z</time></trkpt><trkpt lat="39.19800874980231" lon="8.614105544632508"><ele>274.0</ele><time>2026-05-02T14:50:25.999Z</time></trkpt><trkpt lat="39.19811040526302" lon="8.614103418663294"><ele>273.4</ele><time>2026-05-02T14:50:26.999Z</time></trkpt><trkpt lat="39.19821480138646" lon="8.614107395936529"><ele>272.79999999999995</ele><time>2026-05-02T14:50:27.999Z</time></trkpt><trkpt lat="39.19832480922676" lon="8.614093293699872"><ele>272.20000000000005</ele><time>2026-05-02T14:50:28.999Z</time></trkpt><trkpt lat="39.198421530437926" lon="8.614060784981815"><ele>271.6</ele><time>2026-05-02T14:50:29.999Z</time></trkpt><trkpt lat="39.198511248479505" lon="8.61402125367819"><ele>271.0</ele><time>2026-05-02T14:50:30.999Z</time></trkpt><trkpt lat="39.19859492634501" lon="8.613957582616978"><ele>271.0</ele><time>2026-05-02T14:50:31.999Z</time></trkpt><trkpt lat="39.19866308586337" lon="8.61386466781033"><ele>271.0</ele><time>2026-05-02T14:50:32.999Z</time></trkpt><trkpt lat="39.19872996701227" lon="8.61376203008052"><ele>271.0</ele><time>2026-05-02T14:50:33.999Z</time></trkpt><trkpt lat="39.19881614755659" lon="8.613682595937279"><ele>271.0</ele><time>2026-05-02T14:50:34.999Z</time></trkpt><trkpt lat="39.198919651808815" lon="8.613626639846338"><ele>271.0</ele><time>2026-05-02T14:50:35.999Z</time></trkpt><trkpt lat="39.199024965214214" lon="8.613584215021763"><ele>273.40000000000003</ele><time>2026-05-02T14:50:36.999Z</time></trkpt><trkpt lat="39.199130874762844" lon="8.613536085347263"><ele>275.8</ele><time>2026-05-02T14:50:37.999Z</time></trkpt><trkpt lat="39.19923291416275" lon="8.613495854991942"><ele>278.20000000000005</ele><time>2026-05-02T14:50:38.999Z</time></trkpt><trkpt lat="39.19932357296518" lon="8.613458411139835"><ele>280.6</ele><time>2026-05-02T14:50:39.999Z</time></trkpt><trkpt lat="39.199418236491965" lon="8.613451466898836"><ele>283.0</ele><time>2026-05-02T14:50:40.999Z</time></trkpt><trkpt lat="39.19951124047212" lon="8.613468194415168"><ele>283.0</ele><time>2026-05-02T14:50:42Z</time></trkpt><trkpt lat="39.19960564126702" lon="8.61349726399046"><ele>283.0</ele><time>2026-05-02T14:50:43Z</time></trkpt><trkpt lat="39.199702018046736" lon="8.613528356971234"><ele>283.0</ele><time>2026-05-02T14:50:44Z</time></trkpt><trkpt lat="39.19979775135737" lon="8.613566029709666"><ele>283.0</ele><time>2026-05-02T14:50:45Z</time></trkpt><trkpt lat="39.19989048279116" lon="8.613622806680521"><ele>283.0</ele><time>2026-05-02T14:50:46Z</time></trkpt><trkpt lat="39.199975537165116" lon="8.61369869498578"><ele>280.4</ele><time>2026-05-02T14:50:47Z</time></trkpt><trkpt lat="39.200053007526904" lon="8.613796050325206"><ele>277.8</ele><time>2026-05-02T14:50:48Z</time></trkpt><trkpt lat="39.20012434705831" lon="8.613892595947373"><ele>275.2</ele><time>2026-05-02T14:50:49Z</time></trkpt><trkpt lat="39.200195225508494" lon="8.613959250158619"><ele>272.6</ele><time>2026-05-02T14:50:50Z</time></trkpt><trkpt lat="39.20027646731734" lon="8.614021581362397"><ele>270.0</ele><time>2026-05-02T14:50:51Z</time></trkpt><trkpt lat="39.20035492220723" lon="8.61410482262798"><ele>270.0</ele><time>2026-05-02T14:50:52Z</time></trkpt><trkpt lat="39.2004174052234" lon="8.614210227367112"><ele>270.0</ele><time>2026-05-02T14:50:53Z</time></trkpt><trkpt lat="39.20046950787286" lon="8.61432625420124"><ele>270.0</ele><time>2026-05-02T14:50:54Z</time></trkpt><trkpt lat="39.20051953149999" lon="8.614442866226572"><ele>270.0</ele><time>2026-05-02T14:50:55Z</time></trkpt><trkpt lat="39.20056840005766" lon="8.614557388128983"><ele>270.0</ele><time>2026-05-02T14:50:56Z</time></trkpt><trkpt lat="39.20061021723239" lon="8.614675071502125"><ele>270.3333333333333</ele><time>2026-05-02T14:50:57Z</time></trkpt><trkpt lat="39.200649948687094" lon="8.614783326689215"><ele>270.6666666666667</ele><time>2026-05-02T14:50:58Z</time></trkpt><trkpt lat="39.20070985939168" lon="8.614867530041195"><ele>271.0</ele><time>2026-05-02T14:50:59Z</time></trkpt><trkpt lat="39.20077761082091" lon="8.614929267133064"><ele>271.33333333333337</ele><time>2026-05-02T14:51:00Z</time></trkpt><trkpt lat="39.20083662665236" lon="8.615003231421715"><ele>271.6666666666667</ele><time>2026-05-02T14:51:01Z</time></trkpt><trkpt lat="39.20087517289487" lon="8.615092914787654"><ele>272.0</ele><time>2026-05-02T14:51:02Z</time></trkpt><trkpt lat="39.20088180191271" lon="8.615201910718838"><ele>273.8</ele><time>2026-05-02T14:51:03Z</time></trkpt><trkpt lat="39.20086227978809" lon="8.61533263917123"><ele>275.6</ele><time>2026-05-02T14:51:04Z</time></trkpt><trkpt lat="39.20082891244768" lon="8.615472288640339"><ele>277.40000000000003</ele><time>2026-05-02T14:51:05Z</time></trkpt><trkpt lat="39.200804159056005" lon="8.615602306935955"><ele>279.2</ele><time>2026-05-02T14:51:06Z</time></trkpt><trkpt lat="39.200786715785426" lon="8.615724301048436"><ele>281.0</ele><time>2026-05-02T14:51:07Z</time></trkpt><trkpt lat="39.20076587869455" lon="8.615853057362424"><ele>281.0</ele><time>2026-05-02T14:51:08Z</time></trkpt><trkpt lat="39.20074376031941" lon="8.615981768991938"><ele>281.0</ele><time>2026-05-02T14:51:09Z</time></trkpt><trkpt lat="39.20074086049462" lon="8.61611530566219"><ele>281.0</ele><time>2026-05-02T14:51:10Z</time></trkpt><trkpt lat="39.20076777372205" lon="8.616260671828348"><ele>281.0</ele><time>2026-05-02T14:51:11Z</time></trkpt><trkpt lat="39.200794380077" lon="8.616415020140625"><ele>281.0</ele><time>2026-05-02T14:51:12Z</time></trkpt><trkpt lat="39.20081028208217" lon="8.616562675425486"><ele>281.25</ele><time>2026-05-02T14:51:13Z</time></trkpt><trkpt lat="39.20082951779177" lon="8.616711983518373"><ele>281.5</ele><time>2026-05-02T14:51:14Z</time></trkpt><trkpt lat="39.200856599723274" lon="8.61686650690406"><ele>281.75</ele><time>2026-05-02T14:51:15Z</time></trkpt><trkpt lat="39.20088426108849" lon="8.617021920845334"><ele>282.0</ele><time>2026-05-02T14:51:16Z</time></trkpt><trkpt lat="39.20092075687604" lon="8.617177103093043"><ele>282.25</ele><time>2026-05-02T14:51:17Z</time></trkpt><trkpt lat="39.20096788076901" lon="8.617324243847943"><ele>282.5</ele><time>2026-05-02T14:51:18Z</time></trkpt><trkpt lat="39.201016326231205" lon="8.617464311318187"><ele>282.75</ele><time>2026-05-02T14:51:19Z</time></trkpt><trkpt lat="39.201062265317795" lon="8.617593798577774"><ele>283.0</ele><time>2026-05-02T14:51:20Z</time></trkpt><trkpt lat="39.20108506208534" lon="8.617718453498163"><ele>284.0</ele><time>2026-05-02T14:51:21Z</time></trkpt><trkpt lat="39.20108953198727" lon="8.617842877435901"><ele>285.0</ele><time>2026-05-02T14:51:22Z</time></trkpt><trkpt lat="39.2010892450541" lon="8.617969619338941"><ele>286.0</ele><time>2026-05-02T14:51:23Z</time></trkpt><trkpt lat="39.20109473546071" lon="8.618095242748314"><ele>287.0</ele><time>2026-05-02T14:51:24Z</time></trkpt><trkpt lat="39.201104501123176" lon="8.618228469083206"><ele>288.0</ele><time>2026-05-02T14:51:25Z</time></trkpt><trkpt lat="39.20110524414316" lon="8.618357499102222"><ele>288.0</ele><time>2026-05-02T14:51:26Z</time></trkpt><trkpt lat="39.20108803568223" lon="8.618503762036319"><ele>288.0</ele><time>2026-05-02T14:51:27Z</time></trkpt><trkpt lat="39.20106126858405" lon="8.618652090581747"><ele>288.0</ele><time>2026-05-02T14:51:28Z</time></trkpt><trkpt lat="39.20104460401078" lon="8.618814943293394"><ele>288.0</ele><time>2026-05-02T14:51:29Z</time></trkpt><trkpt lat="39.201029648513135" lon="8.618969989302482"><ele>289.6</ele><time>2026-05-02T14:51:30Z</time></trkpt><trkpt lat="39.201006692059046" lon="8.619102319865169"><ele>291.20000000000005</ele><time>2026-05-02T14:51:31Z</time></trkpt><trkpt lat="39.20099396166855" lon="8.619227796083548"><ele>292.8</ele><time>2026-05-02T14:51:32Z</time></trkpt><trkpt lat="39.2010055893094" lon="8.619357587844462"><ele>294.40000000000003</ele><time>2026-05-02T14:51:33Z</time></trkpt><trkpt lat="39.20103603074966" lon="8.619505517489308"><ele>296.0</ele><time>2026-05-02T14:51:34Z</time></trkpt><trkpt lat="39.20107537720113" lon="8.61963715081042"><ele>296.6</ele><time>2026-05-02T14:51:34.999Z</time></trkpt><trkpt lat="39.20112922081416" lon="8.619746265697747"><ele>297.20000000000005</ele><time>2026-05-02T14:51:35.999Z</time></trkpt><trkpt lat="39.2012023275195" lon="8.619853164051074"><ele>297.79999999999995</ele><time>2026-05-02T14:51:36.999Z</time></trkpt><trkpt lat="39.20127705487197" lon="8.619960797265275"><ele>298.4</ele><time>2026-05-02T14:51:37.999Z</time></trkpt><trkpt lat="39.20133879882022" lon="8.620063525700786"><ele>299.0</ele><time>2026-05-02T14:51:38.999Z</time></trkpt><trkpt lat="39.20139834351358" lon="8.620151842158856"><ele>299.0</ele><time>2026-05-02T14:51:39.999Z</time></trkpt><trkpt lat="39.201442535363825" lon="8.620250035327869"><ele>299.0</ele><time>2026-05-02T14:51:40.999Z</time></trkpt><trkpt lat="39.201483457253" lon="8.620360904343352"><ele>299.0</ele><time>2026-05-02T14:51:41.999Z</time></trkpt><trkpt lat="39.201537493866724" lon="8.620478895784363"><ele>299.0</ele><time>2026-05-02T14:51:42.999Z</time></trkpt><trkpt lat="39.20159360293691" lon="8.620596880478173"><ele>299.0</ele><time>2026-05-02T14:51:43.999Z</time></trkpt><trkpt lat="39.20163776438097" lon="8.620734218356933"><ele>299.0</ele><time>2026-05-02T14:51:44.999Z</time></trkpt><trkpt lat="39.201675847706646" lon="8.620874882763946"><ele>299.0</ele><time>2026-05-02T14:51:45.999Z</time></trkpt><trkpt lat="39.20171857660254" lon="8.62101332383282"><ele>299.0</ele><time>2026-05-02T14:51:46.999Z</time></trkpt><trkpt lat="39.201772188990994" lon="8.621148922797717"><ele>299.0</ele><time>2026-05-02T14:51:47.999Z</time></trkpt><trkpt lat="39.20182854971765" lon="8.621267182752232"><ele>299.0</ele><time>2026-05-02T14:51:48.999Z</time></trkpt><trkpt lat="39.201880324193866" lon="8.621369833099736"><ele>299.0</ele><time>2026-05-02T14:51:49.999Z</time></trkpt><trkpt lat="39.201942989399825" lon="8.621493663101324"><ele>299.0</ele><time>2026-05-02T14:51:50.999Z</time></trkpt><trkpt lat="39.20200662956953" lon="8.62163226346163"><ele>299.0</ele><time>2026-05-02T14:51:51.999Z</time></trkpt><trkpt lat="39.20206912538838" lon="8.62176759220422"><ele>299.0</ele><time>2026-05-02T14:51:52.999Z</time></trkpt><trkpt lat="39.2021322472013" lon="8.62190070987963"><ele>299.0</ele><time>2026-05-02T14:51:53.999Z</time></trkpt><trkpt lat="39.20220189799898" lon="8.62202667265834"><ele>299.0</ele><time>2026-05-02T14:51:54.999Z</time></trkpt><trkpt lat="39.20227586505536" lon="8.622151013770624"><ele>299.0</ele><time>2026-05-02T14:51:55.999Z</time></trkpt><trkpt lat="39.20235202469883" lon="8.622276746698793"><ele>300.0</ele><time>2026-05-02T14:51:56.999Z</time></trkpt><trkpt lat="39.202428026663966" lon="8.622404479004578"><ele>301.0</ele><time>2026-05-02T14:51:57.999Z</time></trkpt><trkpt lat="39.20250242089692" lon="8.622528734045606"><ele>302.0</ele><time>2026-05-02T14:51:58.999Z</time></trkpt><trkpt lat="39.20256242814109" lon="8.622653367250667"><ele>303.0</ele><time>2026-05-02T14:51:59.999Z</time></trkpt><trkpt lat="39.20259864496098" lon="8.62278602394403"><ele>304.0</ele><time>2026-05-02T14:52:00.999Z</time></trkpt><trkpt lat="39.202614553246654" lon="8.622922356241824"><ele>305.0</ele><time>2026-05-02T14:52:01.999Z</time></trkpt><trkpt lat="39.20260995785071" lon="8.62305829870645"><ele>306.0</ele><time>2026-05-02T14:52:02.999Z</time></trkpt><trkpt lat="39.20259447443874" lon="8.623198932807728"><ele>307.0</ele><time>2026-05-02T14:52:03.999Z</time></trkpt><trkpt lat="39.202568542552754" lon="8.623341923974506"><ele>308.0</ele><time>2026-05-02T14:52:04.999Z</time></trkpt><trkpt lat="39.20254646288301" lon="8.6234847344833"><ele>308.0</ele><time>2026-05-02T14:52:05.999Z</time></trkpt><trkpt lat="39.20252592295356" lon="8.623631543238451"><ele>308.0</ele><time>2026-05-02T14:52:06.999Z</time></trkpt><trkpt lat="39.2025075834086" lon="8.623786411222776"><ele>308.0</ele><time>2026-05-02T14:52:07.999Z</time></trkpt><trkpt lat="39.20249947524126" lon="8.62394219619216"><ele>308.0</ele><time>2026-05-02T14:52:08.999Z</time></trkpt><trkpt lat="39.202486386956664" lon="8.624091593865499"><ele>309.0</ele><time>2026-05-02T14:52:09.999Z</time></trkpt><trkpt lat="39.20247056753961" lon="8.624217516773331"><ele>310.0</ele><time>2026-05-02T14:52:10.999Z</time></trkpt><trkpt lat="39.20246558522527" lon="8.624321712977864"><ele>311.0</ele><time>2026-05-02T14:52:11.999Z</time></trkpt><trkpt lat="39.2024760701421" lon="8.624423540159745"><ele>312.0</ele><time>2026-05-02T14:52:12.999Z</time></trkpt><trkpt lat="39.202506511753214" lon="8.624541518306614"><ele>313.0</ele><time>2026-05-02T14:52:13.999Z</time></trkpt><trkpt lat="39.202549954860324" lon="8.624671897997997"><ele>313.8</ele><time>2026-05-02T14:52:14.999Z</time></trkpt><trkpt lat="39.20259533063358" lon="8.62478967025223"><ele>314.6</ele><time>2026-05-02T14:52:15.999Z</time></trkpt><trkpt lat="39.20265041606683" lon="8.62489247500907"><ele>315.4</ele><time>2026-05-02T14:52:16.999Z</time></trkpt><trkpt lat="39.20272531216507" lon="8.624971517556332"><ele>316.2</ele><time>2026-05-02T14:52:17.999Z</time></trkpt><trkpt lat="39.20280672215784" lon="8.625048874811133"><ele>317.0</ele><time>2026-05-02T14:52:18.999Z</time></trkpt><trkpt lat="39.20286619832796" lon="8.62512700107326"><ele>317.0</ele><time>2026-05-02T14:52:19.999Z</time></trkpt><trkpt lat="39.20291238885327" lon="8.625211985379229"><ele>317.0</ele><time>2026-05-02T14:52:20.999Z</time></trkpt><trkpt lat="39.202960302370464" lon="8.625304935436596"><ele>317.0</ele><time>2026-05-02T14:52:21.999Z</time></trkpt><trkpt lat="39.20300602374133" lon="8.625406872861406"><ele>317.0</ele><time>2026-05-02T14:52:22.999Z</time></trkpt><trkpt lat="39.20303775573492" lon="8.625507173275844"><ele>317.0</ele><time>2026-05-02T14:52:23.999Z</time></trkpt><trkpt lat="39.20308019289801" lon="8.625586603377425"><ele>317.0</ele><time>2026-05-02T14:52:24.999Z</time></trkpt><trkpt lat="39.20314381279857" lon="8.625645059249209"><ele>318.6</ele><time>2026-05-02T14:52:25.999Z</time></trkpt><trkpt lat="39.2032301785996" lon="8.625722899533118"><ele>320.2</ele><time>2026-05-02T14:52:27.999Z</time></trkpt><trkpt lat="39.203312013737005" lon="8.625782224167173"><ele>321.8</ele><time>2026-05-02T14:52:29.999Z</time></trkpt><trkpt lat="39.203395819296524" lon="8.625881227912803"><ele>323.4</ele><time>2026-05-02T14:52:31.999Z</time></trkpt><trkpt lat="39.2033934430011" lon="8.626030096801706"><ele>325.0</ele><time>2026-05-02T14:52:33.999Z</time></trkpt><trkpt lat="39.203362145896484" lon="8.626107211016638"><ele>325.4285714285714</ele><time>2026-05-02T14:52:34.999Z</time></trkpt><trkpt lat="39.20332923492738" lon="8.626179538247474"><ele>325.8571428571429</ele><time>2026-05-02T14:52:35.999Z</time></trkpt><trkpt lat="39.20329656267398" lon="8.626252709330958"><ele>326.2857142857143</ele><time>2026-05-02T14:52:36.999Z</time></trkpt><trkpt lat="39.20325827522407" lon="8.626325874604994"><ele>326.71428571428567</ele><time>2026-05-02T14:52:37.999Z</time></trkpt><trkpt lat="39.20321401964091" lon="8.626397402968419"><ele>327.1428571428571</ele><time>2026-05-02T14:52:38.999Z</time></trkpt><trkpt lat="39.20316870923888" lon="8.626473777484604"><ele>327.57142857142856</ele><time>2026-05-02T14:52:39.999Z</time></trkpt><trkpt lat="39.203119868366684" lon="8.626565598936113"><ele>328.0</ele><time>2026-05-02T14:52:40.999Z</time></trkpt><trkpt lat="39.20307605903916" lon="8.626685430531149"><ele>328.0</ele><time>2026-05-02T14:52:41.999Z</time></trkpt><trkpt lat="39.20303293527254" lon="8.626823161428312"><ele>328.0</ele><time>2026-05-02T14:52:42.999Z</time></trkpt><trkpt lat="39.20299993267086" lon="8.62698278245709"><ele>328.0</ele><time>2026-05-02T14:52:43.999Z</time></trkpt><trkpt lat="39.202971583105516" lon="8.627150351846915"><ele>328.0</ele><time>2026-05-02T14:52:44.999Z</time></trkpt><trkpt lat="39.20294142020773" lon="8.62729737728774"><ele>328.59999999999997</ele><time>2026-05-02T14:52:45.999Z</time></trkpt><trkpt lat="39.20291467625879" lon="8.627433422564518"><ele>329.2</ele><time>2026-05-02T14:52:46.999Z</time></trkpt><trkpt lat="39.20290214603916" lon="8.627559970057426"><ele>329.8</ele><time>2026-05-02T14:52:48Z</time></trkpt><trkpt lat="39.20289197862052" lon="8.627692772742865"><ele>330.4</ele><time>2026-05-02T14:52:49Z</time></trkpt><trkpt lat="39.20289102320702" lon="8.627826838394386"><ele>331.0</ele><time>2026-05-02T14:52:50Z</time></trkpt><trkpt lat="39.202891104913625" lon="8.62796908038444"><ele>332.25</ele><time>2026-05-02T14:52:51Z</time></trkpt><trkpt lat="39.202892608219315" lon="8.628113614407336"><ele>333.5</ele><time>2026-05-02T14:52:52Z</time></trkpt><trkpt lat="39.202889555822395" lon="8.62826154251102"><ele>334.75</ele><time>2026-05-02T14:52:53Z</time></trkpt><trkpt lat="39.20287595413271" lon="8.628411021375149"><ele>336.0</ele><time>2026-05-02T14:52:54Z</time></trkpt><trkpt lat="39.202858453272576" lon="8.62856327924199"><ele>337.0</ele><time>2026-05-02T14:52:55Z</time></trkpt><trkpt lat="39.20284132033748" lon="8.628711160865368"><ele>338.0</ele><time>2026-05-02T14:52:56Z</time></trkpt><trkpt lat="39.20283425101417" lon="8.628860414180041"><ele>339.0</ele><time>2026-05-02T14:52:57Z</time></trkpt><trkpt lat="39.20284430410411" lon="8.629007217597353"><ele>340.0</ele><time>2026-05-02T14:52:58Z</time></trkpt><trkpt lat="39.20285621834657" lon="8.629149215731816"><ele>340.0</ele><time>2026-05-02T14:52:59Z</time></trkpt><trkpt lat="39.202869542032715" lon="8.629294740061926"><ele>340.0</ele><time>2026-05-02T14:53:00Z</time></trkpt><trkpt lat="39.2028814932981" lon="8.629443808828862"><ele>340.0</ele><time>2026-05-02T14:53:01Z</time></trkpt><trkpt lat="39.2028948758402" lon="8.629596127073988"><ele>340.0</ele><time>2026-05-02T14:53:02Z</time></trkpt><trkpt lat="39.20290490201288" lon="8.629751181925114"><ele>340.25</ele><time>2026-05-02T14:53:03Z</time></trkpt><trkpt lat="39.202910444227435" lon="8.629908971470677"><ele>340.5</ele><time>2026-05-02T14:53:04Z</time></trkpt><trkpt lat="39.202914947147256" lon="8.630068592571401"><ele>340.75</ele><time>2026-05-02T14:53:05Z</time></trkpt><trkpt lat="39.20292198023479" lon="8.630239148851272"><ele>341.0</ele><time>2026-05-02T14:53:06Z</time></trkpt><trkpt lat="39.20291739279623" lon="8.63041619799745"><ele>341.75</ele><time>2026-05-02T14:53:07Z</time></trkpt><trkpt lat="39.202903653826546" lon="8.630593973941469"><ele>342.5</ele><time>2026-05-02T14:53:08Z</time></trkpt><trkpt lat="39.20289353816494" lon="8.630763181570124"><ele>343.25</ele><time>2026-05-02T14:53:09Z</time></trkpt><trkpt lat="39.20288919799391" lon="8.630926183725864"><ele>344.0</ele><time>2026-05-02T14:53:10Z</time></trkpt><trkpt lat="39.20288201771992" lon="8.63109204462171"><ele>345.0</ele><time>2026-05-02T14:53:11Z</time></trkpt><trkpt lat="39.202869438585985" lon="8.631259398516148"><ele>346.0</ele><time>2026-05-02T14:53:12Z</time></trkpt><trkpt lat="39.20285839643345" lon="8.631429080572508"><ele>347.0</ele><time>2026-05-02T14:53:13Z</time></trkpt><trkpt lat="39.202848649362274" lon="8.631602150956246"><ele>348.0</ele><time>2026-05-02T14:53:14Z</time></trkpt><trkpt lat="39.20283998691053" lon="8.63177800717947"><ele>348.0</ele><time>2026-05-02T14:53:15Z</time></trkpt><trkpt lat="39.202826702252366" lon="8.63195655416704"><ele>348.0</ele><time>2026-05-02T14:53:16Z</time></trkpt><trkpt lat="39.20281553719431" lon="8.632137852218408"><ele>348.0</ele><time>2026-05-02T14:53:17Z</time></trkpt><trkpt lat="39.20280889996248" lon="8.632326840053462"><ele>348.0</ele><time>2026-05-02T14:53:18Z</time></trkpt><trkpt lat="39.202812121503065" lon="8.632522415657588"><ele>349.0</ele><time>2026-05-02T14:53:19Z</time></trkpt><trkpt lat="39.202827768846724" lon="8.632700249855551"><ele>350.0</ele><time>2026-05-02T14:53:20Z</time></trkpt><trkpt lat="39.20285250590933" lon="8.632891205715861"><ele>351.0</ele><time>2026-05-02T14:53:21Z</time></trkpt><trkpt lat="39.202880490246976" lon="8.63307466966347"><ele>352.0</ele><time>2026-05-02T14:53:22Z</time></trkpt><trkpt lat="39.2028974343856" lon="8.633240745141435"><ele>352.25</ele><time>2026-05-02T14:53:23Z</time></trkpt><trkpt lat="39.20290704882915" lon="8.633406780196493"><ele>352.5</ele><time>2026-05-02T14:53:24Z</time></trkpt><trkpt lat="39.20290919370289" lon="8.63357744255425"><ele>352.75</ele><time>2026-05-02T14:53:25Z</time></trkpt><trkpt lat="39.202903450781626" lon="8.633748271653849"><ele>353.0</ele><time>2026-05-02T14:53:26Z</time></trkpt><trkpt lat="39.202882559713274" lon="8.633920286242518"><ele>352.0</ele><time>2026-05-02T14:53:27Z</time></trkpt><trkpt lat="39.20285340165649" lon="8.634098165019914"><ele>351.0</ele><time>2026-05-02T14:53:28Z</time></trkpt><trkpt lat="39.20282102879248" lon="8.63427653409392"><ele>350.0</ele><time>2026-05-02T14:53:29Z</time></trkpt><trkpt lat="39.202790779421065" lon="8.634455182241675"><ele>349.0</ele><time>2026-05-02T14:53:30Z</time></trkpt><trkpt lat="39.202761412476626" lon="8.634630154721625"><ele>347.5</ele><time>2026-05-02T14:53:31Z</time></trkpt><trkpt lat="39.20272892965862" lon="8.634805510418843"><ele>346.0</ele><time>2026-05-02T14:53:32Z</time></trkpt><trkpt lat="39.20269226904167" lon="8.634978829114196"><ele>344.5</ele><time>2026-05-02T14:53:33Z</time></trkpt><trkpt lat="39.202644147573764" lon="8.635147343472546"><ele>343.0</ele><time>2026-05-02T14:53:34Z</time></trkpt><trkpt lat="39.202579704804016" lon="8.635311136929637"><ele>341.25</ele><time>2026-05-02T14:53:35Z</time></trkpt><trkpt lat="39.20249599353079" lon="8.635465890731147"><ele>339.5</ele><time>2026-05-02T14:53:36Z</time></trkpt><trkpt lat="39.20239800206963" lon="8.635612738292274"><ele>337.75</ele><time>2026-05-02T14:53:37Z</time></trkpt><trkpt lat="39.20229825234398" lon="8.63575798682967"><ele>336.0</ele><time>2026-05-02T14:53:38Z</time></trkpt><trkpt lat="39.20220197393025" lon="8.63591019307245"><ele>335.25</ele><time>2026-05-02T14:53:38.999Z</time></trkpt><trkpt lat="39.202115609818314" lon="8.63607216656979"><ele>334.5</ele><time>2026-05-02T14:53:39.999Z</time></trkpt><trkpt lat="39.202037930082476" lon="8.636236597958101"><ele>333.75</ele><time>2026-05-02T14:53:40.999Z</time></trkpt><trkpt lat="39.20196978551011" lon="8.63640351409188"><ele>333.0</ele><time>2026-05-02T14:53:41.999Z</time></trkpt><trkpt lat="39.201905620691946" lon="8.636568258590877"><ele>333.0</ele><time>2026-05-02T14:53:42.999Z</time></trkpt><trkpt lat="39.20184190660129" lon="8.63673023864651"><ele>333.0</ele><time>2026-05-02T14:53:43.999Z</time></trkpt><trkpt lat="39.20178361843402" lon="8.636889339772463"><ele>333.0</ele><time>2026-05-02T14:53:44.999Z</time></trkpt><trkpt lat="39.2017301336959" lon="8.637049707198877"><ele>333.0</ele><time>2026-05-02T14:53:45.999Z</time></trkpt><trkpt lat="39.201672311034" lon="8.637201828106686"><ele>334.5</ele><time>2026-05-02T14:53:46.999Z</time></trkpt><trkpt lat="39.20162098936334" lon="8.637358752204669"><ele>336.0</ele><time>2026-05-02T14:53:47.999Z</time></trkpt><trkpt lat="39.201575717662145" lon="8.637517182514515"><ele>337.5</ele><time>2026-05-02T14:53:48.999Z</time></trkpt><trkpt lat="39.20153117163242" lon="8.637678113839101"><ele>339.0</ele><time>2026-05-02T14:53:49.999Z</time></trkpt><trkpt lat="39.201489133609776" lon="8.637838586009401"><ele>343.5</ele><time>2026-05-02T14:53:50.999Z</time></trkpt><trkpt lat="39.201449360748185" lon="8.63799994485206"><ele>348.0</ele><time>2026-05-02T14:53:51.999Z</time></trkpt><trkpt lat="39.20141219343443" lon="8.638160820554829"><ele>352.5</ele><time>2026-05-02T14:53:52.999Z</time></trkpt><trkpt lat="39.20137477922987" lon="8.638320734821676"><ele>357.0</ele><time>2026-05-02T14:53:53.999Z</time></trkpt><trkpt lat="39.20133800425688" lon="8.638480561444666"><ele>356.25</ele><time>2026-05-02T14:53:54.999Z</time></trkpt><trkpt lat="39.20130403322862" lon="8.638642009779959"><ele>355.5</ele><time>2026-05-02T14:53:55.999Z</time></trkpt><trkpt lat="39.201260031100766" lon="8.63880112390826"><ele>354.75</ele><time>2026-05-02T14:53:56.999Z</time></trkpt><trkpt lat="39.20120969033074" lon="8.638966269615052"><ele>354.0</ele><time>2026-05-02T14:53:57.999Z</time></trkpt><trkpt lat="39.201155829033745" lon="8.639127519698533"><ele>354.0</ele><time>2026-05-02T14:53:58.999Z</time></trkpt><trkpt lat="39.2011017846809" lon="8.639281361313172"><ele>354.0</ele><time>2026-05-02T14:53:59.999Z</time></trkpt><trkpt lat="39.20104950373451" lon="8.639433151907514"><ele>354.0</ele><time>2026-05-02T14:54:00.999Z</time></trkpt><trkpt lat="39.20100551161338" lon="8.639590681420573"><ele>354.0</ele><time>2026-05-02T14:54:01.999Z</time></trkpt><trkpt lat="39.2009653479573" lon="8.63975226502804"><ele>353.75</ele><time>2026-05-02T14:54:02.999Z</time></trkpt><trkpt lat="39.20093994008732" lon="8.639921535410917"><ele>353.5</ele><time>2026-05-02T14:54:03.999Z</time></trkpt><trkpt lat="39.20092708956385" lon="8.640095244105565"><ele>353.25</ele><time>2026-05-02T14:54:04.999Z</time></trkpt><trkpt lat="39.20092057647563" lon="8.64027345270793"><ele>353.0</ele><time>2026-05-02T14:54:05.999Z</time></trkpt><trkpt lat="39.200920607067324" lon="8.640454509150503"><ele>353.0</ele><time>2026-05-02T14:54:06.999Z</time></trkpt><trkpt lat="39.20092399358119" lon="8.64063864440411"><ele>353.0</ele><time>2026-05-02T14:54:07.999Z</time></trkpt><trkpt lat="39.20092346043057" lon="8.640823106852544"><ele>353.0</ele><time>2026-05-02T14:54:08.999Z</time></trkpt><trkpt lat="39.200921730517265" lon="8.641009467112147"><ele>353.0</ele><time>2026-05-02T14:54:09.999Z</time></trkpt><trkpt lat="39.200917048224525" lon="8.641195292862662"><ele>352.0</ele><time>2026-05-02T14:54:10.999Z</time></trkpt><trkpt lat="39.20090742948492" lon="8.641381802422414"><ele>351.0</ele><time>2026-05-02T14:54:11.999Z</time></trkpt><trkpt lat="39.200887934616276" lon="8.641568233913784"><ele>350.0</ele><time>2026-05-02T14:54:12.999Z</time></trkpt><trkpt lat="39.200847563137735" lon="8.641751394427912"><ele>349.0</ele><time>2026-05-02T14:54:13.999Z</time></trkpt><trkpt lat="39.20079526024288" lon="8.641931978744706"><ele>349.0</ele><time>2026-05-02T14:54:14.999Z</time></trkpt><trkpt lat="39.200739415309556" lon="8.642113084054031"><ele>349.0</ele><time>2026-05-02T14:54:15.999Z</time></trkpt><trkpt lat="39.200684871729365" lon="8.642297550457641"><ele>349.0</ele><time>2026-05-02T14:54:16.999Z</time></trkpt><trkpt lat="39.20063189240091" lon="8.642484106481888"><ele>349.0</ele><time>2026-05-02T14:54:17.999Z</time></trkpt><trkpt lat="39.20058213229005" lon="8.642675399293562"><ele>349.0</ele><time>2026-05-02T14:54:18.999Z</time></trkpt><trkpt lat="39.20052946699302" lon="8.64286749101138"><ele>349.0</ele><time>2026-05-02T14:54:19.999Z</time></trkpt><trkpt lat="39.200474017997195" lon="8.643058020234724"><ele>347.3333333333333</ele><time>2026-05-02T14:54:20.999Z</time></trkpt><trkpt lat="39.20041820538337" lon="8.643244576082278"><ele>345.6666666666667</ele><time>2026-05-02T14:54:21.999Z</time></trkpt><trkpt lat="39.20036311732687" lon="8.64343087509347"><ele>344.0</ele><time>2026-05-02T14:54:22.999Z</time></trkpt><trkpt lat="39.20030773543421" lon="8.643632414643944"><ele>343.5</ele><time>2026-05-02T14:54:23.999Z</time></trkpt><trkpt lat="39.20025758862397" lon="8.643818681886064"><ele>343.0</ele><time>2026-05-02T14:54:24.999Z</time></trkpt><trkpt lat="39.2002063139583" lon="8.643999410723497"><ele>342.5</ele><time>2026-05-02T14:54:25.999Z</time></trkpt><trkpt lat="39.200155848808336" lon="8.644169857988881"><ele>342.0</ele><time>2026-05-02T14:54:26.999Z</time></trkpt><trkpt lat="39.20010367045841" lon="8.644350554876032"><ele>341.6666666666667</ele><time>2026-05-02T14:54:27.999Z</time></trkpt><trkpt lat="39.20005254496745" lon="8.644535853526072"><ele>341.33333333333337</ele><time>2026-05-02T14:54:28.999Z</time></trkpt><trkpt lat="39.200000721509205" lon="8.64471974407543"><ele>341.0</ele><time>2026-05-02T14:54:29.999Z</time></trkpt><trkpt lat="39.19994895368501" lon="8.644906169460537"><ele>341.0</ele><time>2026-05-02T14:54:30.999Z</time></trkpt><trkpt lat="39.19989722764287" lon="8.645094559389559"><ele>341.0</ele><time>2026-05-02T14:54:31.999Z</time></trkpt><trkpt lat="39.199850236100765" lon="8.645285757184189"><ele>341.0</ele><time>2026-05-02T14:54:32.999Z</time></trkpt><trkpt lat="39.19980973580317" lon="8.6454805821715"><ele>343.0</ele><time>2026-05-02T14:54:33.999Z</time></trkpt><trkpt lat="39.19976910464909" lon="8.645675340805923"><ele>345.0</ele><time>2026-05-02T14:54:34.999Z</time></trkpt><trkpt lat="39.19973044163345" lon="8.645864607479293"><ele>347.0</ele><time>2026-05-02T14:54:35.999Z</time></trkpt><trkpt lat="39.19969510099283" lon="8.646045653382089"><ele>346.0</ele><time>2026-05-02T14:54:36.999Z</time></trkpt><trkpt lat="39.19965999152955" lon="8.646222157622223"><ele>345.0</ele><time>2026-05-02T14:54:37.999Z</time></trkpt><trkpt lat="39.199620896114084" lon="8.64639546027237"><ele>344.0</ele><time>2026-05-02T14:54:38.999Z</time></trkpt><trkpt lat="39.19957474934371" lon="8.646568880294245"><ele>343.0</ele><time>2026-05-02T14:54:39.999Z</time></trkpt><trkpt lat="39.19952625686833" lon="8.646742671899148"><ele>343.0</ele><time>2026-05-02T14:54:40.999Z</time></trkpt><trkpt lat="39.199473572660565" lon="8.64691555197052"><ele>343.0</ele><time>2026-05-02T14:54:41.999Z</time></trkpt><trkpt lat="39.199419918488374" lon="8.647087885063216"><ele>343.0</ele><time>2026-05-02T14:54:42.999Z</time></trkpt><trkpt lat="39.19937028176191" lon="8.647255566362396"><ele>343.0</ele><time>2026-05-02T14:54:43.999Z</time></trkpt><trkpt lat="39.199321680838054" lon="8.64742234603982"><ele>341.5</ele><time>2026-05-02T14:54:44.999Z</time></trkpt><trkpt lat="39.199271984766945" lon="8.647588172190899"><ele>340.0</ele><time>2026-05-02T14:54:45.999Z</time></trkpt><trkpt lat="39.1992230931934" lon="8.647754983766157"><ele>338.5</ele><time>2026-05-02T14:54:46.999Z</time></trkpt><trkpt lat="39.19917697729092" lon="8.64792262404795"><ele>337.0</ele><time>2026-05-02T14:54:47.999Z</time></trkpt><trkpt lat="39.19912728368989" lon="8.648089333946869"><ele>335.75</ele><time>2026-05-02T14:54:48.999Z</time></trkpt><trkpt lat="39.19907383182644" lon="8.648256742648055"><ele>334.5</ele><time>2026-05-02T14:54:49.999Z</time></trkpt><trkpt lat="39.19901935949795" lon="8.648426945200939"><ele>333.25</ele><time>2026-05-02T14:54:50.999Z</time></trkpt><trkpt lat="39.198964074985284" lon="8.648598548779164"><ele>332.0</ele><time>2026-05-02T14:54:51.999Z</time></trkpt><trkpt lat="39.19890994674555" lon="8.648774498563613"><ele>332.0</ele><time>2026-05-02T14:54:52.999Z</time></trkpt><trkpt lat="39.19886795921422" lon="8.648948420741203"><ele>332.0</ele><time>2026-05-02T14:54:54Z</time></trkpt><trkpt lat="39.19882525582724" lon="8.649123691547622"><ele>332.0</ele><time>2026-05-02T14:54:55Z</time></trkpt><trkpt lat="39.198770753950264" lon="8.649288928759182"><ele>332.0</ele><time>2026-05-02T14:54:56Z</time></trkpt><trkpt lat="39.19871319079849" lon="8.649456340561095"><ele>332.75</ele><time>2026-05-02T14:54:57Z</time></trkpt><trkpt lat="39.19866096159879" lon="8.64962332650031"><ele>333.5</ele><time>2026-05-02T14:54:58Z</time></trkpt><trkpt lat="39.198611414254245" lon="8.649789543370565"><ele>334.25</ele><time>2026-05-02T14:54:59Z</time></trkpt><trkpt lat="39.19856146710951" lon="8.649953804278365"><ele>335.0</ele><time>2026-05-02T14:55:00Z</time></trkpt><trkpt lat="39.198509224631884" lon="8.65012215830459"><ele>336.0</ele><time>2026-05-02T14:55:01Z</time></trkpt><trkpt lat="39.19845983589186" lon="8.650292774913735"><ele>337.0</ele><time>2026-05-02T14:55:02Z</time></trkpt><trkpt lat="39.198405296019224" lon="8.650458976931185"><ele>338.0</ele><time>2026-05-02T14:55:03Z</time></trkpt><trkpt lat="39.19834644598955" lon="8.650630185976745"><ele>339.0</ele><time>2026-05-02T14:55:04Z</time></trkpt><trkpt lat="39.19828857244258" lon="8.650804531594444"><ele>339.0</ele><time>2026-05-02T14:55:05Z</time></trkpt><trkpt lat="39.198229958234094" lon="8.650968067123838"><ele>339.0</ele><time>2026-05-02T14:55:06Z</time></trkpt><trkpt lat="39.198163922635295" lon="8.651124776048333"><ele>339.0</ele><time>2026-05-02T14:55:07Z</time></trkpt><trkpt lat="39.1980888592256" lon="8.651286423426335"><ele>339.0</ele><time>2026-05-02T14:55:08Z</time></trkpt><trkpt lat="39.19801232765334" lon="8.651456685709071"><ele>339.3333333333333</ele><time>2026-05-02T14:55:09Z</time></trkpt><trkpt lat="39.197931949026994" lon="8.651628021767062"><ele>339.66666666666663</ele><time>2026-05-02T14:55:10Z</time></trkpt><trkpt lat="39.19785828832493" lon="8.651801362177878"><ele>340.0</ele><time>2026-05-02T14:55:11Z</time></trkpt><trkpt lat="39.19777663011846" lon="8.651973171529493"><ele>342.0</ele><time>2026-05-02T14:55:12Z</time></trkpt><trkpt lat="39.19768961747639" lon="8.652140647424648"><ele>344.0</ele><time>2026-05-02T14:55:13Z</time></trkpt><trkpt lat="39.19760977718462" lon="8.652309633505526"><ele>346.0</ele><time>2026-05-02T14:55:14Z</time></trkpt><trkpt lat="39.19753368953435" lon="8.652476371327856"><ele>346.0</ele><time>2026-05-02T14:55:15Z</time></trkpt><trkpt lat="39.19746209096528" lon="8.652637859420974"><ele>346.0</ele><time>2026-05-02T14:55:16Z</time></trkpt><trkpt lat="39.1973902183956" lon="8.652792429042828"><ele>346.0</ele><time>2026-05-02T14:55:17Z</time></trkpt><trkpt lat="39.19731852386484" lon="8.652935861246466"><ele>346.0</ele><time>2026-05-02T14:55:18Z</time></trkpt><trkpt lat="39.19725415302144" lon="8.653073869961881"><ele>347.8</ele><time>2026-05-02T14:55:19Z</time></trkpt><trkpt lat="39.197192747798084" lon="8.65321322382565"><ele>349.6</ele><time>2026-05-02T14:55:20Z</time></trkpt><trkpt lat="39.197127514139304" lon="8.653345102436322"><ele>351.4</ele><time>2026-05-02T14:55:21Z</time></trkpt><trkpt lat="39.19707235965637" lon="8.653462130486748"><ele>353.2</ele><time>2026-05-02T14:55:22Z</time></trkpt><trkpt lat="39.19702688544183" lon="8.65355298028696"><ele>355.0</ele><time>2026-05-02T14:55:23Z</time></trkpt><trkpt lat="39.19699337084434" lon="8.653625996715993"><ele>355.5</ele><time>2026-05-02T14:55:24Z</time></trkpt><trkpt lat="39.19699346505618" lon="8.653753597434916"><ele>356.0</ele><time>2026-05-02T14:55:26Z</time></trkpt><trkpt lat="39.197076469325296" lon="8.653824325374131"><ele>356.5</ele><time>2026-05-02T14:55:28Z</time></trkpt><trkpt lat="39.197157883659685" lon="8.653838184428462"><ele>357.0</ele><time>2026-05-02T14:55:29Z</time></trkpt><trkpt lat="39.19723725613111" lon="8.653847409943548"><ele>357.5</ele><time>2026-05-02T14:55:30Z</time></trkpt><trkpt lat="39.19731467255349" lon="8.65387228343549"><ele>358.0</ele><time>2026-05-02T14:55:31Z</time></trkpt><trkpt lat="39.19740429887715" lon="8.653906903769617"><ele>358.4</ele><time>2026-05-02T14:55:32Z</time></trkpt><trkpt lat="39.19749412350855" lon="8.6539437948096"><ele>358.79999999999995</ele><time>2026-05-02T14:55:33Z</time></trkpt><trkpt lat="39.19758922307546" lon="8.653980030349418"><ele>359.2</ele><time>2026-05-02T14:55:34Z</time></trkpt><trkpt lat="39.197679557663854" lon="8.653996389420207"><ele>359.6</ele><time>2026-05-02T14:55:35Z</time></trkpt><trkpt lat="39.19777100669592" lon="8.653981664098476"><ele>360.0</ele><time>2026-05-02T14:55:36Z</time></trkpt><trkpt lat="39.197861211936704" lon="8.653951066397063"><ele>360.0</ele><time>2026-05-02T14:55:37Z</time></trkpt><trkpt lat="39.19795435273142" lon="8.653922249147804"><ele>360.0</ele><time>2026-05-02T14:55:38Z</time></trkpt><trkpt lat="39.19804359989025" lon="8.653896728801199"><ele>360.0</ele><time>2026-05-02T14:55:39Z</time></trkpt><trkpt lat="39.198139082762324" lon="8.653875175791754"><ele>360.0</ele><time>2026-05-02T14:55:40Z</time></trkpt><trkpt lat="39.19823796488238" lon="8.653873809331419"><ele>360.0</ele><time>2026-05-02T14:55:41Z</time></trkpt><trkpt lat="39.1983353797296" lon="8.653870000945917"><ele>360.25</ele><time>2026-05-02T14:55:41.999Z</time></trkpt><trkpt lat="39.1984356856749" lon="8.653843256221338"><ele>360.5</ele><time>2026-05-02T14:55:42.999Z</time></trkpt><trkpt lat="39.19853684962689" lon="8.653780579711379"><ele>360.75</ele><time>2026-05-02T14:55:43.999Z</time></trkpt><trkpt lat="39.198651177210714" lon="8.653709621345664"><ele>361.0</ele><time>2026-05-02T14:55:44.999Z</time></trkpt><trkpt lat="39.19875403775044" lon="8.653666880395514"><ele>361.0</ele><time>2026-05-02T14:55:45.999Z</time></trkpt><trkpt lat="39.198872278766935" lon="8.65364492429584"><ele>361.0</ele><time>2026-05-02T14:55:46.999Z</time></trkpt><trkpt lat="39.198990284953375" lon="8.653604493427087"><ele>361.0</ele><time>2026-05-02T14:55:47.999Z</time></trkpt><trkpt lat="39.19910483122822" lon="8.653545511819011"><ele>361.0</ele><time>2026-05-02T14:55:48.999Z</time></trkpt><trkpt lat="39.199208980051715" lon="8.653487598107814"><ele>359.4</ele><time>2026-05-02T14:55:49.999Z</time></trkpt><trkpt lat="39.199315252255545" lon="8.65344675975019"><ele>357.8</ele><time>2026-05-02T14:55:50.999Z</time></trkpt><trkpt lat="39.19942056829102" lon="8.653416702363698"><ele>356.2</ele><time>2026-05-02T14:55:51.999Z</time></trkpt><trkpt lat="39.19952283718791" lon="8.653387446830635"><ele>354.59999999999997</ele><time>2026-05-02T14:55:52.999Z</time></trkpt><trkpt lat="39.19962639648333" lon="8.653346940498578"><ele>353.0</ele><time>2026-05-02T14:55:53.999Z</time></trkpt><trkpt lat="39.19972554236801" lon="8.653298562665519"><ele>353.0</ele><time>2026-05-02T14:55:54.999Z</time></trkpt><trkpt lat="39.19981945576863" lon="8.653228583584335"><ele>353.0</ele><time>2026-05-02T14:55:55.999Z</time></trkpt><trkpt lat="39.19988908968131" lon="8.653136603055524"><ele>353.0</ele><time>2026-05-02T14:55:56.999Z</time></trkpt><trkpt lat="39.1999512201495" lon="8.653031584505454"><ele>353.0</ele><time>2026-05-02T14:55:57.999Z</time></trkpt><trkpt lat="39.200004870678235" lon="8.652936068166344"><ele>353.0</ele><time>2026-05-02T14:55:58.999Z</time></trkpt><trkpt lat="39.20006506191727" lon="8.652847435553387"><ele>353.0</ele><time>2026-05-02T14:55:59.999Z</time></trkpt><trkpt lat="39.20015347954819" lon="8.652730185636312"><ele>353.0</ele><time>2026-05-02T14:56:00.999Z</time></trkpt><trkpt lat="39.200225887265674" lon="8.652615211626811"><ele>353.0</ele><time>2026-05-02T14:56:01.999Z</time></trkpt><trkpt lat="39.200273541599586" lon="8.65250330963204"><ele>353.0</ele><time>2026-05-02T14:56:02.999Z</time></trkpt><trkpt lat="39.20030339907114" lon="8.652406286648128"><ele>353.0</ele><time>2026-05-02T14:56:03.999Z</time></trkpt><trkpt lat="39.20033864880058" lon="8.652333861182568"><ele>353.0</ele><time>2026-05-02T14:56:04.999Z</time></trkpt><trkpt lat="39.20038618327317" lon="8.652275219060934"><ele>353.0</ele><time>2026-05-02T14:56:05.999Z</time></trkpt><trkpt lat="39.2004507362688" lon="8.652232524699333"><ele>353.0</ele><time>2026-05-02T14:56:06.999Z</time></trkpt><trkpt lat="39.20054612731457" lon="8.652209248685994"><ele>353.0</ele><time>2026-05-02T14:56:07.999Z</time></trkpt><trkpt lat="39.200655375145296" lon="8.652175846785807"><ele>353.0</ele><time>2026-05-02T14:56:08.999Z</time></trkpt><trkpt lat="39.200760056410104" lon="8.652113902043588"><ele>354.0</ele><time>2026-05-02T14:56:09.999Z</time></trkpt><trkpt lat="39.20085880023028" lon="8.652065007756937"><ele>355.0</ele><time>2026-05-02T14:56:10.999Z</time></trkpt><trkpt lat="39.20095571541728" lon="8.652033223529079"><ele>356.0</ele><time>2026-05-02T14:56:11.999Z</time></trkpt><trkpt lat="39.201053126859705" lon="8.652005373922808"><ele>357.0</ele><time>2026-05-02T14:56:12.999Z</time></trkpt><trkpt lat="39.201152379651916" lon="8.651985932623164"><ele>358.0</ele><time>2026-05-02T14:56:13.999Z</time></trkpt><trkpt lat="39.20125749826542" lon="8.651991392662012"><ele>358.0</ele><time>2026-05-02T14:56:14.999Z</time></trkpt><trkpt lat="39.201368240697526" lon="8.65197977991128"><ele>358.0</ele><time>2026-05-02T14:56:15.999Z</time></trkpt><trkpt lat="39.20148993971165" lon="8.651945280607217"><ele>358.0</ele><time>2026-05-02T14:56:16.999Z</time></trkpt><trkpt lat="39.20161042770932" lon="8.65191493279343"><ele>358.0</ele><time>2026-05-02T14:56:17.999Z</time></trkpt><trkpt lat="39.20173305915881" lon="8.651906034077022"><ele>355.5</ele><time>2026-05-02T14:56:18.999Z</time></trkpt><trkpt lat="39.20185313097689" lon="8.65191290860958"><ele>353.0</ele><time>2026-05-02T14:56:19.999Z</time></trkpt><trkpt lat="39.20196558521168" lon="8.651916073546662"><ele>350.5</ele><time>2026-05-02T14:56:20.999Z</time></trkpt><trkpt lat="39.20207234577213" lon="8.651893977060942"><ele>348.0</ele><time>2026-05-02T14:56:21.999Z</time></trkpt><trkpt lat="39.20217692973155" lon="8.651852632826795"><ele>348.0</ele><time>2026-05-02T14:56:22.999Z</time></trkpt><trkpt lat="39.20228810778857" lon="8.651809441186625"><ele>348.0</ele><time>2026-05-02T14:56:23.999Z</time></trkpt><trkpt lat="39.20239195514178" lon="8.651748639805414"><ele>348.0</ele><time>2026-05-02T14:56:24.999Z</time></trkpt><trkpt lat="39.20249053541874" lon="8.651681584991458"><ele>348.0</ele><time>2026-05-02T14:56:25.999Z</time></trkpt><trkpt lat="39.20258543984651" lon="8.651600413788612"><ele>348.0</ele><time>2026-05-02T14:56:26.999Z</time></trkpt><trkpt lat="39.2026783758645" lon="8.651501644133491"><ele>348.0</ele><time>2026-05-02T14:56:27.999Z</time></trkpt><trkpt lat="39.20277701349785" lon="8.651409541528043"><ele>348.0</ele><time>2026-05-02T14:56:28.999Z</time></trkpt><trkpt lat="39.20288371985458" lon="8.651342184005152"><ele>348.0</ele><time>2026-05-02T14:56:29.999Z</time></trkpt><trkpt lat="39.20298855907785" lon="8.651285598737644"><ele>348.0</ele><time>2026-05-02T14:56:30.999Z</time></trkpt><trkpt lat="39.20308406062766" lon="8.651222282987302"><ele>348.0</ele><time>2026-05-02T14:56:31.999Z</time></trkpt><trkpt lat="39.20317673399829" lon="8.65115339120525"><ele>348.0</ele><time>2026-05-02T14:56:32.999Z</time></trkpt><trkpt lat="39.2032765078391" lon="8.65109862191407"><ele>348.0</ele><time>2026-05-02T14:56:33.999Z</time></trkpt><trkpt lat="39.20335425666376" lon="8.651066722415024"><ele>348.0</ele><time>2026-05-02T14:56:34.999Z</time></trkpt><trkpt lat="39.20343737244345" lon="8.651070600664296"><ele>347.4</ele><time>2026-05-02T14:56:35.999Z</time></trkpt><trkpt lat="39.203558030932236" lon="8.65108766850807"><ele>346.79999999999995</ele><time>2026-05-02T14:56:36.999Z</time></trkpt><trkpt lat="39.20366980415841" lon="8.651102589473297"><ele>346.2</ele><time>2026-05-02T14:56:37.999Z</time></trkpt><trkpt lat="39.203771990437666" lon="8.65110659098339"><ele>345.6</ele><time>2026-05-02T14:56:38.999Z</time></trkpt><trkpt lat="39.203874796474615" lon="8.651099998852775"><ele>345.0</ele><time>2026-05-02T14:56:39.999Z</time></trkpt><trkpt lat="39.203979004060706" lon="8.65108059621036"><ele>345.0</ele><time>2026-05-02T14:56:40.999Z</time></trkpt><trkpt lat="39.20409058641307" lon="8.651050805563338"><ele>345.0</ele><time>2026-05-02T14:56:41.999Z</time></trkpt><trkpt lat="39.204208180395725" lon="8.651005823664432"><ele>345.0</ele><time>2026-05-02T14:56:42.999Z</time></trkpt><trkpt lat="39.204335135672075" lon="8.650952914491963"><ele>345.0</ele><time>2026-05-02T14:56:43.999Z</time></trkpt><trkpt lat="39.20448823125403" lon="8.650880673801682"><ele>345.0</ele><time>2026-05-02T14:56:44.999Z</time></trkpt><trkpt lat="39.204631919791034" lon="8.650802692635942"><ele>345.0</ele><time>2026-05-02T14:56:45.999Z</time></trkpt><trkpt lat="39.20475920273833" lon="8.65073178608582"><ele>345.0</ele><time>2026-05-02T14:56:46.999Z</time></trkpt><trkpt lat="39.20487638033355" lon="8.650662747953138"><ele>345.0</ele><time>2026-05-02T14:56:47.999Z</time></trkpt><trkpt lat="39.20499326320339" lon="8.65060394792034"><ele>342.75</ele><time>2026-05-02T14:56:48.999Z</time></trkpt><trkpt lat="39.20510382372127" lon="8.650545795742538"><ele>340.5</ele><time>2026-05-02T14:56:49.999Z</time></trkpt><trkpt lat="39.205210982607355" lon="8.650491091720315"><ele>338.25</ele><time>2026-05-02T14:56:50.999Z</time></trkpt><trkpt lat="39.20531549263239" lon="8.650426979840246"><ele>336.0</ele><time>2026-05-02T14:56:51.999Z</time></trkpt><trkpt lat="39.205406961750384" lon="8.650352118400368"><ele>338.0</ele><time>2026-05-02T14:56:52.999Z</time></trkpt><trkpt lat="39.20549187424166" lon="8.650265698136382"><ele>340.0</ele><time>2026-05-02T14:56:53.999Z</time></trkpt><trkpt lat="39.20558263922953" lon="8.650172765429879"><ele>342.0</ele><time>2026-05-02T14:56:54.999Z</time></trkpt><trkpt lat="39.20567783290866" lon="8.650065285413035"><ele>344.0</ele><time>2026-05-02T14:56:55.999Z</time></trkpt><trkpt lat="39.20577707659642" lon="8.649950376994386"><ele>339.5</ele><time>2026-05-02T14:56:56.999Z</time></trkpt><trkpt lat="39.20588349500812" lon="8.649844920494354"><ele>335.0</ele><time>2026-05-02T14:56:57.999Z</time></trkpt><trkpt lat="39.20598534331402" lon="8.649733831479223"><ele>330.5</ele><time>2026-05-02T14:56:58.999Z</time></trkpt><trkpt lat="39.20608849324457" lon="8.649614403854976"><ele>326.0</ele><time>2026-05-02T14:57:00Z</time></trkpt><trkpt lat="39.20619081762456" lon="8.649492998750244"><ele>325.5</ele><time>2026-05-02T14:57:01Z</time></trkpt><trkpt lat="39.20629018181629" lon="8.649377541112834"><ele>325.0</ele><time>2026-05-02T14:57:02Z</time></trkpt><trkpt lat="39.206392998051705" lon="8.649292025715196"><ele>324.5</ele><time>2026-05-02T14:57:03Z</time></trkpt><trkpt lat="39.20649764112391" lon="8.649221266943693"><ele>324.0</ele><time>2026-05-02T14:57:04Z</time></trkpt><trkpt lat="39.20661088968768" lon="8.649146132470449"><ele>324.0</ele><time>2026-05-02T14:57:05Z</time></trkpt><trkpt lat="39.206720392533775" lon="8.649066663171311"><ele>324.0</ele><time>2026-05-02T14:57:06Z</time></trkpt><trkpt lat="39.2068249675736" lon="8.648981587846977"><ele>324.0</ele><time>2026-05-02T14:57:07Z</time></trkpt><trkpt lat="39.206914662513675" lon="8.648892918695822"><ele>324.0</ele><time>2026-05-02T14:57:08Z</time></trkpt><trkpt lat="39.20699130906496" lon="8.648827491373392"><ele>324.0</ele><time>2026-05-02T14:57:09Z</time></trkpt><trkpt lat="39.20706119380678" lon="8.648762106800337"><ele>324.0</ele><time>2026-05-02T14:57:10Z</time></trkpt><trkpt lat="39.20713358672045" lon="8.648673098357714"><ele>324.0</ele><time>2026-05-02T14:57:11Z</time></trkpt><trkpt lat="39.207212109344994" lon="8.648588310190425"><ele>324.0</ele><time>2026-05-02T14:57:12Z</time></trkpt><trkpt lat="39.20730353227876" lon="8.64852438651418"><ele>324.0</ele><time>2026-05-02T14:57:13Z</time></trkpt><trkpt lat="39.20739663435552" lon="8.648462490307502"><ele>323.2</ele><time>2026-05-02T14:57:14Z</time></trkpt><trkpt lat="39.207492013061525" lon="8.648401655088044"><ele>322.4</ele><time>2026-05-02T14:57:15Z</time></trkpt><trkpt lat="39.20758314851029" lon="8.648326867004947"><ele>321.6</ele><time>2026-05-02T14:57:16Z</time></trkpt><trkpt lat="39.20766664977672" lon="8.648237639754523"><ele>320.8</ele><time>2026-05-02T14:57:17Z</time></trkpt><trkpt lat="39.20774584075178" lon="8.648140446037809"><ele>320.0</ele><time>2026-05-02T14:57:18Z</time></trkpt><trkpt lat="39.20782010625438" lon="8.648039540303254"><ele>320.0</ele><time>2026-05-02T14:57:19Z</time></trkpt><trkpt lat="39.207886451698464" lon="8.647933089837638"><ele>320.0</ele><time>2026-05-02T14:57:20Z</time></trkpt><trkpt lat="39.2079554157462" lon="8.647828465424423"><ele>320.0</ele><time>2026-05-02T14:57:21Z</time></trkpt><trkpt lat="39.2080355799425" lon="8.647741934330293"><ele>320.0</ele><time>2026-05-02T14:57:22Z</time></trkpt><trkpt lat="39.20812781086281" lon="8.647673435709942"><ele>320.0</ele><time>2026-05-02T14:57:23Z</time></trkpt><trkpt lat="39.20822435837631" lon="8.647604230599212"><ele>320.0</ele><time>2026-05-02T14:57:24Z</time></trkpt><trkpt lat="39.20832373462863" lon="8.647532282038876"><ele>320.0</ele><time>2026-05-02T14:57:25Z</time></trkpt><trkpt lat="39.20841819391601" lon="8.6474721624803"><ele>320.0</ele><time>2026-05-02T14:57:26Z</time></trkpt><trkpt lat="39.20851031330902" lon="8.6474210600117"><ele>320.0</ele><time>2026-05-02T14:57:27Z</time></trkpt><trkpt lat="39.20860937485484" lon="8.647379117921858"><ele>320.0</ele><time>2026-05-02T14:57:28Z</time></trkpt><trkpt lat="39.20869920228161" lon="8.647333429260673"><ele>320.0</ele><time>2026-05-02T14:57:29Z</time></trkpt><trkpt lat="39.2087843679093" lon="8.647253423520702"><ele>320.0</ele><time>2026-05-02T14:57:30Z</time></trkpt><trkpt lat="39.208877175831724" lon="8.647156395445977"><ele>320.0</ele><time>2026-05-02T14:57:31Z</time></trkpt><trkpt lat="39.20896347561376" lon="8.6470420944037"><ele>320.0</ele><time>2026-05-02T14:57:32Z</time></trkpt><trkpt lat="39.20903504790371" lon="8.64691216884723"><ele>320.6</ele><time>2026-05-02T14:57:33Z</time></trkpt><trkpt lat="39.209100313342724" lon="8.646788058015842"><ele>321.2</ele><time>2026-05-02T14:57:34Z</time></trkpt><trkpt lat="39.20917100350427" lon="8.64669704258224"><ele>321.79999999999995</ele><time>2026-05-02T14:57:35Z</time></trkpt><trkpt lat="39.20923867652308" lon="8.646632922128704"><ele>322.4</ele><time>2026-05-02T14:57:36Z</time></trkpt><trkpt lat="39.20930602639971" lon="8.646582937636428"><ele>323.0</ele><time>2026-05-02T14:57:37Z</time></trkpt><trkpt lat="39.209387333099826" lon="8.646559253701675"><ele>323.0</ele><time>2026-05-02T14:57:38Z</time></trkpt><trkpt lat="39.209475182038226" lon="8.646541300179837"><ele>323.0</ele><time>2026-05-02T14:57:39Z</time></trkpt><trkpt lat="39.209566201574404" lon="8.646505591469442"><ele>323.0</ele><time>2026-05-02T14:57:40Z</time></trkpt><trkpt lat="39.20966508148418" lon="8.646458676986633"><ele>323.0</ele><time>2026-05-02T14:57:41Z</time></trkpt><trkpt lat="39.209768517366484" lon="8.646414095953888"><ele>323.0</ele><time>2026-05-02T14:57:42Z</time></trkpt><trkpt lat="39.209883400418335" lon="8.646368469509783"><ele>324.0</ele><time>2026-05-02T14:57:43Z</time></trkpt><trkpt lat="39.20999639037354" lon="8.646313839024197"><ele>325.0</ele><time>2026-05-02T14:57:44Z</time></trkpt><trkpt lat="39.21010327600497" lon="8.646239136996407"><ele>326.0</ele><time>2026-05-02T14:57:45Z</time></trkpt><trkpt lat="39.21020474616479" lon="8.646159587902066"><ele>327.0</ele><time>2026-05-02T14:57:45.999Z</time></trkpt><trkpt lat="39.210306448875386" lon="8.646073428628096"><ele>327.40000000000003</ele><time>2026-05-02T14:57:46.999Z</time></trkpt><trkpt lat="39.210413641854736" lon="8.645986680862148"><ele>327.8</ele><time>2026-05-02T14:57:47.999Z</time></trkpt><trkpt lat="39.21050190199777" lon="8.645917903924303"><ele>328.2</ele><time>2026-05-02T14:57:48.999Z</time></trkpt><trkpt lat="39.210589813220075" lon="8.645881055620388"><ele>328.6</ele><time>2026-05-02T14:57:49.999Z</time></trkpt><trkpt lat="39.21066164399858" lon="8.645878716624583"><ele>329.0</ele><time>2026-05-02T14:57:50.999Z</time></trkpt><trkpt lat="39.210735886922" lon="8.645882529483417"><ele>329.0</ele><time>2026-05-02T14:57:51.999Z</time></trkpt><trkpt lat="39.21081755480984" lon="8.645873687355499"><ele>329.0</ele><time>2026-05-02T14:57:52.999Z</time></trkpt><trkpt lat="39.21089595442347" lon="8.64582749155055"><ele>329.0</ele><time>2026-05-02T14:57:53.999Z</time></trkpt><trkpt lat="39.21097233618599" lon="8.645750538978097"><ele>329.0</ele><time>2026-05-02T14:57:54.999Z</time></trkpt><trkpt lat="39.21105019056868" lon="8.645665698523182"><ele>329.0</ele><time>2026-05-02T14:57:55.999Z</time></trkpt><trkpt lat="39.21113650749649" lon="8.645584887887185"><ele>329.0</ele><time>2026-05-02T14:57:56.999Z</time></trkpt><trkpt lat="39.21122828216738" lon="8.645507784288787"><ele>329.0</ele><time>2026-05-02T14:57:57.999Z</time></trkpt><trkpt lat="39.21132253465775" lon="8.645437544359988"><ele>329.0</ele><time>2026-05-02T14:57:58.999Z</time></trkpt><trkpt lat="39.21142265626871" lon="8.645377847699425"><ele>329.0</ele><time>2026-05-02T14:57:59.999Z</time></trkpt><trkpt lat="39.21152280355136" lon="8.64533469488803"><ele>329.0</ele><time>2026-05-02T14:58:00.999Z</time></trkpt><trkpt lat="39.21162872223713" lon="8.645308485776052"><ele>329.0</ele><time>2026-05-02T14:58:01.999Z</time></trkpt><trkpt lat="39.21174652694087" lon="8.64529561817357"><ele>329.0</ele><time>2026-05-02T14:58:02.999Z</time></trkpt><trkpt lat="39.21186277110309" lon="8.645278075702704"><ele>329.0</ele><time>2026-05-02T14:58:03.999Z</time></trkpt><trkpt lat="39.21198278291359" lon="8.64529461907102"><ele>329.0</ele><time>2026-05-02T14:58:04.999Z</time></trkpt><trkpt lat="39.2120989300917" lon="8.645305108937178"><ele>330.6</ele><time>2026-05-02T14:58:05.999Z</time></trkpt><trkpt lat="39.21220224751712" lon="8.645328620187314"><ele>332.2</ele><time>2026-05-02T14:58:06.999Z</time></trkpt><trkpt lat="39.21230058502263" lon="8.645366969042875"><ele>333.8</ele><time>2026-05-02T14:58:07.999Z</time></trkpt><trkpt lat="39.21236076412718" lon="8.645447597618148"><ele>335.40000000000003</ele><time>2026-05-02T14:58:08.999Z</time></trkpt><trkpt lat="39.212495900540475" lon="8.645492333806963"><ele>337.0</ele><time>2026-05-02T14:58:10.999Z</time></trkpt><trkpt lat="39.21259003750552" lon="8.645487074214207"><ele>337.0</ele><time>2026-05-02T14:58:11.999Z</time></trkpt><trkpt lat="39.21269392973367" lon="8.645464629857878"><ele>337.0</ele><time>2026-05-02T14:58:12.999Z</time></trkpt><trkpt lat="39.21280750143754" lon="8.645453688095524"><ele>337.0</ele><time>2026-05-02T14:58:13.999Z</time></trkpt><trkpt lat="39.21289849879286" lon="8.645403983561893"><ele>337.0</ele><time>2026-05-02T14:58:14.999Z</time></trkpt><trkpt lat="39.212973862487864" lon="8.645376681436375"><ele>337.0</ele><time>2026-05-02T14:58:15.999Z</time></trkpt><trkpt lat="39.21303862185442" lon="8.645322547410535"><ele>337.16666666666663</ele><time>2026-05-02T14:58:16.999Z</time></trkpt><trkpt lat="39.21311990570693" lon="8.64527844684193"><ele>337.3333333333333</ele><time>2026-05-02T14:58:17.999Z</time></trkpt><trkpt lat="39.21320568148025" lon="8.6452168429912"><ele>337.5</ele><time>2026-05-02T14:58:18.999Z</time></trkpt><trkpt lat="39.213277175389656" lon="8.645166909523244"><ele>337.6666666666667</ele><time>2026-05-02T14:58:19.999Z</time></trkpt><trkpt lat="39.213354275339654" lon="8.645109567886449"><ele>337.83333333333337</ele><time>2026-05-02T14:58:20.999Z</time></trkpt><trkpt lat="39.21342317869559" lon="8.64504825011863"><ele>338.0</ele><time>2026-05-02T14:58:21.999Z</time></trkpt><trkpt lat="39.21348102236838" lon="8.64497768660307"><ele>338.0</ele><time>2026-05-02T14:58:22.999Z</time></trkpt><trkpt lat="39.21352023637491" lon="8.644892330385026"><ele>338.0</ele><time>2026-05-02T14:58:23.999Z</time></trkpt><trkpt lat="39.213577076237975" lon="8.644852306469385"><ele>338.0</ele><time>2026-05-02T14:58:24.999Z</time></trkpt><trkpt lat="39.21372216263624" lon="8.644859124540048"><ele>338.0</ele><time>2026-05-02T14:58:26.999Z</time></trkpt><trkpt lat="39.21383956431453" lon="8.644855476050104"><ele>338.0</ele><time>2026-05-02T14:58:27.999Z</time></trkpt><trkpt lat="39.21392972371287" lon="8.644860488328959"><ele>338.6666666666667</ele><time>2026-05-02T14:58:28.999Z</time></trkpt><trkpt lat="39.214003135139166" lon="8.64482158634708"><ele>339.33333333333337</ele><time>2026-05-02T14:58:29.999Z</time></trkpt><trkpt lat="39.21407382433774" lon="8.644740582602651"><ele>340.0</ele><time>2026-05-02T14:58:30.999Z</time></trkpt><trkpt lat="39.214161858251266" lon="8.644682117819737"><ele>340.6666666666667</ele><time>2026-05-02T14:58:31.999Z</time></trkpt><trkpt lat="39.21421838910387" lon="8.644636910644147"><ele>341.3333333333333</ele><time>2026-05-02T14:58:32.999Z</time></trkpt><trkpt lat="39.214291280613146" lon="8.644674071866875"><ele>342.0</ele><time>2026-05-02T14:58:34.999Z</time></trkpt><trkpt lat="39.21432140327012" lon="8.644773694382623"><ele>342.0</ele><time>2026-05-02T14:58:36.999Z</time></trkpt><trkpt lat="39.21432482287892" lon="8.644865116290015"><ele>342.0</ele><time>2026-05-02T14:58:37.999Z</time></trkpt><trkpt lat="39.2143324563396" lon="8.644982304459306"><ele>342.0</ele><time>2026-05-02T14:58:38.999Z</time></trkpt><trkpt lat="39.21433455531005" lon="8.645091583451045"><ele>342.0</ele><time>2026-05-02T14:58:39.999Z</time></trkpt><trkpt lat="39.214378029473906" lon="8.645183166474961"><ele>342.0</ele><time>2026-05-02T14:58:40.999Z</time></trkpt><trkpt lat="39.21445050110651" lon="8.645252056107735"><ele>342.0</ele><time>2026-05-02T14:58:41.999Z</time></trkpt><trkpt lat="39.214548804816694" lon="8.645285248755686"><ele>342.0</ele><time>2026-05-02T14:58:42.999Z</time></trkpt><trkpt lat="39.21465883048286" lon="8.645290936401164"><ele>342.0</ele><time>2026-05-02T14:58:43.999Z</time></trkpt><trkpt lat="39.214779865859214" lon="8.645279437841559"><ele>342.0</ele><time>2026-05-02T14:58:44.999Z</time></trkpt><trkpt lat="39.214901684983744" lon="8.645251413365843"><ele>342.0</ele><time>2026-05-02T14:58:45.999Z</time></trkpt><trkpt lat="39.21502716391056" lon="8.64525345482349"><ele>343.75</ele><time>2026-05-02T14:58:46.999Z</time></trkpt><trkpt lat="39.215152709116666" lon="8.645247256414692"><ele>345.5</ele><time>2026-05-02T14:58:47.999Z</time></trkpt><trkpt lat="39.21528058561249" lon="8.645246245550958"><ele>347.25</ele><time>2026-05-02T14:58:48.999Z</time></trkpt><trkpt lat="39.215412458794255" lon="8.645230600580183"><ele>349.0</ele><time>2026-05-02T14:58:49.999Z</time></trkpt><trkpt lat="39.215535077121274" lon="8.645244349536119"><ele>349.0</ele><time>2026-05-02T14:58:50.999Z</time></trkpt><trkpt lat="39.21563506844746" lon="8.645228856291402"><ele>349.0</ele><time>2026-05-02T14:58:51.999Z</time></trkpt><trkpt lat="39.21572879873504" lon="8.645247085384248"><ele>349.0</ele><time>2026-05-02T14:58:52.999Z</time></trkpt><trkpt lat="39.215823012601675" lon="8.645252907582977"><ele>349.0</ele><time>2026-05-02T14:58:53.999Z</time></trkpt><trkpt lat="39.21591567426984" lon="8.645250230705079"><ele>349.0</ele><time>2026-05-02T14:58:54.999Z</time></trkpt><trkpt lat="39.216004045394634" lon="8.645264744638881"><ele>349.4</ele><time>2026-05-02T14:58:55.999Z</time></trkpt><trkpt lat="39.21609872481214" lon="8.645259105227804"><ele>349.79999999999995</ele><time>2026-05-02T14:58:56.999Z</time></trkpt><trkpt lat="39.216202157322016" lon="8.64523844238502"><ele>350.20000000000005</ele><time>2026-05-02T14:58:57.999Z</time></trkpt><trkpt lat="39.2163008581335" lon="8.645213578839025"><ele>350.6</ele><time>2026-05-02T14:58:58.999Z</time></trkpt><trkpt lat="39.2163884866118" lon="8.645167723537618"><ele>351.0</ele><time>2026-05-02T14:58:59.999Z</time></trkpt><trkpt lat="39.2164661769603" lon="8.645115434241765"><ele>351.8</ele><time>2026-05-02T14:59:00.999Z</time></trkpt><trkpt lat="39.216548207682486" lon="8.645069303883401"><ele>352.6</ele><time>2026-05-02T14:59:01.999Z</time></trkpt><trkpt lat="39.216633128862355" lon="8.645016401310208"><ele>353.4</ele><time>2026-05-02T14:59:02.999Z</time></trkpt><trkpt lat="39.21671761640942" lon="8.644968353016143"><ele>354.2</ele><time>2026-05-02T14:59:03.999Z</time></trkpt><trkpt lat="39.21680276520477" lon="8.644924450920634"><ele>355.0</ele><time>2026-05-02T14:59:04.999Z</time></trkpt><trkpt lat="39.2168935312341" lon="8.64488457113942"><ele>355.0</ele><time>2026-05-02T14:59:06Z</time></trkpt><trkpt lat="39.216994918349336" lon="8.644845029272918"><ele>355.0</ele><time>2026-05-02T14:59:07Z</time></trkpt><trkpt lat="39.21709412721821" lon="8.64481034828224"><ele>355.0</ele><time>2026-05-02T14:59:08Z</time></trkpt><trkpt lat="39.21719207529123" lon="8.644776163617184"><ele>355.0</ele><time>2026-05-02T14:59:09Z</time></trkpt><trkpt lat="39.21728197796825" lon="8.644758902196505"><ele>355.0</ele><time>2026-05-02T14:59:10Z</time></trkpt><trkpt lat="39.217350367570994" lon="8.644752110104298"><ele>355.4</ele><time>2026-05-02T14:59:11Z</time></trkpt><trkpt lat="39.21742714264381" lon="8.644781833233449"><ele>355.8</ele><time>2026-05-02T14:59:13Z</time></trkpt><trkpt lat="39.217504873495386" lon="8.644918568952509"><ele>356.20000000000005</ele><time>2026-05-02T14:59:15Z</time></trkpt><trkpt lat="39.217524737229816" lon="8.645000679527405"><ele>356.6</ele><time>2026-05-02T14:59:16Z</time></trkpt><trkpt lat="39.217544330817915" lon="8.645091619583392"><ele>357.0</ele><time>2026-05-02T14:59:17Z</time></trkpt><trkpt lat="39.21757107102944" lon="8.645237896051722"><ele>360.40000000000003</ele><time>2026-05-02T14:59:18Z</time></trkpt><trkpt lat="39.21760705288053" lon="8.645370340820437"><ele>363.8</ele><time>2026-05-02T14:59:19Z</time></trkpt><trkpt lat="39.21763103107477" lon="8.645471957478176"><ele>367.2</ele><time>2026-05-02T14:59:20Z</time></trkpt><trkpt lat="39.21768048184569" lon="8.645552750522478"><ele>370.6</ele><time>2026-05-02T14:59:21Z</time></trkpt><trkpt lat="39.21775919661657" lon="8.645612981082254"><ele>374.0</ele><time>2026-05-02T14:59:22Z</time></trkpt><trkpt lat="39.21784449077853" lon="8.645657322455108"><ele>374.0</ele><time>2026-05-02T14:59:23Z</time></trkpt><trkpt lat="39.21791991943785" lon="8.645674918609755"><ele>374.0</ele><time>2026-05-02T14:59:24Z</time></trkpt><trkpt lat="39.21798463169715" lon="8.645655628887281"><ele>374.0</ele><time>2026-05-02T14:59:25Z</time></trkpt><trkpt lat="39.218051777183746" lon="8.645606980051518"><ele>374.0</ele><time>2026-05-02T14:59:26Z</time></trkpt><trkpt lat="39.21811455422146" lon="8.645550264506195"><ele>374.0</ele><time>2026-05-02T14:59:27Z</time></trkpt><trkpt lat="39.21816746657867" lon="8.645480043651736"><ele>374.0</ele><time>2026-05-02T14:59:28Z</time></trkpt><trkpt lat="39.218215611286624" lon="8.645396459709087"><ele>373.83333333333337</ele><time>2026-05-02T14:59:29Z</time></trkpt><trkpt lat="39.21826505027102" lon="8.645303258052847"><ele>373.6666666666667</ele><time>2026-05-02T14:59:30Z</time></trkpt><trkpt lat="39.21831243705968" lon="8.645194982705952"><ele>373.5</ele><time>2026-05-02T14:59:31Z</time></trkpt><trkpt lat="39.21836445663341" lon="8.645094712284859"><ele>373.3333333333333</ele><time>2026-05-02T14:59:32Z</time></trkpt><trkpt lat="39.218440182894085" lon="8.645053126430994"><ele>373.16666666666663</ele><time>2026-05-02T14:59:33Z</time></trkpt><trkpt lat="39.2185040875169" lon="8.645010806373175"><ele>373.0</ele><time>2026-05-02T14:59:34Z</time></trkpt><trkpt lat="39.21857732555335" lon="8.644970824443558"><ele>372.2</ele><time>2026-05-02T14:59:35Z</time></trkpt><trkpt lat="39.218660835796804" lon="8.644919703212915"><ele>371.4</ele><time>2026-05-02T14:59:36Z</time></trkpt><trkpt lat="39.21874994433716" lon="8.64494452040197"><ele>370.59999999999997</ele><time>2026-05-02T14:59:37Z</time></trkpt><trkpt lat="39.218839513060615" lon="8.644983955763838"><ele>369.79999999999995</ele><time>2026-05-02T14:59:38Z</time></trkpt><trkpt lat="39.218920706249456" lon="8.645049354300845"><ele>369.0</ele><time>2026-05-02T14:59:39Z</time></trkpt><trkpt lat="39.218997150286086" lon="8.64513937343429"><ele>370.6</ele><time>2026-05-02T14:59:40Z</time></trkpt><trkpt lat="39.21906607206632" lon="8.645265344050275"><ele>372.2</ele><time>2026-05-02T14:59:41Z</time></trkpt><trkpt lat="39.219138301610826" lon="8.645397398656367"><ele>373.8</ele><time>2026-05-02T14:59:42Z</time></trkpt><trkpt lat="39.21920532488352" lon="8.645491857137204"><ele>375.40000000000003</ele><time>2026-05-02T14:59:43Z</time></trkpt><trkpt lat="39.219270108091436" lon="8.64557879085856"><ele>377.0</ele><time>2026-05-02T14:59:44Z</time></trkpt><trkpt lat="39.21933952513835" lon="8.645643638711864"><ele>377.0</ele><time>2026-05-02T14:59:45Z</time></trkpt><trkpt lat="39.21941148815783" lon="8.645680990715304"><ele>377.0</ele><time>2026-05-02T14:59:46Z</time></trkpt><trkpt lat="39.21948257452556" lon="8.645704238669502"><ele>377.0</ele><time>2026-05-02T14:59:47Z</time></trkpt><trkpt lat="39.2195960722558" lon="8.645647288216772"><ele>377.0</ele><time>2026-05-02T14:59:49Z</time></trkpt><trkpt lat="39.219665399980016" lon="8.64561363284383"><ele>377.0</ele><time>2026-05-02T14:59:49.999Z</time></trkpt><trkpt lat="39.21974835902947" lon="8.645577954277886"><ele>377.0</ele><time>2026-05-02T14:59:50.999Z</time></trkpt><trkpt lat="39.219813710999645" lon="8.645525545414763"><ele>380.20000000000005</ele><time>2026-05-02T14:59:51.999Z</time></trkpt><trkpt lat="39.219905540474855" lon="8.645489423037029"><ele>383.4</ele><time>2026-05-02T14:59:52.999Z</time></trkpt><trkpt lat="39.22001704444947" lon="8.645404350704535"><ele>386.6</ele><time>2026-05-02T14:59:53.999Z</time></trkpt><trkpt lat="39.22010698623445" lon="8.645318732838982"><ele>389.79999999999995</ele><time>2026-05-02T14:59:54.999Z</time></trkpt><trkpt lat="39.22017055884639" lon="8.645266181397892"><ele>393.0</ele><time>2026-05-02T14:59:55.999Z</time></trkpt><trkpt lat="39.22028740969289" lon="8.645216047842291"><ele>393.0</ele><time>2026-05-02T14:59:57.999Z</time></trkpt><trkpt lat="39.22035566470222" lon="8.645272422214967"><ele>393.0</ele><time>2026-05-02T14:59:58.999Z</time></trkpt><trkpt lat="39.22041634679776" lon="8.645334821272986"><ele>393.0</ele><time>2026-05-02T14:59:59.999Z</time></trkpt><trkpt lat="39.220498010002366" lon="8.64538495923176"><ele>393.0</ele><time>2026-05-02T15:00:00.999Z</time></trkpt><trkpt lat="39.22056856425916" lon="8.64546397862461"><ele>393.0</ele><time>2026-05-02T15:00:01.999Z</time></trkpt><trkpt lat="39.2206325354773" lon="8.645538903368603"><ele>393.0</ele><time>2026-05-02T15:00:02.999Z</time></trkpt><trkpt lat="39.220687162757635" lon="8.64561560752431"><ele>395.8333333333333</ele><time>2026-05-02T15:00:03.999Z</time></trkpt><trkpt lat="39.22074365489193" lon="8.645661036171052"><ele>398.66666666666663</ele><time>2026-05-02T15:00:04.999Z</time></trkpt><trkpt lat="39.220817295310894" lon="8.645653801655927"><ele>401.5</ele><time>2026-05-02T15:00:05.999Z</time></trkpt><trkpt lat="39.22088649142657" lon="8.645666638795541"><ele>404.3333333333333</ele><time>2026-05-02T15:00:06.999Z</time></trkpt><trkpt lat="39.220966881350016" lon="8.645665032525738"><ele>407.16666666666663</ele><time>2026-05-02T15:00:07.999Z</time></trkpt><trkpt lat="39.221054202375875" lon="8.645652505664371"><ele>410.0</ele><time>2026-05-02T15:00:08.999Z</time></trkpt><trkpt lat="39.22115698946875" lon="8.645653921834786"><ele>409.99999999999994</ele><time>2026-05-02T15:00:09.999Z</time></trkpt><trkpt lat="39.221260077426706" lon="8.64565054470329"><ele>410.0</ele><time>2026-05-02T15:00:10.999Z</time></trkpt><trkpt lat="39.22135138641632" lon="8.645641897803234"><ele>410.0</ele><time>2026-05-02T15:00:11.999Z</time></trkpt><trkpt lat="39.22142718901723" lon="8.64563418963058"><ele>410.0</ele><time>2026-05-02T15:00:12.999Z</time></trkpt><trkpt lat="39.22149295304855" lon="8.645640852611074"><ele>409.99999999999994</ele><time>2026-05-02T15:00:14.999Z</time></trkpt><trkpt lat="39.221555455255235" lon="8.645670448269449"><ele>410.0</ele><time>2026-05-02T15:02:30.999Z</time></trkpt><trkpt lat="39.22159663225587" lon="8.645791490840995"><ele>411.3333333333333</ele><time>2026-05-02T15:02:32.999Z</time></trkpt><trkpt lat="39.2216343523752" lon="8.645931893968784"><ele>412.66666666666663</ele><time>2026-05-02T15:02:34.999Z</time></trkpt><trkpt lat="39.22168787342619" lon="8.64605180658857"><ele>414.0</ele><time>2026-05-02T15:02:37.999Z</time></trkpt><trkpt lat="39.22172588137606" lon="8.646139404169721"><ele>415.33333333333337</ele><time>2026-05-02T15:02:42.999Z</time></trkpt><trkpt lat="39.22174332501394" lon="8.646219466353749"><ele>416.6666666666667</ele><time>2026-05-02T15:02:47.999Z</time></trkpt><trkpt lat="39.2217613207102" lon="8.6462992919911"><ele>418.0</ele><time>2026-05-02T15:03:10.999Z</time></trkpt><trkpt lat="39.221757852756205" lon="8.646384046829214"><ele>419.79999999999995</ele><time>2026-05-02T15:03:20Z</time></trkpt><trkpt lat="39.221742697668816" lon="8.646487993928128"><ele>421.6</ele><time>2026-05-02T15:03:22Z</time></trkpt><trkpt lat="39.22181684742835" lon="8.646586572946552"><ele>423.40000000000003</ele><time>2026-05-02T15:03:24Z</time></trkpt><trkpt lat="39.221898156792165" lon="8.64663935020416"><ele>425.20000000000005</ele><time>2026-05-02T15:03:26Z</time></trkpt><trkpt lat="39.222002761603314" lon="8.646698857215567"><ele>427.0</ele><time>2026-05-02T15:03:28Z</time></trkpt><trkpt lat="39.22205791668438" lon="8.646792596873201"><ele>427.0</ele><time>2026-05-02T15:03:31Z</time></trkpt><trkpt lat="39.222127108803676" lon="8.64681122014467"><ele>427.0</ele><time>2026-05-02T15:05:22.998Z</time></trkpt><trkpt lat="39.22206527701572" lon="8.646787128088068"><ele>427.0</ele><time>2026-05-02T15:05:32Z</time></trkpt><trkpt lat="39.22200567462763" lon="8.646735306708289"><ele>427.0</ele><time>2026-05-02T15:05:52Z</time></trkpt><trkpt lat="39.22194579487777" lon="8.646688279971032"><ele>427.0</ele><time>2026-05-02T15:05:58Z</time></trkpt><trkpt lat="39.221886477750054" lon="8.64665828995556"><ele>427.0</ele><time>2026-05-02T15:06:05.999Z</time></trkpt><trkpt lat="39.22183229377312" lon="8.646610124833927"><ele>427.0</ele><time>2026-05-02T15:06:11.999Z</time></trkpt><trkpt lat="39.22177508194814" lon="8.646549554549939"><ele>427.0</ele><time>2026-05-02T15:06:18.999Z</time></trkpt><trkpt lat="39.22183226954531" lon="8.64660058124376"><ele>427.0</ele><time>2026-05-02T15:11:32.998Z</time></trkpt><trkpt lat="39.2218836962652" lon="8.646648201782716"><ele>427.0</ele><time>2026-05-02T15:11:38.998Z</time></trkpt><trkpt lat="39.22194653312155" lon="8.646686335397483"><ele>427.0</ele><time>2026-05-02T15:11:45.996Z</time></trkpt><trkpt lat="39.22200948733343" lon="8.64669887581875"><ele>427.0</ele><time>2026-05-02T15:11:54.997Z</time></trkpt><trkpt lat="39.22206644776038" lon="8.646750061458523"><ele>427.0</ele><time>2026-05-02T15:12:31.998Z</time></trkpt><trkpt lat="39.22211011427733" lon="8.646813641748109"><ele>427.0</ele><time>2026-05-02T15:14:19.999Z</time></trkpt></trkseg></trk></gpx>